[[{"header":{"parameterUnit":"m.s-1","parameterCategory":1,"la1":30.6,"la2":28.766,"lo1":-90.7593,"lo2":-88.6598,"dy":0.0162,"dx":0.0183,"nx":116,"ny":114,"refTime":"2023-10-04T12:00:00:Z","depth":0,"parameterNumber":2,"parameterNumberName":"U-component_of_WINDS"},"data":[0.0,0.0,0.0,0.0,0.0,0.0,0.0,0.0,0.0,0.0,0.0,0.0,0.0,0.0,0.0,0.0,0.0,0.0,0.0,0.0,0.0,0.0,0.0,0.0,0.0,0.0,0.0,0.0,0.0,0.0,0.0,0.0,0.0,0.0,0.0,0.0,0.0,0.0,0.0,0.0,0.0,0.0,0.0,0.0,0.0,0.0,0.0,0.0,0.0,0.0,0.0,0.0,0.0,0.0,0.0,0.0,0.0,0.0,0.0,0.0,0.0,0.0,0.0,0.0,0.0,0.0,0.0,0.0,0.0,0.0,0.0,0.0,0.0,0.0,0.0,0.0,0.0,0.0,0.0,0.0,0.0,0.0,0.0,0.0,0.0,0.0,0.0,0.0,0.0,0.0,0.0,0.0,0.0,0.0,0.0,0.0,0.0,0.0,0.0,0.0,0.0,0.0,0.0,0.0,0.0,0.0,0.0,0.0,0.0,0.0,0.0,0.0,0.0,0.0,0.0,0.0,0.0,0.0,0.0,0.0,0.0,0.0,0.0,0.0,0.0,0.0,0.0,0.0,0.0,0.0,0.0,0.0,0.0,0.0,0.0,0.0,0.0,0.0,0.0,0.0,0.0,0.0,0.0,0.0,0.0,0.0,0.0,0.0,0.0,0.0,0.0,0.0,0.0,0.0,0.0,0.0,0.0,0.0,0.0,0.0,0.0,0.0,0.0,0.0,0.0,0.0,0.0,0.0,0.0,0.0,0.0,0.0,0.0,0.0,0.0,0.0,0.0,0.0,0.0,0.0,0.0,0.0,0.0,0.0,0.0,0.0,0.0,0.0,0.0,0.0,0.0,0.0,0.0,0.0,0.0,0.0,0.0,0.0,0.0,0.0,0.0,0.0,0.0,0.0,0.0,0.0,0.0,0.0,0.0,0.0,0.0,0.0,0.0,0.0,0.0,0.0,0.0,0.0,0.0,0.0,0.0,0.0,0.0,0.0,0.0,0.0,0.0,0.0,0.0,0.0,0.0,0.0,0.0,0.0,0.0,0.0,0.0,0.0,0.0,0.0,0.0,0.0,0.0,0.0,0.0,0.0,0.0,0.0,0.0,0.0,0.0,0.0,0.0,0.0,0.0,0.0,0.0,0.0,0.0,0.0,0.0,0.0,0.0,0.0,0.0,0.0,0.0,0.0,0.0,0.0,0.0,0.0,0.0,0.0,0.0,0.0,0.0,0.0,0.0,0.0,0.0,0.0,0.0,0.0,0.0,0.0,0.0,0.0,0.0,0.0,0.0,0.0,0.0,0.0,0.0,0.0,0.0,0.0,0.0,0.0,0.0,0.0,0.0,0.0,0.0,0.0,0.0,0.0,0.0,0.0,0.0,0.0,0.0,0.0,0.0,0.0,0.0,0.0,0.0,0.0,0.0,0.0,0.0,0.0,0.0,0.0,0.0,0.0,0.0,0.0,0.0,0.0,0.0,0.0,0.0,0.0,0.0,0.0,0.0,0.0,0.0,0.0,0.0,0.0,0.0,0.0,0.0,0.0,0.0,0.0,0.0,0.0,0.0,0.0,0.0,0.0,0.0,0.0,0.0,0.0,0.0,0.0,0.0,0.0,0.0,0.0,0.0,0.0,0.0,0.0,0.0,0.0,0.0,0.0,0.0,0.0,0.0,0.0,0.0,0.0,0.0,0.0,0.0,0.0,0.0,0.0,0.0,0.0,0.0,0.0,0.0,0.0,0.0,0.0,0.0,0.0,0.0,0.0,0.0,0.0,0.0,0.0,0.0,0.0,0.0,0.0,0.0,0.0,0.0,0.0,0.0,0.0,0.0,0.0,0.0,0.0,0.0,0.0,0.0,0.0,0.0,0.0,0.0,0.0,0.0,0.0,0.0,0.0,0.0,0.0,0.0,0.0,0.0,0.0,0.0,0.0,0.0,0.0,0.0,0.0,0.0,0.0,0.0,0.0,0.0,0.0,0.0,0.0,0.0,0.0,0.0,0.0,0.0,0.0,0.0,0.0,0.0,0.0,0.0,0.0,0.0,0.0,0.0,0.0,0.0,0.0,0.0,0.0,0.0,0.0,0.0,0.0,0.0,0.0,0.0,0.0,0.0,0.0,0.0,0.0,0.0,0.0,0.0,0.0,0.0,0.0,0.0,0.0,0.0,0.0,0.0,0.0,0.0,0.0,0.0,0.0,0.0,0.0,0.0,0.0,0.0,0.0,0.0,0.0,0.0,0.0,0.0,0.0,0.0,0.0,0.0,0.0,0.0,0.0,0.0,0.0,0.0,0.0,0.0,0.0,0.0,0.0,0.0,0.0,0.0,0.0,0.0,0.0,0.0,0.0,0.0,0.0,0.0,0.0,0.0,0.0,0.0,0.0,0.0,0.0,0.0,0.0,0.0,0.0,0.0,0.0,0.0,0.0,0.0,0.0,0.0,0.0,0.0,0.0,0.0,0.0,0.0,0.0,0.0,0.0,0.0,0.0,0.0,0.0,0.0,0.0,0.0,0.0,0.0,0.0,0.0,0.0,0.0,0.0,0.0,0.0,0.0,0.0,0.0,0.0,0.0,0.0,0.0,0.0,0.0,0.0,0.0,0.0,0.0,0.0,0.0,0.0,0.0,0.0,0.0,0.0,0.0,0.0,0.0,0.0,0.0,0.0,0.0,0.0,0.0,0.0,0.0,0.0,0.0,0.0,0.0,0.0,0.0,0.0,0.0,0.0,0.0,0.0,0.0,0.0,0.0,0.0,0.0,0.0,0.0,0.0,0.0,0.0,0.0,0.0,0.0,0.0,0.0,0.0,0.0,0.0,0.0,0.0,0.0,0.0,0.0,0.0,0.0,0.0,0.0,0.0,0.0,0.0,0.0,0.0,0.0,0.0,0.0,0.0,0.0,0.0,0.0,0.0,0.0,0.0,0.0,0.0,0.0,0.0,0.0,0.0,0.0,0.0,0.0,0.0,0.0,0.0,0.0,0.0,0.0,0.0,0.0,0.0,0.0,0.0,0.0,0.0,0.0,0.0,0.0,0.0,0.0,0.0,0.0,0.0,0.0,0.0,0.0,0.0,0.0,0.0,0.0,0.0,0.0,0.0,0.0,0.0,0.0,0.0,0.0,0.0,0.0,0.0,0.0,0.0,0.0,0.0,0.0,0.0,0.0,0.0,0.0,0.0,0.0,0.0,0.0,0.0,0.0,0.0,0.0,0.0,0.0,0.0,0.0,0.0,0.0,0.0,0.0,0.0,0.0,0.0,0.0,0.0,0.0,0.0,0.0,0.0,0.0,0.0,0.0,0.0,0.0,0.0,0.0,0.0,0.0,0.0,0.0,0.0,0.0,0.0,0.0,0.0,0.0,0.0,0.0,0.0,0.0,0.0,0.0,0.0,0.0,0.0,0.0,0.0,0.0,0.0,0.0,0.0,0.0,0.0,0.0,0.0,0.0,0.0,0.0,0.0,0.0,0.0,0.0,0.0,0.0,0.0,0.0,0.0,0.0,0.0,0.0,0.0,0.0,0.0,0.0,0.0,0.0,0.0,0.0,0.0,0.0,0.0,0.0,0.0,0.0,0.0,0.0,0.0,0.0,0.0,0.0,0.0,0.0,0.0,0.0,0.0,0.0,0.0,0.0,0.0,0.0,0.0,0.0,0.0,0.0,0.0,0.0,0.0,0.0,0.0,0.0,0.0,0.0,0.0,0.0,0.0,0.0,0.0,0.0,0.0,0.0,0.0,0.0,0.0,0.0,0.0,0.0,0.0,0.0,0.0,0.0,0.0,0.0,0.0,0.0,0.0,0.0,0.0,0.0,0.0,0.0,0.0,0.0,0.0,0.0,0.0,0.0,0.0,0.0,0.0,0.0,0.0,0.0,0.0,0.0,0.0,0.0,0.0,0.0,0.0,0.0,0.0,0.0,0.0,0.0,0.0,0.0,0.0,0.0,0.0,0.0,0.0,0.0,0.0,0.0,0.0,0.0,0.0,0.0,0.0,0.0,0.0,0.0,0.0,0.0,0.0,0.0,0.0,0.0,0.0,0.0,0.0,0.0,0.0,0.0,0.0,0.0,0.0,0.0,0.0,0.0,0.0,0.0,0.0,0.0,0.0,0.0,0.0,0.0,0.0,0.0,0.0,0.0,0.0,0.0,0.0,0.0,0.0,0.0,0.0,0.0,0.0,0.0,0.0,0.0,0.0,0.0,0.0,0.0,0.0,0.0,0.0,0.0,0.0,0.0,0.0,0.0,0.0,0.0,0.0,0.0,0.0,0.0,0.0,0.0,0.0,0.0,0.0,0.0,0.0,0.0,0.0,0.0,0.0,0.0,0.0,0.0,0.0,0.0,0.0,0.0,0.0,0.0,0.0,0.0,0.0,0.0,0.0,0.0,0.0,0.0,0.0,0.0,0.0,0.0,0.0,0.0,0.0,0.0,0.0,0.0,0.0,0.0,0.0,0.0,0.0,0.0,0.0,0.0,0.0,0.0,0.0,0.0,0.0,0.0,0.0,0.0,0.0,0.0,0.0,0.0,0.0,0.0,0.0,0.0,0.0,0.0,0.0,0.0,0.0,0.0,0.0,0.0,0.0,0.0,0.0,0.0,0.0,0.0,0.0,0.0,0.0,0.0,0.0,0.0,0.0,0.0,0.0,0.0,0.0,0.0,0.0,0.0,0.0,0.0,0.0,0.0,0.0,0.0,0.0,0.0,0.0,0.0,0.0,0.0,0.0,0.0,0.0,0.0,0.0,0.0,0.0,0.0,0.0,0.0,0.0,0.0,0.0,0.0,0.0,0.0,0.0,0.0,0.0,0.0,0.0,0.0,0.0,0.0,0.0,0.0,0.0,0.0,0.0,0.0,0.0,0.0,0.0,0.0,0.0,0.0,0.0,0.0,0.0,0.0,0.0,0.0,0.0,0.0,0.0,0.0,0.0,0.0,0.0,0.0,0.0,0.0,0.0,0.0,0.0,0.0,0.0,0.0,0.0,0.0,0.0,0.0,0.0,0.0,0.0,0.0,0.0,0.0,0.0,0.0,0.0,0.0,0.0,0.0,0.0,0.0,0.0,0.0,0.0,0.0,0.0,0.0,0.0,0.0,0.0,0.0,0.0,0.0,0.0,0.0,0.0,0.0,0.0,0.0,0.0,0.0,0.0,0.0,0.0,0.0,0.0,0.0,0.0,0.0,0.0,0.0,0.0,0.0,0.0,0.0,0.0,0.0,0.0,0.0,0.0,0.0,0.0,0.0,0.0,0.0,0.0,0.0,0.0,0.0,0.0,0.0,0.0,0.0,0.0,0.0,0.0,0.0,0.0,0.0,0.0,0.0,0.0,0.0,0.0,0.0,0.0,0.0,0.0,0.0,0.0,0.0,0.0,0.0,0.0,0.0,0.0,0.0,0.0,0.0,0.0,0.0,0.0,0.0,0.0,0.0,0.0,0.0,0.0,0.0,0.0,0.0,0.0,0.0,0.0,0.0,0.0,0.0,0.0,0.0,0.0,0.0,0.0,0.0,0.0,0.0,0.0,0.0,0.0,0.0,0.0,0.0,0.0,0.0,0.0,0.0,0.0,0.0,0.0,0.0,0.0,0.0,0.0,0.0,0.0,0.0,0.0,0.0,0.0,0.0,0.0,0.0,0.0,0.0,0.0,0.0,0.0,0.0,0.0,0.0,0.0,0.0,0.0,0.0,0.0,0.0,0.0,0.0,0.0,0.0,0.0,0.0,0.0,0.0,0.0,0.0,0.0,0.0,0.0,0.0,0.0,0.0,0.0,0.0,0.0,0.0,0.0,0.0,0.0,0.0,0.0,0.0,0.0,0.0,0.0,0.0,0.0,0.0,0.0,0.0,0.0,0.0,0.0,0.0,0.0,0.0,0.0,0.0,0.0,0.0,0.0,0.0,0.0,0.0,0.0,0.0,0.0,0.0,0.0,0.0,0.0,0.0,0.0,0.0,0.0,0.0,0.0,0.0,0.0,0.0,0.0,0.0,0.0,0.0,0.0,0.0,0.0,0.0,0.0,0.0,0.0,0.0,0.0,0.0,0.0,0.0,0.0,0.0,0.0,0.0,0.0,0.0,0.0,0.0,0.0,0.0,0.0,0.0,0.0,-0.3224,-0.2843,0.0,0.0,0.0,0.0,0.0,0.0,0.0,0.0,0.0,0.0,0.0,0.0,0.0,0.0,0.0,0.0,0.0,0.0,0.0,0.0,0.0,0.0,0.0,0.0,0.0,0.0,0.0,0.0,0.0,0.0,0.0,0.0,0.0,0.0,0.0,0.0,0.0,0.0,0.0,-0.3494,-0.3478,-0.3104,-0.2769,-0.243,0.0,0.0,0.0,0.0,0.0,0.0,0.0,0.0,0.0,0.0,0.0,0.0,0.0,0.0,0.0,0.0,0.0,0.0,0.0,0.0,0.0,0.0,0.0,0.0,0.0,0.0,0.0,0.0,0.0,0.0,0.0,0.0,0.0,0.0,0.0,0.0,0.0,0.0,0.0,0.0,0.0,0.0,0.0,0.0,0.0,0.0,0.0,0.0,0.0,0.0,0.0,0.0,0.0,0.0,0.0,0.0,0.0,0.0,0.0,0.0,0.0,0.0,0.0,0.0,0.0,0.0,0.0,0.0,0.0,0.0,-0.4274,-0.3708,0.0,0.0,0.0,0.0,0.0,0.0,0.0,0.0,0.0,0.0,0.0,0.0,0.0,0.0,0.0,0.0,0.0,0.0,0.0,0.0,0.0,0.0,0.0,0.0,0.0,0.0,0.0,0.0,0.0,0.0,0.0,0.0,0.0,0.0,0.0,0.0,0.0,0.0,0.0,0.0,-0.4303,-0.3904,-0.3523,-0.3232,-0.3098,0.0,0.0,0.0,0.0,0.0,0.0,0.0,0.0,0.0,0.0,0.0,0.0,0.0,0.0,0.0,0.0,0.0,0.0,0.0,0.0,0.0,0.0,0.0,0.0,0.0,0.0,0.0,0.0,0.0,0.0,0.0,0.0,0.0,0.0,0.0,0.0,0.0,0.0,0.0,0.0,0.0,0.0,0.0,0.0,0.0,0.0,0.0,0.0,0.0,0.0,0.0,0.0,0.0,0.0,0.0,0.0,0.0,0.0,0.0,0.0,0.0,0.0,0.0,-0.5766,-0.6077,-0.6291,-0.6289,-0.6199,-0.6048,-0.5339,-0.4796,-0.4459,-0.4204,0.0,0.0,0.0,0.0,0.0,0.0,0.0,0.0,0.0,0.0,0.0,0.0,0.0,0.0,0.0,0.0,0.0,0.0,0.0,0.0,0.0,-0.6124,-0.6139,-0.6374,-0.6233,-0.6207,0.0,0.0,0.0,0.0,0.0,0.0,0.0,0.0,0.0,0.0,0.0,-0.5068,-0.5193,-0.5043,-0.5032,-0.5041,-0.3919,-0.3293,-0.3081,0.0,0.0,0.0,0.0,0.0,0.0,0.0,0.0,0.0,0.0,0.0,0.0,0.0,0.0,0.0,0.0,0.0,0.0,0.0,0.0,0.0,0.0,0.0,0.0,0.0,0.0,0.0,0.0,0.0,0.0,0.0,0.0,0.0,0.0,0.0,0.0,0.0,0.0,0.0,0.0,0.0,-0.3197,-0.3682,0.0,0.0,0.0,0.0,0.0,0.0,0.0,0.0,0.0,0.0,0.0,0.0,0.0,-0.4685,-0.5254,-0.4988,-0.5525,-0.693,-0.6567,-0.6357,-0.6461,-0.6911,-0.6804,-0.6212,-0.6556,0.0,-0.5178,-0.4841,0.0,0.0,0.0,0.0,0.0,0.0,0.0,0.0,0.0,0.0,0.0,0.0,0.0,0.0,0.0,0.0,0.0,0.0,0.0,0.0,0.0,-0.6648,-0.6686,-0.6734,-0.6733,-0.6763,-0.6746,0.0,0.0,0.0,0.0,0.0,0.0,0.0,0.0,0.0,-0.6153,-0.6217,-0.6275,-0.5981,-0.5852,-0.592,-0.5336,-0.4792,-0.4226,-0.3781,0.0,0.0,0.0,0.0,0.0,0.0,0.0,0.0,0.0,0.0,0.0,0.0,0.0,0.0,0.0,0.0,0.0,0.0,0.0,0.0,0.0,0.0,0.0,0.0,0.0,0.0,0.0,0.0,0.0,0.0,0.0,0.0,0.0,0.0,0.0,0.0,0.0,0.0,0.0,-0.3604,-0.3784,-0.4381,-0.3744,-0.3317,0.0,0.0,0.0,0.0,0.0,0.0,0.0,0.0,0.0,-0.5313,-0.5293,-0.5567,-0.6075,-0.5917,-0.6335,-0.7243,-0.7207,-0.7199,-0.7356,-0.7433,-0.7348,-0.7029,-0.7065,-0.6842,-0.6515,-0.5723,-0.5199,-0.5048,0.0,0.0,0.0,0.0,-0.5343,-0.5648,0.0,0.0,0.0,0.0,0.0,0.0,0.0,0.0,0.0,0.0,0.0,0.0,-0.7166,-0.7389,-0.753,-0.7466,-0.748,-0.7399,-0.7344,-0.6907,0.0,0.0,0.0,0.0,0.0,0.0,0.0,-0.7716,-0.7427,-0.7316,-0.7207,-0.7006,-0.691,-0.6876,-0.6656,-0.61,-0.5237,-0.4571,-0.3953,-0.3411,0.0,0.0,0.0,0.0,0.0,0.0,0.0,0.0,0.0,0.0,0.0,0.0,0.0,0.0,0.0,0.0,0.0,0.0,0.0,0.0,0.0,0.0,0.0,0.0,0.0,0.0,0.0,0.0,0.0,0.0,0.0,0.0,0.0,0.0,0.0,0.0,0.0,-0.4491,-0.4437,-0.5031,-0.4452,-0.4124,0.0,0.0,0.0,0.0,0.0,0.0,-0.5709,-0.5843,-0.6155,-0.6453,-0.6231,-0.6384,-0.6824,-0.6802,-0.6971,-0.7456,-0.755,-0.7645,-0.7864,-0.7766,-0.7676,-0.7497,-0.732,-0.739,-0.7539,-0.6441,-0.5984,-0.6028,-0.5978,-0.6062,-0.6273,-0.6144,-0.6369,-0.674,0.0,0.0,0.0,0.0,0.0,0.0,0.0,0.0,0.0,0.0,0.0,-0.7517,-0.8009,-0.8398,-0.8754,-0.9041,-0.8636,-0.8408,-0.8583,-0.7543,-0.6777,-0.6576,0.0,0.0,0.0,0.0,0.0,-0.8317,-0.8281,-0.8122,-0.7987,-0.8136,-0.8234,-0.829,-0.7664,-0.6894,-0.5823,-0.5714,-0.515,-0.4382,-0.3542,0.0,0.0,0.0,0.0,0.0,0.0,0.0,0.0,0.0,0.0,0.0,0.0,0.0,0.0,0.0,0.0,0.0,0.0,0.0,0.0,0.0,0.0,0.0,0.0,0.0,0.0,0.0,0.0,0.0,0.0,0.0,0.0,0.0,0.0,0.0,0.0,0.0,0.0,-0.5696,-0.5365,0.0,0.0,0.0,0.0,-0.572,-0.6337,-0.6569,-0.6409,-0.7083,-0.7163,-0.6492,-0.6834,-0.7181,-0.7652,-0.707,-0.7368,-0.8332,-0.7726,-0.7422,-0.7313,-0.7669,-0.76,-0.7161,-0.7506,-0.7608,-0.7462,-0.697,-0.6927,-0.7276,-0.7327,-0.7374,-0.7259,-0.7587,-0.7743,-0.7777,0.0,0.0,0.0,0.0,0.0,0.0,0.0,0.0,0.0,-0.7324,-0.7783,-0.8326,-0.8895,-0.9462,-0.9845,-0.9887,-0.9836,-0.9647,-0.9242,-0.8312,-0.7649,-0.7389,0.0,0.0,0.0,0.0,-0.8488,-0.9432,-0.9072,-0.8991,-0.9153,-0.9209,-0.9149,-0.8783,-0.8431,-0.7976,-0.7382,-0.6724,-0.6093,-0.5315,-0.4734,-0.4069,0.0,0.0,0.0,0.0,0.0,0.0,0.0,0.0,0.0,0.0,0.0,0.0,0.0,0.0,0.0,0.0,0.0,0.0,0.0,0.0,0.0,0.0,0.0,0.0,0.0,0.0,0.0,0.0,0.0,0.0,0.0,0.0,0.0,0.0,0.0,0.0,0.0,-0.5877,-0.5951,0.0,-0.6002,-0.6622,-0.7094,-0.7077,-0.7434,-0.7673,-0.7819,-0.7614,-0.7589,-0.803,-0.7635,-0.7798,-0.8412,-0.7663,-0.7809,-0.8612,-0.8108,-0.7958,-0.7918,-0.8087,-0.8016,-0.7736,-0.7826,-0.7982,-0.8201,-0.7932,-0.7781,-0.7535,-0.7509,-0.7579,-0.7766,-0.7508,-0.7788,-0.828,0.0,0.0,0.0,0.0,0.0,0.0,0.0,0.0,0.0,-0.785,-0.8462,-0.9221,-1.0202,-1.0736,-1.1032,-1.1044,-1.0762,-1.0369,-0.9802,-0.8949,-0.8344,-0.8013,-0.7744,0.0,0.0,-0.8868,-0.9256,-1.0302,-0.9823,-0.9727,-0.9828,-0.9937,-0.9843,-0.9469,-0.9267,-0.9011,-0.8637,-0.803,-0.7292,-0.6364,-0.5852,-0.5343,-0.4711,0.0,0.0,0.0,0.0,0.0,0.0,0.0,0.0,0.0,0.0,0.0,0.0,0.0,0.0,0.0,0.0,0.0,0.0,0.0,0.0,0.0,0.0,0.0,0.0,0.0,0.0,0.0,0.0,0.0,0.0,0.0,0.0,0.0,0.0,0.0,-0.689,-0.6797,-0.7017,-0.7097,-0.7267,-0.777,-0.827,-0.8311,-0.8458,-0.8666,-0.8848,-0.8409,-0.8443,-0.8739,-0.8284,-0.8155,-0.8617,-0.8103,-0.8103,-0.8617,-0.8489,-0.8361,-0.8364,-0.8489,-0.8571,-0.8609,-0.8358,-0.85,-0.889,-0.8872,-0.8451,-0.8013,-0.8103,-0.8294,-0.8491,-0.8164,-0.8304,-0.8659,0.0,0.0,0.0,0.0,0.0,0.0,0.0,-0.7279,-0.7654,-0.858,-0.9226,-1.0242,-1.1935,-1.2085,-1.2199,-1.2528,-1.1461,-1.0603,-1.0273,-0.9336,-0.8739,0.0,0.0,0.0,-0.9813,-0.9944,-1.0209,-1.086,-1.0547,-1.0329,-1.0107,-1.0329,-1.0347,-1.0272,-1.0172,-0.9963,-0.9489,-0.9489,-0.8811,-0.7545,-0.6984,-0.661,-0.6212,0.0,0.0,0.0,0.0,0.0,0.0,0.0,0.0,0.0,0.0,0.0,0.0,0.0,0.0,0.0,0.0,0.0,0.0,0.0,0.0,0.0,0.0,0.0,0.0,0.0,0.0,0.0,0.0,0.0,0.0,0.0,0.0,0.0,-0.7465,-0.7962,-0.8461,-0.8501,-0.8533,-0.8693,-0.9036,-0.8803,-0.8806,-0.9332,-0.9484,-0.95,-0.9385,-0.964,-0.9513,-0.8884,-0.875,-0.8625,-0.8244,-0.8244,-0.8244,-0.8244,-0.8628,-0.8884,-0.8884,-0.9136,-0.9516,-0.9758,-0.9378,-0.9315,-0.9535,-0.94,-0.902,-0.8766,-0.9215,-0.9523,-0.961,-0.961,-0.9286,-0.8826,0.0,0.0,0.0,0.0,0.0,0.0,0.0,-0.7669,-0.8148,-0.8456,-0.9599,-1.084,-1.1999,-1.2331,-1.2735,-1.3161,-1.2385,-1.1706,-1.1236,-1.0266,-0.9776,0.0,0.0,0.0,-1.116,-1.1162,-1.1426,-1.1806,-1.1635,-1.1489,-1.1485,-1.1489,-1.1388,-1.0996,-1.0563,-1.0355,-1.029,-0.988,-0.9693,-0.9347,-0.7802,-0.7316,-0.7301,0.0,0.0,0.0,0.0,0.0,0.0,0.0,0.0,0.0,0.0,0.0,0.0,0.0,0.0,0.0,0.0,0.0,0.0,0.0,0.0,0.0,0.0,0.0,0.0,0.0,0.0,0.0,0.0,0.0,0.0,0.0,0.0,-0.8699,-0.856,-0.8683,-0.8861,-0.8982,-0.9326,-0.9576,-0.9587,-0.9936,-1.0065,-1.0005,-1.0066,-1.0072,-0.993,-0.9453,-0.9314,-0.9808,-0.8932,-0.8799,-0.9285,-0.9019,-0.9019,-0.9288,-0.9419,-0.9419,-0.9419,-0.9548,-0.9624,-0.9528,-0.9748,-0.98,-0.9687,-0.9551,-0.9474,-0.929,-0.9284,-0.9215,-0.9089,-0.9089,-0.9178,-0.9239,0.0,0.0,0.0,0.0,0.0,0.0,0.0,-0.7826,-0.8569,-0.9177,-1.0376,-1.1737,-1.3044,-1.327,-1.3363,-1.3707,-1.289,-1.222,-1.1678,-1.1037,0.0,0.0,0.0,-1.1742,-1.2183,-1.2168,-1.2295,-1.2493,-1.2422,-1.227,-1.1912,-1.2046,-1.1837,-1.1406,-1.1181,-1.1074,-1.0897,-1.0581,-1.0264,-0.9863,-0.8763,-0.8566,-0.8837,-0.8277,-0.8304,-0.8636,-0.7944,-0.7794,-0.7762,-0.6793,0.0,0.0,0.0,0.0,0.0,0.0,0.0,0.0,0.0,0.0,0.0,0.0,0.0,0.0,0.0,0.0,0.0,0.0,0.0,0.0,0.0,0.0,0.0,0.0,-0.9341,-0.9748,-0.9693,-0.9727,-0.9871,-0.9804,-1.0074,-1.0407,-1.0436,-1.0674,-1.0706,-1.0644,-1.0649,-1.0668,-1.0578,-1.0241,-1.0234,-1.0452,-0.9585,-0.9318,-0.9661,-0.9253,-0.9253,-0.9661,-0.9794,-0.9927,-0.9927,-1.006,-1.0145,-1.0192,-1.026,-1.0313,-1.0472,-1.0263,-1.0173,-1.0153,0.0,0.0,0.0,0.0,-0.961,-0.9715,0.0,0.0,0.0,0.0,0.0,0.0,0.0,-0.7844,-0.8848,-1.0174,-1.1226,-1.264,-1.4504,-1.4303,-1.4072,-1.4153,-1.3251,-1.2376,-1.1909,-1.1723,0.0,-1.2532,-1.2547,-1.2841,-1.3272,-1.3194,-1.3197,-1.3078,-1.3093,-1.2774,-1.2199,-1.2211,-1.2005,-1.1787,-1.1896,-1.1797,-1.1514,-1.1411,-1.0661,-0.9657,-0.9863,-1.0088,-1.0318,-1.0292,-1.0149,-0.9786,-0.947,-0.9152,-0.8718,-0.8355,0.0,0.0,0.0,0.0,0.0,0.0,0.0,0.0,0.0,0.0,0.0,0.0,0.0,0.0,0.0,0.0,0.0,0.0,0.0,0.0,0.0,0.0,0.0,0.0,-1.0333,-1.0679,-1.0872,-1.0922,-1.0966,-1.0966,-1.0951,-1.1054,-1.1394,-1.1204,-1.102,-1.1288,-1.1315,-1.123,-1.1247,0.0,0.0,0.0,0.0,-1.006,-0.9794,-0.9389,-0.9389,-0.9794,-1.006,-1.0326,-1.0326,-1.0588,-1.0843,-1.1215,-1.083,-1.1027,-1.1634,-1.1214,-1.1083,-1.0926,-0.9645,-0.9503,-1.0087,-1.0296,-1.0357,-1.0237,0.0,0.0,0.0,0.0,0.0,0.0,0.0,-0.7844,-0.8766,-0.9806,-1.1148,-1.258,-1.4093,-1.4115,-1.4188,-1.4782,-1.3618,-1.2872,-1.2687,0.0,-1.3207,-1.4166,-1.432,-1.4508,-1.4966,-1.5005,-1.4933,-1.4856,-1.4722,-1.4407,-1.4093,-1.3421,-1.2985,-1.2985,-1.2332,-1.22,-1.2488,-1.1837,-1.1294,-1.0911,-1.1212,-1.0824,-1.0238,-1.0545,-1.1104,-1.1696,-1.1288,-1.1084,-1.0891,-0.9953,-0.9039,-0.8078,-0.6969,0.0,0.0,0.0,0.0,0.0,0.0,0.0,0.0,0.0,0.0,0.0,0.0,0.0,0.0,0.0,0.0,0.0,0.0,0.0,0.0,-1.0593,-1.0929,-1.1355,-1.1705,-1.1949,-1.1948,-1.1568,-1.1693,-1.1918,-1.2376,-1.2323,-1.2146,-1.2039,-1.1982,-1.1631,-1.124,-1.1247,-1.1118,-1.0721,-1.0323,-1.0193,-1.006,-1.0057,-1.0057,-1.006,-1.0455,0.0,-1.0588,-1.0721,-1.0916,-1.1449,-1.1556,-1.1653,-1.1911,-1.1588,-1.1228,-1.0951,-1.0537,-1.0528,-1.062,-1.0707,-1.0696,-1.0677,0.0,0.0,0.0,0.0,0.0,0.0,0.0,-0.7835,-0.873,-0.9602,-1.0926,-1.2297,-1.3408,-1.3558,-1.3674,-1.3852,-1.3425,-1.3159,0.0,-1.3931,-1.4635,-1.5127,-1.5238,-1.5591,-1.6105,-1.6018,-1.584,-1.5778,-1.5975,-1.5765,-1.4993,-1.4409,-1.4025,-1.3696,-1.2816,-1.2659,-1.3098,-1.2332,-1.1896,-1.1778,-1.1675,-1.1423,-1.1074,-1.1094,-1.168,-1.2379,-1.2051,-1.1732,-1.1442,-1.0603,-0.9946,-0.9198,-0.7632,-0.6926,-0.6474,0.0,0.0,0.0,0.0,0.0,0.0,0.0,0.0,0.0,0.0,0.0,0.0,0.0,0.0,-0.9027,0.0,0.0,-1.0603,-1.13,-1.1756,-1.1984,-1.202,-1.2333,-1.2574,-1.2284,-1.2262,-1.2398,-1.2763,-1.2436,-1.2206,-1.2171,-1.2338,-1.2346,-1.2037,-1.2254,-1.2296,-1.1896,-1.144,-1.1177,-1.0836,-1.0695,-1.0525,-1.0455,-1.0853,-1.0986,-1.0986,-1.1383,-1.16,-1.1657,-1.1875,-1.2127,-1.2168,-1.2083,-1.1946,-1.1775,-1.1604,-1.136,-1.0904,-1.1061,-1.1031,-1.102,0.0,0.0,0.0,0.0,0.0,0.0,0.0,0.0,-0.8536,-0.9342,-1.0582,-1.1709,-1.2511,-1.2853,-1.2923,-1.2662,-1.3006,0.0,0.0,-1.507,-1.5892,-1.5934,-1.6151,-1.6586,-1.7162,-1.6886,-1.6703,-1.6609,-1.7034,-1.6702,-1.5682,-1.5188,-1.4746,-1.4298,-1.3411,-1.3098,-1.3212,-1.2597,-1.2261,-1.206,-1.1687,-1.1611,-1.1711,-1.1675,-1.2025,-1.2638,-1.2279,-1.1983,-1.1545,-1.1023,-1.0486,-0.9869,-0.8397,-0.7728,-0.7434,-0.6773,-0.6571,0.0,0.0,0.0,0.0,0.0,0.0,0.0,0.0,0.0,-0.9397,-0.905,-0.9271,-0.9721,-1.0393,-1.0795,-1.1224,-1.1952,-1.2615,-1.2825,-1.2419,-1.2821,-1.3189,-1.3208,-1.2906,-1.2721,-1.3026,-1.2582,-1.2302,-1.2431,-1.2632,-1.2885,-1.2885,-1.3323,-1.3419,-1.301,-1.2604,-1.2205,-1.1671,-1.1361,-1.1146,-1.0895,-1.1262,-1.138,-1.1383,-1.1912,-1.2157,-1.1991,-1.2258,-1.2409,-1.2561,-1.2548,-1.2793,-1.2919,-1.2496,-1.2012,-1.1487,-1.1401,-1.1421,-1.1273,0.0,0.0,0.0,0.0,0.0,0.0,0.0,0.0,0.0,-0.869,-0.9661,-1.0611,-1.1482,-1.1784,-1.2089,-1.239,0.0,0.0,-1.5098,-1.5821,-1.6591,-1.7626,-1.7678,-1.7956,-1.8252,-1.8283,-1.8236,-1.8223,-1.7821,-1.7491,-1.7297,-1.5752,-1.5076,-1.5291,-1.3847,-1.3315,-1.3222,-1.2644,-1.1957,-1.1526,-1.1168,-1.1056,-1.1156,-1.1502,-1.2157,-1.2925,-1.2713,-1.2345,-1.1884,-1.1615,-1.0631,-0.958,-0.971,-0.8841,-0.7801,-0.8058,0.0,-0.7048,-0.7917,-0.8706,-0.9453,-1.0434,-1.0669,-1.0778,0.0,0.0,-1.1098,-1.0567,-1.0866,-1.1106,-1.0752,-1.1577,-1.239,-1.2632,-1.3332,-1.3765,-1.3877,-1.3947,-1.4057,-1.4335,-1.3747,-1.3468,-1.3658,-1.3479,-1.3598,-1.3855,-1.3405,-1.3068,-1.3068,-1.3242,-1.3066,-1.2376,-1.267,-1.2532,-1.2242,-1.1954,-1.1869,-1.1851,-1.1714,-1.178,-1.178,-1.178,-1.2092,-1.2459,-1.2722,-1.3076,-1.3235,-1.2947,-1.3058,-1.3291,-1.273,-1.2652,-1.285,-1.2125,-1.165,-1.1273,0.0,0.0,0.0,0.0,0.0,0.0,0.0,0.0,0.0,0.0,-0.869,-0.9383,-0.9768,-1.0263,-1.0764,-1.1292,0.0,0.0,-1.4659,-1.6451,-1.7581,-1.7867,-1.8309,-1.8779,-1.9483,-1.8961,-1.9033,-1.9509,-1.9152,-1.8581,-1.7999,-1.6879,-1.6186,-1.5958,-1.4603,-1.4061,-1.4187,-1.3414,-1.2942,-1.2815,-1.1564,-1.1561,-1.2211,-1.1467,-1.1917,-1.306,-1.2694,-1.2314,0.0,0.0,-1.0686,-1.0318,-0.9582,-0.9167,-0.896,-0.8678,-0.8495,0.0,-0.99,-1.0479,0.0,0.0,-1.2015,-1.1976,-1.1733,-1.17,-1.1558,-1.1138,-1.1191,-1.133,-1.1736,-1.2134,-1.2616,0.0,-1.374,-1.4078,-1.4125,-1.429,-1.4303,-1.4178,-1.4168,-1.4187,-1.4125,-1.3721,-1.3556,-1.3792,-1.3815,-1.3684,-1.3522,-1.3878,-1.383,-1.338,-1.3518,-1.3518,-1.3102,-1.2654,-1.2384,-1.2415,-1.2121,-1.2045,-1.2045,-1.2572,-1.28,-1.2983,-1.2983,-1.2898,-1.3104,-1.2836,-1.3104,-1.3363,-1.3147,-1.3181,-1.3306,-1.2284,-1.1829,-1.167,0.0,0.0,0.0,0.0,0.0,0.0,0.0,0.0,0.0,0.0,0.0,-0.8377,-0.8583,-0.9059,-0.9716,0.0,0.0,0.0,0.0,-1.6722,-1.8048,-1.8206,-1.8746,-1.9451,-2.0325,-1.9768,-1.985,-2.0378,-2.0046,-1.9345,-1.8642,-1.7584,-1.6754,-1.634,-1.5305,-1.4867,-1.5104,-1.4265,-1.403,-1.4179,-1.2087,-1.2009,-1.293,-1.1476,-1.1606,-1.2587,-1.237,-1.2047,0.0,0.0,-1.0474,-1.0605,-0.96,-0.9524,-0.9684,-0.9369,-0.9522,-1.0133,-1.1277,0.0,0.0,-1.2756,-1.3005,-1.3033,-1.2426,-1.2153,-1.21,-1.1871,-1.1666,-1.1786,-1.2466,-1.2619,-1.2901,-1.3611,-1.4075,-1.4391,-1.4318,-1.4397,-1.4352,-1.4001,-1.4345,-1.4454,-1.4424,-1.4119,-1.3835,-1.4018,-1.4222,-1.4449,-1.4323,-1.4521,-1.4613,-1.4601,-1.461,-1.4352,-1.4263,-1.3665,-1.3235,-1.3238,-1.2881,-1.2644,-1.2644,-1.3124,-1.3235,-1.3235,-1.2972,-1.2836,-1.2836,-1.2968,-1.3104,-1.3371,-1.3498,-1.3674,-1.366,-1.2751,-1.23,-1.2097,0.0,0.0,0.0,0.0,0.0,0.0,0.0,0.0,0.0,0.0,0.0,0.0,0.0,0.0,-0.9095,0.0,0.0,0.0,0.0,-1.6245,-1.7482,-1.8807,-1.9343,-1.9873,-2.0535,-2.0862,-2.0965,-2.0716,-2.004,-1.9584,-1.9229,-1.7426,-1.6696,-1.6658,-1.5742,-1.5412,-1.5418,-1.5076,-1.4988,-1.5046,-1.2927,-1.2318,-1.2651,-1.1419,-1.1139,-1.1421,-1.1615,0.0,0.0,0.0,-1.0182,-0.9935,-1.0282,-1.0007,0.0,-1.0266,-1.0713,-1.1105,-1.1561,0.0,-1.3177,-1.3642,-1.3653,-1.3662,-1.38,-1.3474,-1.3057,-1.2693,-1.286,-1.2821,-1.2272,-1.3121,-1.3943,-1.3779,-1.4487,-1.5075,-1.4893,-1.4747,-1.4615,-1.4624,-1.4182,-1.4014,0.0,-1.4688,-1.4885,-1.5081,-1.5017,-1.5137,-1.5419,-1.5335,-1.5445,-1.5718,-1.545,-1.5406,-1.5593,-1.4982,-1.4745,-1.4732,-1.3942,-1.3629,-1.3625,-1.3046,-1.2836,-1.2836,-1.2836,-1.2836,-1.2836,-1.3235,-1.3371,-1.3371,-1.3752,-1.4137,-1.4394,-1.3993,-1.3229,-1.2255,0.0,0.0,0.0,0.0,0.0,0.0,0.0,0.0,0.0,0.0,0.0,0.0,0.0,0.0,0.0,0.0,0.0,0.0,0.0,-1.607,-1.7665,-1.8442,-1.9247,-2.0241,-2.1346,-2.0965,-2.0979,-2.1524,-2.1085,-2.0413,-1.9535,-1.8644,-1.7994,-1.7502,-1.6861,-1.6605,-1.6842,-1.6771,-1.6886,-1.709,-1.6979,-1.7218,-1.7501,-1.5874,-1.509,-1.4518,0.0,0.0,0.0,0.0,-1.0255,-1.0321,-1.0447,-1.0311,-1.0325,-1.1039,-1.1391,-1.1811,-1.2769,0.0,-1.3784,-1.4293,-1.4478,-1.4366,-1.3917,-1.3708,-1.3412,-1.3159,-1.2836,-1.2768,-1.3282,-1.3443,-1.3698,-1.4161,-1.4518,-1.4909,-1.5362,-1.5311,-1.5242,-1.5102,-1.551,0.0,0.0,0.0,0.0,-1.5205,-1.5297,-1.548,-1.5749,-1.5963,-1.5928,-1.5638,-1.5938,-1.5895,-1.5682,-1.5487,-1.5247,-1.5385,-1.4162,-1.344,-1.3054,-1.2865,-1.2836,-1.2836,-1.3104,-1.3235,-1.3235,-1.3621,-1.3884,-1.4015,-1.4141,-1.4403,-1.467,-1.467,-1.4187,-1.3633,0.0,0.0,0.0,0.0,0.0,0.0,0.0,0.0,0.0,0.0,0.0,0.0,0.0,0.0,0.0,0.0,0.0,0.0,0.0,0.0,-1.6758,-1.7539,-1.8603,-1.954,-2.0545,-2.0208,-2.0428,-2.1115,-2.0829,-2.0416,-1.9689,-1.9055,-1.8514,-1.8013,-1.7682,-1.7788,-1.8112,-1.8478,-1.8794,-1.9101,-1.891,-1.909,-1.9199,-1.7115,-1.5867,0.0,0.0,0.0,0.0,0.0,-1.0159,-1.0497,-1.0594,-1.086,-1.1327,-1.2051,-1.2499,-1.2972,-1.4002,-1.4521,-1.4799,-1.4824,-1.4898,-1.4782,-1.4058,-1.3702,-1.3503,-1.3446,-1.3159,-1.3034,-1.3633,-1.3623,-1.369,-1.4396,-1.4612,-1.5037,-1.5722,-1.5748,-1.5808,-1.5834,-1.6188,-1.6113,0.0,0.0,0.0,-1.5732,-1.5976,-1.6298,-1.6427,-1.6649,-1.6763,-1.6482,-1.6634,-1.6456,-1.6385,-1.6176,-1.6036,-1.5963,-1.4878,-1.404,-1.3456,-1.3256,-1.3227,-1.3227,-1.3494,-1.3625,-1.3625,-1.3879,-1.4272,-1.4403,-1.4534,-1.467,-1.4931,-1.4931,-1.467,-1.4214,0.0,0.0,0.0,0.0,0.0,0.0,0.0,0.0,0.0,0.0,0.0,0.0,0.0,0.0,0.0,0.0,0.0,0.0,0.0,0.0,0.0,-1.6194,-1.7278,-1.7992,-1.83,-1.8933,-1.9387,-1.9568,-1.9407,-1.9357,-1.9499,-1.8694,-1.8271,-1.8081,-1.8268,-1.8655,-1.9223,-1.9644,-2.0279,-2.0771,-1.9025,-1.8267,-1.8018,-1.5536,0.0,0.0,0.0,0.0,0.0,0.0,0.0,0.0,-1.083,-1.1589,-1.2529,-1.3383,-1.4097,-1.4581,-1.5091,-1.581,-1.6177,-1.5252,-1.5006,-1.4911,-1.4482,-1.3952,-1.3473,-1.3573,-1.3562,-1.3474,0.0,-1.365,-1.3874,-1.4583,-1.5014,-1.5483,-1.6124,-1.6129,-1.6268,0.0,0.0,0.0,0.0,0.0,0.0,-1.6928,0.0,-1.7463,-1.7739,-1.7691,-1.7824,-1.811,-1.7558,-1.7235,-1.7434,-1.7071,-1.6848,-1.6636,-1.5963,-1.5311,-1.4824,-1.4231,-1.3875,-1.3875,-1.3875,-1.3875,-1.4006,-1.4272,-1.4403,-1.4403,-1.48,-1.4931,-1.4931,-1.4931,-1.467,-1.4349,0.0,0.0,0.0,0.0,0.0,0.0,0.0,0.0,0.0,0.0,0.0,0.0,0.0,0.0,0.0,0.0,0.0,0.0,0.0,0.0,0.0,0.0,0.0,0.0,0.0,0.0,0.0,-1.8331,-1.8598,-1.8489,-1.8005,-1.7897,-1.7601,-1.7361,-1.7274,-1.7604,-1.8267,-1.923,-1.9749,-2.0156,0.0,-2.1544,-2.0641,0.0,0.0,0.0,0.0,0.0,0.0,0.0,0.0,0.0,0.0,-1.3175,-1.3621,-1.4462,-1.4648,-1.4697,-1.5496,-1.5896,-1.5976,-1.5874,-1.5896,-1.5632,-1.4722,-1.4151,-1.3835,-1.3415,-1.2998,-1.2927,-1.3551,-1.3639,-1.4007,-1.4889,-1.5422,0.0,-1.7196,-1.7558,0.0,-1.816,0.0,-1.8458,-1.803,-1.8495,0.0,0.0,-1.8523,-1.848,-1.8795,-1.9037,-1.9033,-1.876,-1.8899,-1.8699,-1.8308,-1.7962,-1.7533,-1.7037,-1.636,-1.5711,-1.5095,-1.4762,-1.4539,-1.4272,-1.4534,-1.4534,-1.4272,-1.467,-1.48,-1.48,-1.4931,-1.4931,-1.4931,-1.4931,-1.48,-1.4763,0.0,0.0,0.0,0.0,0.0,0.0,0.0,0.0,0.0,0.0,0.0,0.0,0.0,0.0,0.0,0.0,0.0,0.0,0.0,0.0,0.0,0.0,0.0,0.0,0.0,0.0,0.0,0.0,0.0,0.0,-1.6689,-1.6834,-1.6826,-1.6775,-1.6928,-1.7299,-1.7931,-1.8768,0.0,0.0,0.0,0.0,0.0,0.0,0.0,0.0,0.0,0.0,0.0,0.0,0.0,-1.3201,-1.375,-1.4227,-1.4698,-1.5436,0.0,-1.5947,-1.6527,-1.6599,-1.6555,-1.606,-1.5905,-1.5583,-1.441,-1.4036,-1.3591,-1.3048,-1.2677,-1.2587,-1.3212,-1.3562,-1.4093,0.0,0.0,0.0,-1.78,-1.8054,-1.8327,0.0,-1.9249,0.0,-1.9036,-1.9456,-1.9727,0.0,-1.9287,-1.9163,-1.9443,-1.9548,-1.9541,-1.9267,-1.9267,-1.9149,-1.8765,-1.8589,-1.8325,-1.811,-1.7307,-1.6654,-1.617,-1.5682,-1.5192,-1.4936,-1.5066,-1.4936,-1.467,-1.48,-1.4931,-1.4931,-1.4931,-1.4931,-1.4931,-1.4931,-1.4931,-1.4772,0.0,0.0,0.0,0.0,0.0,0.0,0.0,0.0,0.0,0.0,0.0,0.0,0.0,0.0,0.0,0.0,0.0,0.0,0.0,0.0,0.0,0.0,0.0,0.0,0.0,0.0,0.0,0.0,0.0,0.0,0.0,0.0,0.0,0.0,0.0,0.0,0.0,0.0,0.0,0.0,0.0,0.0,0.0,0.0,0.0,0.0,0.0,0.0,0.0,0.0,-1.4486,-1.4076,-1.4676,-1.5213,-1.5765,-1.649,-1.7044,-1.7392,-1.7435,-1.7477,-1.7147,-1.5837,-1.5533,-1.5257,-1.401,-1.3556,-1.3156,-1.2504,0.0,-1.2245,-1.2648,-1.3226,-1.411,-1.5496,0.0,-1.6955,-1.827,-1.8319,-1.8631,-1.9668,-1.9398,-1.9342,-1.9858,-2.0138,-2.0362,-2.0222,-1.9789,-1.9681,-1.9864,-1.9825,-1.968,-1.968,-1.9407,-1.9299,-1.9352,-1.9155,-1.9169,-1.9241,-1.8272,-1.7738,-1.7373,-1.6473,-1.5849,-1.5598,-1.5598,-1.5332,-1.4936,-1.4936,-1.4931,-1.4931,-1.4931,-1.4931,-1.4931,-1.4931,-1.4931,-1.4777,0.0,0.0,0.0,0.0,0.0,0.0,0.0,0.0,0.0,0.0,-0.8693,-0.8158,0.0,0.0,0.0,0.0,0.0,0.0,0.0,0.0,0.0,0.0,0.0,0.0,0.0,0.0,0.0,0.0,0.0,0.0,0.0,0.0,0.0,0.0,0.0,0.0,0.0,0.0,0.0,0.0,0.0,0.0,0.0,0.0,0.0,0.0,0.0,0.0,0.0,0.0,-1.4934,-1.615,-1.7523,-1.7379,-1.6828,-1.7449,-1.7293,-1.6742,-1.6548,-1.6736,-1.6679,-1.6045,-1.5888,-1.5488,-1.3884,-1.3132,0.0,0.0,-1.142,-1.1391,-1.1941,-1.281,-1.3818,-1.5371,0.0,0.0,0.0,0.0,-2.025,0.0,-2.0955,-2.1142,-2.1179,-2.1463,0.0,0.0,-2.1457,-2.1226,-2.0663,-2.0521,-2.0527,-2.0527,-2.0388,-2.0364,-2.0461,-2.0092,-1.9681,-1.9237,-1.8485,-1.7866,-1.7373,-1.6739,-1.6369,-1.6244,-1.5729,-1.5468,-1.5332,-1.5066,-1.4931,-1.4931,-1.4931,-1.4931,-1.4931,-1.4931,-1.4931,-1.4926,0.0,0.0,0.0,0.0,0.0,0.0,0.0,-0.9772,-0.9831,-1.0173,-0.9776,-0.9224,-0.868,-0.8628,-0.8553,0.0,0.0,0.0,0.0,0.0,0.0,0.0,0.0,0.0,0.0,0.0,-1.1388,-1.1464,0.0,0.0,0.0,-1.1666,-1.1918,0.0,0.0,0.0,0.0,0.0,0.0,0.0,0.0,0.0,0.0,0.0,0.0,0.0,0.0,0.0,0.0,0.0,-1.4819,-1.6084,-1.6835,-1.7055,-1.7014,-1.7062,-1.6907,-1.6672,-1.6801,-1.6523,-1.6243,-1.6295,-1.5605,-1.4642,-1.3786,0.0,0.0,0.0,-1.1028,-1.1047,-1.166,-1.2714,0.0,-1.5347,0.0,0.0,0.0,0.0,0.0,0.0,-2.1088,-2.1366,0.0,-2.1565,-2.182,-2.182,-2.1713,-2.1549,-2.1321,-2.1065,-2.0943,-2.0943,-2.0527,-2.0383,-2.0665,-1.9845,-1.9374,-1.9246,-1.8451,-1.7807,-1.7179,-1.6936,-1.6623,-1.6239,-1.6114,-1.5854,-1.5468,-1.5332,-1.5202,-1.5202,-1.5202,-1.5328,-1.5453,-1.5453,-1.525,-1.5029,0.0,0.0,0.0,0.0,0.0,0.0,0.0,-1.0363,-1.071,-1.1069,-1.1014,-1.0629,-0.9702,-0.9255,-0.8927,0.0,0.0,0.0,0.0,0.0,0.0,0.0,0.0,0.0,0.0,0.0,0.0,-1.0544,-1.0351,0.0,0.0,0.0,0.0,0.0,-1.1537,-1.1735,0.0,0.0,0.0,0.0,0.0,-1.2934,0.0,0.0,0.0,0.0,0.0,0.0,0.0,0.0,-1.4165,-1.5098,-1.5248,-1.6012,-1.6866,-1.6525,-1.6593,-1.6767,-1.6929,-1.6526,-1.6125,-1.6426,-1.5269,-1.3962,-1.3523,-1.2469,0.0,0.0,-1.0712,-1.0827,-1.1322,0.0,-1.3702,0.0,-1.6126,-1.7397,0.0,0.0,0.0,0.0,0.0,0.0,-2.1366,-2.1692,0.0,-2.1859,-2.176,-2.164,-2.1756,-2.1461,-2.1333,-2.1396,-2.0452,-2.0303,-2.0719,-1.9569,-1.9043,-1.9119,-1.8381,-1.7631,-1.7001,-1.6877,-1.6618,-1.6234,-1.6369,-1.6109,-1.5729,-1.5593,-1.5593,-1.5593,-1.5593,-1.5719,-1.5964,-1.5789,-1.556,-1.5189,0.0,0.0,0.0,0.0,0.0,0.0,0.0,-1.0979,-1.1653,-1.2431,-1.2296,-1.1971,-1.1603,-1.0146,-0.9256,0.0,0.0,0.0,0.0,0.0,0.0,0.0,0.0,0.0,0.0,0.0,0.0,-1.0322,-1.0196,0.0,0.0,0.0,0.0,0.0,0.0,-1.0728,-1.0789,-1.112,0.0,0.0,0.0,0.0,0.0,0.0,0.0,0.0,0.0,0.0,0.0,0.0,0.0,-1.3482,-1.3961,-1.533,-1.6713,-1.6736,0.0,0.0,-1.6459,-1.652,-1.6497,-1.5763,-1.5039,-1.4258,-1.2965,0.0,0.0,-1.0574,-1.0321,-1.0284,-1.0692,-1.1657,-1.2814,-1.4106,0.0,-1.7236,0.0,0.0,0.0,0.0,0.0,0.0,-2.2053,-2.2565,-2.2863,-2.2487,-2.2271,-2.1943,-2.1866,-2.1905,-2.1779,-2.1771,-2.1111,-2.0837,-2.0848,-2.016,-1.9362,-1.8467,-1.8422,-1.7887,-1.7001,-1.6623,-1.6623,-1.6877,-1.6359,-1.6234,-1.6369,-1.6104,-1.5974,-1.5974,-1.5974,-1.5974,-1.5949,-1.5357,-1.5525,-1.5913,0.0,0.0,0.0,0.0,0.0,0.0,-1.066,-1.1449,-1.2173,-1.2899,-1.2796,-1.2487,-1.2014,-1.092,-1.0107,-0.9832,0.0,0.0,0.0,0.0,0.0,0.0,0.0,0.0,0.0,0.0,-1.0205,-1.001,-0.9804,0.0,0.0,0.0,0.0,0.0,0.0,-1.0017,-1.0302,0.0,0.0,0.0,0.0,0.0,0.0,0.0,0.0,0.0,0.0,0.0,0.0,0.0,0.0,0.0,-1.2744,-1.3819,0.0,0.0,-1.6281,-1.6251,-1.69,-1.6553,-1.6177,-1.6257,-1.5134,-1.3875,-1.2924,0.0,-1.0679,-1.0217,-0.9983,-1.0105,-1.074,-1.1678,-1.2621,-1.3486,-1.4888,0.0,-1.7781,0.0,0.0,0.0,0.0,0.0,0.0,0.0,-2.2398,-2.2341,-2.223,-2.2095,-2.2077,-2.1784,-2.1634,-2.1619,-2.0555,-2.0284,-2.0831,-1.9741,-1.9036,-1.8821,-1.8392,-1.7618,-1.6753,-1.6753,-1.6877,-1.7001,-1.6742,-1.6618,-1.6753,-1.6234,-1.5974,-1.5974,-1.5719,-1.5893,-1.6028,-1.5951,-1.5773,-1.5403,0.0,0.0,0.0,0.0,0.0,-0.9508,-1.0556,-1.1516,-1.2336,-1.2878,-1.2781,-1.2505,-1.2142,-1.12,-1.042,-1.006,-0.9689,0.0,0.0,0.0,0.0,0.0,0.0,0.0,0.0,0.0,-0.977,-0.9625,-0.9448,-0.9417,0.0,0.0,-0.9651,-0.9887,0.0,0.0,0.0,0.0,0.0,0.0,0.0,0.0,0.0,0.0,0.0,0.0,0.0,0.0,0.0,0.0,0.0,0.0,0.0,0.0,0.0,0.0,-1.5682,-1.6,-1.6936,-1.6531,-1.605,-1.646,-1.5178,-1.3534,0.0,0.0,-1.051,-1.0115,-0.9916,-1.0075,-1.0841,-1.1631,-1.237,-1.2919,-1.4138,-1.5438,-1.6781,-1.7539,0.0,0.0,0.0,-2.1145,0.0,-2.1904,-2.2146,-2.2083,-2.1902,-2.1763,-2.1853,-2.1496,-2.1372,-2.1588,-2.0402,-2.0129,-2.0806,-1.9437,-1.8794,-1.8841,-1.8389,-1.7781,-1.7012,-1.7136,-1.726,-1.726,-1.726,-1.7136,-1.7001,-1.6488,-1.6229,-1.5974,-1.5979,-1.5966,-1.616,-1.6465,-1.5965,-1.5221,0.0,0.0,0.0,0.0,0.0,0.0,-0.9766,-1.0992,-1.2028,-1.2367,-1.2177,-1.2013,-1.2099,-1.0722,-0.9879,-1.0072,-0.9918,0.0,0.0,0.0,0.0,0.0,0.0,0.0,0.0,0.0,-0.9261,-0.9217,-0.9056,-0.9016,-0.9016,-0.9695,-0.9713,-0.9245,0.0,0.0,0.0,0.0,0.0,0.0,0.0,0.0,0.0,0.0,0.0,0.0,0.0,0.0,0.0,0.0,0.0,0.0,0.0,0.0,0.0,0.0,-1.5335,-1.6209,-1.6504,-1.6386,-1.6186,-1.6469,-1.495,-1.3361,0.0,0.0,-1.0718,-1.0368,-1.0136,-1.0205,-1.0769,-1.142,-1.1963,-1.2314,-1.3534,0.0,-1.6023,-1.6915,0.0,0.0,0.0,-2.0984,-2.1642,-2.1903,-2.2146,-2.2083,-2.1451,0.0,-2.1096,-2.1116,-2.1377,-2.2059,-2.1142,-2.0496,-2.052,-1.9597,-1.895,-1.8577,-1.8571,-1.8437,-1.8033,-1.8033,-1.8033,-1.8033,-1.8033,-1.7647,-1.7001,-1.7001,-1.6618,-1.6104,-1.6748,-1.6599,-1.6139,-1.6535,-1.6281,-1.5513,0.0,0.0,0.0,0.0,0.0,0.0,0.0,-1.0319,-1.1176,-1.1464,-1.1755,-1.1627,-1.0815,-1.0339,-0.9839,-0.9249,-0.9069,0.0,0.0,0.0,0.0,0.0,0.0,0.0,0.0,0.0,-0.9187,-0.9182,-0.9055,-0.9101,-0.9338,-0.9453,-0.9515,-0.9465,-0.9681,0.0,0.0,0.0,0.0,0.0,0.0,0.0,0.0,0.0,0.0,0.0,0.0,0.0,0.0,0.0,0.0,0.0,0.0,0.0,0.0,0.0,0.0,0.0,-1.5583,-1.5433,-1.5106,-1.4886,-1.4076,-1.3029,-1.1999,0.0,-1.0622,-1.0188,-1.0135,-1.0316,-1.0667,-1.1304,-1.1898,-1.219,-1.3461,-1.476,0.0,0.0,0.0,0.0,-2.0781,-2.178,0.0,0.0,-2.2146,-2.2083,-2.1519,-2.1135,-2.1102,-2.1109,-2.1156,-2.137,-2.0909,-2.0683,-2.0942,-2.0423,-1.9998,-1.9563,-1.937,-1.8944,-1.8437,-1.7916,-1.7916,-1.8437,-1.7916,-1.7787,-1.8039,-1.7096,-1.6733,-1.6602,-1.6439,-1.6461,-1.6551,-1.684,-1.6334,-1.5448,0.0,0.0,0.0,0.0,0.0,0.0,0.0,-0.9577,-1.0185,-1.0337,-1.0584,-1.0494,-0.9736,-0.9485,-0.9153,-0.8578,-0.8276,0.0,0.0,0.0,0.0,0.0,0.0,0.0,0.0,-0.9028,-0.8935,-0.9142,-0.902,-0.9117,-0.939,-0.9461,-0.9567,-0.975,-0.9699,-0.9627,0.0,0.0,0.0,0.0,0.0,0.0,-0.8645,0.0,0.0,0.0,0.0,0.0,0.0,0.0,0.0,0.0,0.0,0.0,0.0,0.0,-1.2414,-1.3464,0.0,-1.4522,-1.4321,-1.4143,-1.3404,0.0,0.0,0.0,-1.0415,-1.0018,-1.0062,-1.0253,-1.0694,-1.1242,-1.1785,-1.2022,-1.3276,-1.4545,0.0,0.0,0.0,-1.9822,0.0,0.0,0.0,-2.2274,-2.209,-2.1901,-2.1458,-2.1118,-2.1096,-2.0883,-2.0823,-2.0823,-2.032,-2.0281,-2.096,-2.0148,-1.9846,-2.0054,-1.9453,-1.9024,-1.8806,-1.7999,-1.805,-1.8571,-1.805,-1.805,0.0,-1.7268,-1.6797,-1.6726,-1.661,-1.6525,-1.6557,-1.7049,-1.6281,-1.5112,0.0,0.0,0.0,0.0,0.0,0.0,0.0,-0.8776,-0.9111,-0.9052,-0.8974,-0.8907,-0.8867,-0.8347,-0.8018,-0.804,0.0,0.0,0.0,0.0,0.0,0.0,0.0,0.0,0.0,-0.8844,-0.8697,-0.9096,-0.8981,-0.9075,-0.933,-0.9689,-0.9929,-1.0069,-0.9967,-0.9923,-0.9921,-0.9619,-0.9336,-0.9092,-0.901,-0.8834,0.0,0.0,0.0,0.0,0.0,0.0,0.0,0.0,0.0,0.0,0.0,0.0,0.0,0.0,0.0,0.0,0.0,-1.3453,0.0,0.0,0.0,0.0,0.0,0.0,0.0,-0.9945,-0.9922,-1.014,-1.0787,-1.1283,-1.1654,-1.1933,-1.3053,-1.4359,0.0,-1.6707,0.0,0.0,-2.1496,0.0,-2.2116,-2.2037,-2.1935,-2.1688,-2.1348,-2.1209,-2.1042,-2.0552,-2.0165,-2.0185,-1.9518,-1.9619,-2.0511,-1.901,-1.8882,-2.012,-1.9024,-1.8764,-1.9019,-1.8256,-1.8122,-1.8518,-1.8518,-1.8256,-1.7965,-1.7351,-1.6897,-1.6581,-1.6992,-1.6783,-1.6191,-1.7038,-1.6188,-1.4454,0.0,0.0,0.0,0.0,0.0,0.0,0.0,0.0,0.0,0.0,-0.8836,-0.8941,-0.8429,-0.8241,-0.7969,0.0,0.0,0.0,0.0,0.0,0.0,0.0,0.0,0.0,0.0,-0.8955,-0.9207,-0.9821,-0.9604,-0.9839,-1.0499,-1.0656,-1.065,-1.051,-1.037,-0.996,-0.938,-0.9248,-0.912,-0.901,-0.885,-0.8784,0.0,0.0,0.0,0.0,-0.9446,-0.9721,0.0,0.0,0.0,0.0,0.0,0.0,0.0,0.0,-1.0637,-1.0839,-1.1001,0.0,-1.2289,-1.2061,-1.1817,-1.1503,0.0,0.0,0.0,0.0,0.0,0.0,0.0,-1.1543,-1.2039,-1.2476,-1.3886,-1.525,-1.6012,0.0,0.0,-2.0582,-2.1181,-2.1558,-2.2007,-2.1913,-2.1729,-2.1626,-2.135,-2.1112,-2.1121,-2.0494,-2.0318,-2.0544,-1.9267,-1.9076,-1.9986,-1.9402,-1.937,-1.9887,-1.9079,-1.868,-1.8483,-1.7818,-1.7479,-1.7604,-1.7349,-1.7349,-1.7468,-1.7287,-1.7035,-1.6737,-1.7053,-1.6759,-1.6007,-1.6397,-1.5438,-1.4089,0.0,0.0,0.0,0.0,0.0,0.0,0.0,0.0,0.0,0.0,0.0,0.0,0.0,0.0,0.0,0.0,0.0,0.0,0.0,0.0,0.0,0.0,0.0,0.0,-0.9131,-0.9123,-0.9544,-1.0355,-1.0262,-1.055,-1.1065,-1.1358,-1.1352,-1.11,-1.0594,-0.9959,-0.9329,-0.9062,-0.8878,-0.8762,-0.8673,0.0,0.0,0.0,0.0,0.0,-0.9761,-1.0069,0.0,-1.1173,-1.1463,-1.14,0.0,0.0,0.0,0.0,-1.04,-1.039,-1.0373,-1.1031,-1.158,-1.1268,-1.1345,-1.1327,0.0,0.0,0.0,0.0,0.0,0.0,0.0,0.0,0.0,-1.3045,-1.4513,0.0,0.0,0.0,-2.0048,-2.0536,-2.0998,-2.1384,0.0,-2.1459,-2.1365,-2.1082,-2.0865,-2.0757,-2.0693,-2.0059,-1.9673,-1.9458,-1.8319,-1.8414,-1.9993,-1.9051,-1.8987,-1.9806,-1.8642,-1.8093,-1.8082,-1.724,-1.6932,-1.705,-1.692,-1.6926,-1.7044,-1.6803,-1.6593,-1.6519,-1.6402,-1.5996,-1.5678,-1.5553,-1.4857,-1.3765,0.0,0.0,0.0,0.0,0.0,0.0,0.0,0.0,0.0,0.0,0.0,0.0,0.0,0.0,0.0,0.0,0.0,0.0,0.0,0.0,0.0,0.0,0.0,-0.8561,-0.9411,-0.9455,-0.991,-1.0749,-1.1027,-1.127,-1.1606,-1.2059,-1.2044,-1.1601,-1.0677,-1.0008,-0.9459,-0.8984,-0.8673,-0.8527,-0.8572,0.0,0.0,0.0,0.0,0.0,0.0,0.0,0.0,-1.1429,-1.1726,-1.1682,-1.1496,0.0,0.0,0.0,0.0,0.0,-1.0555,-1.1172,-1.1597,-1.1304,-1.1428,-1.1446,-1.1,0.0,0.0,0.0,0.0,0.0,0.0,0.0,0.0,0.0,0.0,0.0,-1.8253,-1.9512,-2.0288,-2.0222,-2.0878,0.0,-2.0716,-2.0967,-2.0852,-2.0296,-2.0316,-2.0328,-2.0275,-1.9635,-1.8886,-1.8181,-1.743,-1.7842,-1.9721,-1.8363,-1.827,-1.9312,-1.7913,-1.7312,-1.7457,-1.6719,-1.6322,-1.6563,-1.6601,-1.6601,-1.6563,-1.6091,-1.5897,-1.5828,-1.5448,-1.512,-1.487,-1.4581,-1.4056,-1.3354,0.0,0.0,0.0,0.0,0.0,0.0,0.0,0.0,0.0,0.0,0.0,0.0,0.0,0.0,0.0,0.0,0.0,0.0,0.0,0.0,0.0,0.0,-0.7889,-0.8549,-0.9463,-1.0046,-1.0664,-1.1353,-1.195,-1.2435,-1.2838,-1.3042,-1.2644,-1.1744,-1.0666,-0.9955,-0.9459,-0.8893,-0.8617,-0.8572,-0.8527,0.0,0.0,0.0,0.0,0.0,0.0,0.0,0.0,-1.1183,-1.1567,-1.1756,-1.1682,0.0,0.0,0.0,0.0,0.0,-1.0851,-1.209,-1.3063,-1.2166,-1.2398,-1.2618,-1.1799,0.0,0.0,0.0,0.0,0.0,0.0,-1.3569,-1.4317,0.0,0.0,-1.7768,0.0,0.0,-1.9534,-1.959,0.0,-2.05,-2.0385,-2.0608,-2.063,-2.034,-2.0564,-2.0589,-2.0322,-1.9455,-1.892,-1.8765,-1.7724,-1.731,-1.7616,-1.6984,-1.6838,-1.7207,-1.7132,-1.6764,-1.6374,-1.6176,-1.5829,-1.535,-1.5555,-1.5408,-1.5037,-1.5431,-1.5206,-1.4639,-1.4823,-1.435,-1.3443,-1.3789,-1.2849,-1.1549,0.0,0.0,0.0,0.0,0.0,0.0,0.0,0.0,0.0,0.0,0.0,0.0,0.0,0.0,0.0,0.0,0.0,0.0,0.0,0.0,0.0,-0.8156,-0.8525,-0.9103,-0.9844,-1.0601,-1.1494,-1.2533,-1.2949,-1.3377,-1.3766,-1.3362,-1.2898,-1.2294,-1.0788,-1.0014,-0.9709,-0.8898,-0.8516,-0.8432,0.0,0.0,0.0,0.0,0.0,0.0,0.0,0.0,0.0,0.0,-1.1411,-1.1496,-1.163,0.0,0.0,0.0,0.0,0.0,-1.1427,-1.2498,-1.3561,-1.384,-1.4155,-1.4181,-1.331,0.0,0.0,0.0,0.0,0.0,0.0,0.0,-1.5648,-1.6928,0.0,-1.8178,-1.8387,-1.8756,-1.9025,0.0,0.0,-1.9576,-1.9576,-1.9904,-2.0018,-1.9576,-1.9797,-1.9853,-1.9305,-1.8568,-1.7887,-1.7297,-1.6511,-1.5997,-1.5615,-1.556,-1.5931,-1.6742,-1.6423,-1.6076,-1.5844,-1.5601,-1.524,-1.4888,-1.4876,-1.4811,-1.4595,-1.4779,-1.4685,-1.4317,-1.414,-1.3739,-1.3389,-1.3432,-1.293,-1.2235,0.0,0.0,0.0,0.0,0.0,0.0,0.0,0.0,0.0,0.0,0.0,0.0,0.0,0.0,0.0,0.0,0.0,0.0,0.0,0.0,-0.8298,-0.8973,-0.9539,-1.0071,-1.0543,-1.13,-1.2246,-1.3467,-1.3892,-1.423,-1.4526,-1.3627,-1.3052,-1.2751,-1.1017,-1.0179,-0.9961,-0.9044,-0.8528,-0.8347,0.0,0.0,0.0,0.0,0.0,0.0,0.0,0.0,0.0,0.0,0.0,0.0,0.0,0.0,0.0,-1.1174,-1.1088,-1.1162,-1.2006,-1.2981,-1.4063,-1.5266,0.0,-1.5422,-1.4867,0.0,0.0,0.0,0.0,0.0,0.0,-1.5536,0.0,-1.8275,-1.8401,-1.8306,-1.8399,-1.8658,-1.8665,-1.8246,-1.8472,-1.8705,-1.8592,-1.9036,-1.9142,-1.8592,-1.893,-1.8811,-1.8359,-1.7802,-1.7116,-1.6089,-1.5595,-1.5038,-1.4407,-1.4671,-1.5221,-1.6195,-1.5691,-1.5477,-1.5477,-1.5121,-1.4883,-1.4655,-1.4585,-1.4429,-1.4285,-1.4106,-1.4118,-1.3978,-1.3504,-1.3309,-1.3242,-1.2915,-1.284,-1.296,0.0,0.0,0.0,0.0,0.0,0.0,0.0,0.0,0.0,0.0,0.0,0.0,0.0,0.0,0.0,0.0,0.0,0.0,0.0,0.0,-0.8902,-0.9508,-1.0772,-1.1491,-1.16,-1.2211,-1.2857,-1.3573,-1.4705,-1.5154,-1.4914,-1.3862,-1.3183,-1.2762,-1.1365,-1.053,-1.0059,-0.9409,-0.8875,-0.8471,-0.8347,0.0,0.0,0.0,0.0,0.0,0.0,0.0,0.0,0.0,0.0,0.0,0.0,0.0,-1.1384,-1.1384,-1.126,-1.1386,-1.2309,-1.3726,-1.5121,-1.5776,-1.5882,0.0,-1.6342,-1.5965,0.0,-1.5208,0.0,0.0,0.0,-1.5951,-1.6924,-1.7929,-1.8252,-1.851,-1.8492,0.0,-1.8359,-1.777,-1.7955,-1.8066,-1.7738,-1.8066,-1.8066,-1.7738,-1.7955,-1.8066,-1.7732,-1.7372,-1.7006,-1.6745,-1.5869,-1.5195,-1.4934,-1.4669,-1.4591,-1.4587,-1.4907,-1.5116,-1.5116,-1.4769,-1.465,-1.4545,-1.4499,-1.4237,-1.374,-1.3862,-1.355,-1.3058,-1.2854,-1.2682,-1.2504,-1.1704,-1.1752,-1.2113,0.0,0.0,0.0,0.0,0.0,0.0,0.0,0.0,0.0,0.0,0.0,0.0,0.0,0.0,0.0,0.0,0.0,0.0,0.0,0.0,-0.9265,-0.9833,-1.0483,-1.1329,-1.2312,-1.3119,-1.3924,-1.471,-1.5479,-1.5553,-1.4895,-1.3864,-1.3065,-1.24,-1.1304,-1.0692,-1.0463,-0.9572,-0.9049,-0.8759,-0.8338,-0.8262,0.0,0.0,0.0,0.0,0.0,0.0,0.0,0.0,-1.0562,-1.0983,-1.1092,-1.1344,-1.1571,-1.1496,-1.1616,-1.1998,-1.2926,-1.4676,-1.6377,-1.6746,-1.7612,0.0,0.0,-1.7096,-1.6754,-1.6026,-1.5999,0.0,0.0,0.0,-1.7293,-1.7718,-1.7866,-1.7843,-1.7728,-1.7741,-1.7591,-1.7378,-1.7325,-1.7211,-1.7321,-1.765,-1.7547,-1.7114,-1.7766,-1.776,-1.7114,-1.6727,-1.6362,-1.6042,-1.5281,-1.4808,-1.4515,-1.4307,-1.4246,-1.4228,-1.4456,-1.4626,-1.4769,-1.453,-1.4291,-1.4296,-1.4135,-1.3961,-1.3892,-1.3789,-1.3586,-1.3264,-1.272,-1.2407,-1.2214,-1.178,-1.2118,-1.2719,0.0,0.0,0.0,0.0,0.0,0.0,0.0,0.0,0.0,0.0,0.0,0.0,0.0,0.0,0.0,0.0,0.0,0.0,0.0,-0.8797,-0.9427,-1.0131,-1.0455,-1.1184,-1.2412,-1.3491,-1.4392,-1.5129,-1.5561,-1.5408,-1.4709,-1.3792,-1.2955,-1.2217,-1.1454,-1.0944,-1.0677,-0.9939,-0.9329,-0.8859,-0.8418,-0.8184,0.0,0.0,0.0,0.0,0.0,0.0,0.0,0.0,-1.0451,-1.0833,-1.092,-1.1292,-1.1715,-1.1784,-1.2178,-1.2793,-1.3826,-1.5448,-1.7026,0.0,0.0,0.0,-1.8691,-1.8339,-1.8018,-1.7305,-1.6926,0.0,0.0,0.0,0.0,0.0,-1.7469,-1.735,-1.7344,-1.7344,-1.7306,-1.7224,-1.7117,-1.7053,-1.7156,-1.7271,-1.7169,-1.6848,-1.7086,-1.7035,-1.6392,-1.6101,-1.5678,-1.5351,-1.4815,-1.4498,-1.4299,-1.4238,-1.413,-1.4093,-1.4179,-1.4371,-1.4543,-1.4188,-1.4108,-1.4172,-1.3933,-1.3894,-1.3896,-1.375,-1.3412,-1.3035,-1.2293,-1.1997,-1.1877,-1.1756,-1.1877,-1.2118,0.0,0.0,0.0,0.0,0.0,0.0,0.0,0.0,0.0,0.0,0.0,0.0,0.0,0.0,0.0,0.0,0.0,0.0,-0.9095,-0.8982,-0.9363,-1.0441,-1.081,-1.1278,-1.1861,-1.3141,-1.4041,-1.4513,-1.4909,-1.4805,-1.4258,-1.3628,-1.2988,-1.2396,-1.1903,-1.1308,-1.0616,-1.0556,-0.9833,-0.8715,-0.8548,-0.8248,-0.7937,0.0,0.0,0.0,0.0,0.0,0.0,0.0,-1.0209,-1.0774,-1.0489,-1.1023,-1.1782,-1.2246,-1.2899,-1.3691,-1.4949,-1.6029,-1.7042,0.0,0.0,0.0,-2.0311,-1.9887,-1.9241,-1.9012,0.0,-1.7246,-1.7563,-1.6714,0.0,-1.7377,-1.7193,-1.6951,-1.7488,-1.7597,-1.7492,-1.7212,-1.7427,-1.7482,-1.7265,-1.6951,-1.6848,-1.6733,-1.5953,-1.5487,-1.5482,-1.5148,-1.5041,-1.5041,-1.4713,-1.4606,-1.4606,-1.4293,-1.4195,-1.4087,-1.4087,-1.4215,-1.4306,-1.3951,-1.3957,-1.4172,-1.4172,-1.4052,-1.3688,-1.3688,-1.3084,-1.2118,-1.1893,-1.1526,-1.1273,-1.1273,-1.091,-1.0304,0.0,0.0,0.0,0.0,0.0,0.0,0.0,0.0,0.0,0.0,0.0,0.0,0.0,0.0,0.0,0.0,0.0,0.0,-0.8561,-0.8765,-0.9277,-1.0122,-1.0157,-1.0666,-1.173,-1.2542,-1.3528,-1.4623,-1.4623,-1.4176,-1.3314,-1.3116,-1.2762,-1.2261,-1.2469,-1.2214,-1.1621,-1.1164,-1.0484,-0.9634,-0.9171,-0.8738,-0.843,0.0,0.0,0.0,0.0,0.0,0.0,0.0,0.0,0.0,-1.1085,-1.1514,-1.2045,-1.244,-1.3159,-1.4161,-1.559,-1.7368,0.0,-2.0018,0.0,0.0,0.0,-2.1401,0.0,0.0,-1.8686,-1.7959,-1.7879,-1.7123,0.0,-1.7468,-1.7108,-1.697,-1.7503,-1.7815,-1.7781,-1.749,-1.7874,-1.8009,-1.7577,-1.759,-1.7265,-1.6186,-1.6338,-1.5994,-1.516,-1.525,-1.5244,-1.5041,-1.4713,-1.4504,-1.4293,-1.4191,-1.4229,-1.4184,-1.4125,-1.4102,-1.3951,-1.3611,-1.349,-1.3444,-1.3204,-1.3084,-1.2964,-1.2479,-1.2238,-1.1877,-1.1035,-1.0793,-1.091,-1.0425,-1.0353,-1.0375,0.0,0.0,0.0,0.0,0.0,0.0,0.0,0.0,0.0,0.0,0.0,0.0,0.0,0.0,0.0,0.0,0.0,0.0,0.0,0.0,-0.9102,-0.9853,-0.9808,-1.0386,-1.168,-1.2169,-1.2786,-1.3605,-1.3781,-1.3412,-1.2606,-1.2802,-1.2639,-1.2221,-1.2672,-1.2587,-1.2081,-1.1662,-1.0935,-1.0077,-0.9707,-0.9298,-0.8906,0.0,0.0,0.0,0.0,0.0,0.0,0.0,0.0,0.0,-1.1524,-1.1885,-1.2442,-1.3621,-1.4316,-1.5187,-1.7393,-1.916,0.0,-2.161,-2.2589,-2.3393,-2.366,0.0,0.0,0.0,0.0,-1.8692,-1.8709,-1.7846,0.0,-1.7515,-1.7259,-1.7153,-1.7582,-1.7891,-1.8101,-1.8115,-1.8541,-1.8631,-1.8176,-1.8196,-1.7805,-1.7049,-1.6956,-1.6448,-1.5424,-1.54,-1.5354,-1.4826,-1.4713,-1.4498,-1.4401,-1.4401,-1.4299,-1.4196,-1.4113,-1.4034,-1.37,-1.3534,-1.3447,-1.3214,-1.2808,-1.2719,-1.2719,-1.2118,-1.1877,-1.1514,-1.091,-1.0789,-1.066,-0.9875,-0.9792,-0.994,0.0,0.0,0.0,0.0,0.0,0.0,0.0,0.0,0.0,0.0,0.0,0.0,0.0,0.0,0.0,0.0,0.0,0.0,0.0,0.0,-0.8837,-0.9614,-0.974,-1.0326,-1.1565,-1.1844,-1.1894,-1.1765,-1.2544,-1.2658,-1.2182,-1.262,-1.2683,-1.2323,-1.2802,-1.2696,-1.2167,-1.2037,-1.1299,-1.0195,-1.0195,-0.9862,-0.9348,-0.9308,0.0,0.0,0.0,0.0,0.0,0.0,0.0,0.0,-1.187,-1.2243,-1.29,-1.5205,-1.5863,-1.6532,-1.9653,0.0,0.0,0.0,-2.3682,0.0,-2.4472,-2.2999,-2.1596,-2.1455,0.0,-1.9276,-1.9678,-1.8774,-1.7963,-1.785,-1.7772,-1.766,-1.7793,-1.8213,-1.8639,-1.8869,-1.9225,-1.9306,-1.8954,-1.8644,-1.8419,-1.8353,-1.7572,-1.6648,-1.584,-1.5493,-1.5166,-1.4611,-1.4606,-1.4606,-1.4606,-1.4606,-1.4396,-1.4196,-1.4213,-1.4004,-1.3649,-1.3734,-1.3484,-1.3189,-1.2769,-1.2599,-1.2479,-1.2238,-1.1756,-1.1148,-1.1133,-1.1008,-1.0507,-0.9513,-0.9103,-0.8844,0.0,0.0,0.0,0.0,0.0,0.0,0.0,0.0,0.0,0.0,0.0,0.0,0.0,0.0,0.0,0.0,0.0,0.0,0.0,0.0,-0.8601,-0.9192,-0.9934,-1.0464,-1.0761,-1.0869,-1.0869,-1.0808,-1.1676,-1.1999,-1.1804,-1.2351,-1.2754,-1.3108,-1.3658,-1.3454,-1.2665,-1.2623,-1.1983,-1.0957,-1.0957,-1.0531,-0.9863,-0.996,-0.9679,0.0,0.0,0.0,0.0,0.0,0.0,0.0,-1.2651,-1.2958,-1.3283,-1.4608,-1.5501,-1.6669,-1.9152,-2.0483,0.0,0.0,-2.5706,-2.6211,-2.5432,-2.3604,-2.1922,-2.1795,-2.037,-1.9302,-1.979,-1.913,-1.868,-1.9206,-1.864,-1.8363,-1.8819,-1.916,-1.9264,-1.8974,-1.9539,-1.9694,-1.8954,-1.8644,-1.8014,-1.7199,-1.6288,-1.5499,-1.4603,-1.4483,-1.4461,-1.4299,-1.4299,-1.4299,-1.4299,-1.4299,-1.4299,-1.4196,-1.4155,-1.393,-1.3644,-1.3354,-1.2844,-1.208,-1.1997,-1.1643,-1.1273,-1.1394,-1.1152,-1.0532,-1.0165,-0.9877,-0.9741,-0.9003,-0.8134,-0.7413,0.0,0.0,0.0,0.0,0.0,0.0,0.0,0.0,0.0,0.0,0.0,0.0,0.0,0.0,0.0,0.0,0.0,0.0,0.0,0.0,0.0,-0.9115,-0.9819,-1.0238,-1.0261,-1.0363,-1.0471,-1.0605,-1.0978,-1.1341,0.0,0.0,-1.2633,-1.3228,-1.3643,-1.3443,-1.2848,-1.2702,-1.2138,-1.133,-1.1166,-1.0834,-1.0443,-1.017,-0.9836,-0.9526,-0.95,0.0,0.0,0.0,0.0,0.0,0.0,0.0,-1.3874,-1.5259,-1.5951,-1.6865,0.0,0.0,0.0,0.0,0.0,0.0,-2.6289,-2.3794,-2.1816,-2.2168,-2.0562,-1.9239,-1.9651,-1.9353,-1.9059,-1.9081,-1.8891,-1.8789,-1.8909,-1.9168,-1.9175,-1.8974,-1.916,-1.9172,-1.8963,-1.8447,-1.8063,-1.7547,-1.6802,-1.5928,-1.5029,-1.5012,-1.4847,-1.4622,-1.473,-1.4838,-1.4838,-1.4617,-1.4509,-1.4401,-1.3978,-1.3359,-1.2447,-1.2422,-1.2329,-1.201,-1.1643,-1.1402,-1.1281,-1.1156,-1.091,-1.0649,-0.9772,-0.9397,-0.9307,-0.7923,-0.7158,-0.6674,0.0,0.0,0.0,0.0,0.0,0.0,0.0,0.0,0.0,0.0,0.0,0.0,0.0,0.0,0.0,0.0,0.0,0.0,0.0,0.0,0.0,-0.9228,-0.9637,-0.9864,-0.9917,-1.0024,-1.0267,-1.0603,-1.0441,0.0,0.0,0.0,0.0,-1.3278,-1.3373,-1.326,-1.2951,-1.2589,-1.2102,-1.1553,-1.1313,-1.1193,-1.1092,-1.0494,-1.0214,-1.0061,-0.9812,-0.9831,-1.0168,-1.1484,0.0,0.0,0.0,0.0,-1.4265,-1.5757,-1.6108,-1.6769,0.0,0.0,0.0,0.0,0.0,0.0,-2.699,-2.4132,-2.1743,-2.2532,-2.067,-1.9085,-1.9392,-1.9489,-1.9305,-1.8549,-1.8903,-1.9014,-1.8608,-1.8826,-1.8974,-1.8876,-1.8646,-1.8527,-1.8786,-1.8158,-1.782,-1.8064,-1.7215,-1.6348,-1.5701,-1.558,-1.5373,-1.4832,-1.5154,-1.5267,-1.5267,-1.5041,-1.4719,-1.439,-1.3753,-1.2721,-1.1523,-1.1632,-1.1811,-1.1952,-1.1503,-1.1402,-1.1405,-1.1125,-1.0884,-1.0891,-0.9506,-0.9045,-0.8766,-0.6742,-0.6091,-0.6087,0.0,0.0,0.0,0.0,0.0,0.0,0.0,0.0,0.0,0.0,0.0,0.0,0.0,0.0,0.0,0.0,0.0,0.0,-0.846,0.0,0.0,-0.9439,-0.9517,-0.955,-0.958,-0.963,-0.9864,-1.0277,0.0,0.0,0.0,0.0,0.0,-1.3856,0.0,-1.3444,-1.3223,-1.2709,-1.2244,-1.187,-1.1997,-1.1955,-1.179,-1.181,-1.1271,-1.0525,-1.0544,-1.0578,-1.082,-1.1757,-1.2705,0.0,0.0,0.0,-1.3919,-1.3987,-1.4572,-1.5617,0.0,0.0,0.0,0.0,0.0,0.0,0.0,0.0,-2.2988,0.0,-2.0373,-1.8548,-1.9233,-1.9518,-1.9534,-1.9109,-1.9072,-1.9079,-1.91,-1.9192,-1.9175,-1.8981,-1.8869,-1.8772,-1.8478,-1.7311,-1.658,-1.6618,-1.5354,-1.4597,-1.4456,-1.4456,-1.444,-1.4299,-1.4299,-1.4412,-1.4412,-1.4299,-1.4186,-1.3862,-1.288,-1.2432,-1.2459,-1.157,-1.1039,-1.0833,-1.1463,-1.1042,-1.0176,-1.1002,-1.0666,-0.9549,-0.8803,-0.8307,-0.779,-0.6404,-0.5462,-0.4918,0.0,0.0,0.0,0.0,0.0,0.0,0.0,0.0,0.0,0.0,0.0,0.0,0.0,0.0,0.0,-0.8358,-0.846,-0.86,-0.8762,-0.89,-0.9029,-0.9215,-0.9186,-0.9186,-0.9283,-0.93,-0.9538,-1.0038,0.0,0.0,0.0,-1.2687,-1.3292,0.0,0.0,0.0,0.0,-1.2496,-1.211,-1.2029,-1.1943,-1.2444,-1.3185,-1.265,-1.2424,-1.2406,-1.2019,-1.1757,-1.1723,-1.268,-1.3514,-1.417,-1.4283,0.0,0.0,0.0,-1.4084,0.0,-1.8309,0.0,0.0,0.0,0.0,0.0,-2.6986,0.0,-2.3601,-2.3365,-2.1338,-1.9483,-1.9236,-1.9338,-1.9357,-1.9039,-1.8908,-1.8905,-1.9313,-1.911,-1.8964,-1.8952,-1.8555,-1.8338,-1.822,-1.7054,-1.6311,-1.6311,-1.5143,-1.4396,-1.4396,-1.4396,-1.4396,-1.4396,-1.4617,-1.4509,-1.418,-1.4396,-1.4028,-1.3162,-1.2706,-1.2073,-1.1185,-1.1213,-1.1146,-1.0795,-1.1228,-1.0831,-1.0051,-1.0375,-1.0042,-0.9195,-0.7676,-0.6963,-0.6547,-0.518,-0.4561,-0.4456,0.0,0.0,0.0,0.0,0.0,0.0,0.0,0.0,0.0,0.0,0.0,0.0,0.0,0.0,0.0,0.0,-0.8628,-0.8795,-0.9038,-0.9038,-0.9038,-0.9038,-0.8999,-0.9026,-0.9108,-0.9135,-0.9417,0.0,0.0,0.0,-1.2368,-1.2943,-1.3649,0.0,-1.379,0.0,0.0,0.0,0.0,-1.2282,-1.254,-1.3471,-1.467,-1.435,-1.4467,-1.4708,-1.4106,-1.365,-1.344,-1.396,-1.4602,-1.5184,-1.4965,-1.4766,0.0,0.0,0.0,0.0,0.0,0.0,0.0,0.0,0.0,0.0,0.0,0.0,-2.4465,0.0,-2.2476,-2.0943,-1.9735,-1.9397,-1.9084,-1.8588,-1.8434,-1.8573,-1.8873,-1.878,-1.8644,-1.8707,-1.845,-1.8094,-1.7907,-1.6909,-1.6211,-1.6004,-1.5035,-1.4504,-1.4504,-1.4504,-1.4504,-1.4504,-1.4504,-1.4498,-1.4175,-1.4175,-1.3712,-1.2885,-1.2441,-1.1663,-1.0447,-1.0989,-1.1012,-1.0665,-1.0985,-1.0737,-0.9992,-0.972,-0.941,-0.8833,-0.7105,-0.6172,-0.5638,-0.4148,-0.3753,-0.3991,0.0,0.0,0.0,0.0,0.0,0.0,0.0,0.0,0.0,0.0,0.0,0.0,0.0,-0.8544,-0.8617,-0.8701,-0.8811,-0.896,-0.919,-0.919,-0.919,-0.919,-0.919,0.0,-0.919,-0.9259,0.0,0.0,0.0,0.0,-1.2242,-1.3145,-1.391,-1.4502,-1.4393,-1.4117,-1.3744,0.0,0.0,0.0,0.0,-1.5417,0.0,0.0,-1.7894,0.0,0.0,-1.6691,-1.6436,-1.5581,-1.6126,-1.6936,-1.5728,-1.4872,-1.4108,0.0,0.0,0.0,0.0,0.0,0.0,0.0,0.0,0.0,0.0,0.0,-2.5919,-2.4511,-2.3668,-2.2561,-2.0757,-1.992,-1.9096,-1.7628,-1.7611,-1.7734,-1.7584,-1.801,-1.839,-1.8294,-1.8599,-1.8532,-1.7586,-1.6768,-1.5986,-1.5148,-1.4509,-1.4191,-1.4191,-1.4191,-1.4191,-1.4191,-1.3645,-1.3645,-1.4191,-1.3423,-1.3103,-1.3222,-1.1796,-1.1253,-1.1481,-1.0907,-1.0198,-0.9756,-1.0996,-1.0554,-0.9238,-0.9566,-0.9084,-0.7847,-0.7146,-0.6235,-0.526,-0.3744,-0.3253,-0.3523,0.0,0.0,0.0,0.0,0.0,0.0,0.0,0.0,0.0,0.0,0.0,0.0,0.0,-0.86,-0.8656,-0.8811,-0.8916,-0.901,-0.9135,-0.919,-0.9205,-0.9259,-0.9259,-0.9286,-0.9328,-0.9354,0.0,0.0,0.0,-1.0766,-1.1711,-1.2369,-1.3209,-1.4117,-1.4087,-1.4076,-1.4002,-1.3348,0.0,0.0,0.0,0.0,0.0,0.0,0.0,0.0,0.0,0.0,0.0,0.0,0.0,0.0,0.0,0.0,0.0,0.0,0.0,0.0,0.0,0.0,0.0,0.0,0.0,-2.5101,-2.52,-2.5481,-2.538,-2.4139,-2.3625,-2.2945,-2.1455,-2.064,-1.9673,-1.8311,-1.7905,-1.7779,-1.7882,-1.7826,-1.7817,-1.7803,-1.7715,-1.7191,-1.6151,-1.5306,-1.4539,-1.4025,-1.3863,-1.4166,-1.5012,-1.4635,-1.4606,-1.5035,-1.4288,-1.3753,-1.3645,-1.2881,-1.2441,-1.2223,-1.1678,-1.124,-1.1025,-1.0659,-1.0115,-0.9461,-0.9905,-0.9487,-0.8639,-0.8615,-0.8017,-0.703,-0.6897,-0.6087,-0.4962,-0.4482,-0.4191,-0.4167,0.0,0.0,0.0,0.0,0.0,0.0,0.0,0.0,0.0,0.0,0.0,0.0,0.0,0.0,-0.8868,-0.9011,-0.8951,-0.8971,-0.9135,-0.9178,-0.9259,-0.9366,-0.9393,-0.942,-0.9461,-0.9461,-0.9461,0.0,0.0,0.0,0.0,-1.185,-1.2693,-1.3489,-1.3823,-1.4024,0.0,0.0,0.0,-1.4654,0.0,0.0,-1.9921,0.0,0.0,0.0,0.0,0.0,0.0,0.0,0.0,0.0,0.0,0.0,0.0,0.0,0.0,0.0,-1.5041,0.0,0.0,0.0,0.0,-2.3579,-2.3781,0.0,-2.5018,-2.3818,-2.3677,-2.3325,-2.1713,-2.1128,-2.049,-1.9066,-1.8172,-1.7781,-1.8085,-1.7743,-1.7383,-1.7483,-1.7386,-1.6767,-1.5563,-1.5028,-1.4372,-1.3669,-1.3713,-1.3909,-1.4429,-1.4168,-1.3933,-1.4028,-1.362,-1.3098,-1.2554,-1.2126,-1.18,-1.1375,-1.116,-1.0729,-1.0085,-1.0044,-0.95,-0.8633,-0.8562,-0.8256,-0.7809,-0.7648,-0.7148,-0.6332,-0.6398,-0.5814,-0.4771,-0.4674,-0.4505,-0.4249,0.0,0.0,0.0,0.0,0.0,0.0,0.0,0.0,0.0,0.0,0.0,0.0,0.0,0.0,0.0,-0.9288,-0.8941,-0.885,-0.9151,-0.9259,-0.9366,-0.9485,-0.9564,-0.9591,-0.9591,-0.9591,-0.9591,0.0,0.0,0.0,0.0,0.0,-1.2461,-1.2685,-1.3627,-1.4022,-1.4011,0.0,-1.4655,-1.5197,0.0,-1.9445,-2.0333,0.0,0.0,0.0,-2.2904,-2.3659,0.0,-2.3433,0.0,0.0,0.0,0.0,0.0,0.0,0.0,0.0,0.0,0.0,0.0,0.0,0.0,0.0,-2.2415,0.0,-2.4716,-2.3468,-2.4024,-2.4011,-2.153,-2.1531,-2.137,-1.9757,-1.8495,-1.7855,-1.8041,-1.7676,-1.7294,-1.7246,-1.777,-1.7534,-1.5862,-1.5991,-1.5569,-1.397,-1.4061,-1.3653,-1.2432,-1.2643,-1.2235,-1.1097,-1.1615,-1.1615,-1.0988,-1.0988,-1.0988,-1.0988,-1.016,-0.9533,-0.901,-0.9062,-0.8376,-0.7086,-0.7207,-0.7102,-0.6762,-0.6872,-0.6453,-0.5641,-0.5645,-0.5293,-0.4686,-0.4317,-0.3966,-0.3674,0.0,0.0,0.0,0.0,0.0,0.0,-0.846,-0.8499,0.0,0.0,0.0,0.0,0.0,0.0,-0.9318,-0.9024,-0.9049,-0.9029,-0.8905,-0.9112,-0.9286,-0.942,-0.9485,-0.9538,-0.9591,-0.9591,-0.9564,0.0,0.0,0.0,0.0,-1.0599,0.0,0.0,-1.2304,-1.2927,-1.3538,-1.4159,0.0,-1.6263,-1.8412,-2.0782,0.0,0.0,0.0,0.0,0.0,-2.4478,-2.5163,0.0,-2.6762,-2.5382,0.0,0.0,0.0,0.0,0.0,0.0,-1.4581,0.0,0.0,0.0,0.0,0.0,0.0,0.0,-2.2677,-2.3152,-2.2995,-2.2717,-2.2682,-2.231,-2.1675,-2.0692,-1.9411,-1.8512,-1.8242,-1.6941,-1.5954,-1.5819,-1.5219,-1.438,-1.3155,-1.3482,-1.3537,0.0,-1.3009,-1.3501,-1.4107,-1.3763,-1.3043,-1.1719,-1.1822,-1.1615,-1.0988,-1.1196,-1.0889,-1.0164,-1.0056,-0.9638,-0.8696,-0.8526,-0.8178,-0.7624,-0.744,-0.7199,-0.6649,-0.6118,-0.572,-0.5547,-0.5028,-0.4925,-0.4967,-0.4809,-0.4543,-0.4292,0.0,0.0,0.0,0.0,0.0,-0.8746,-0.8997,-0.906,-0.9126,0.0,0.0,0.0,0.0,0.0,-0.9367,-0.9253,-0.9098,-0.9019,-0.9009,-0.9073,-0.919,-0.9301,-0.9432,-0.9538,-0.9591,-0.9632,-0.9632,-0.9632,-0.9564,-0.9641,-0.9829,-1.0197,-1.0636,0.0,0.0,0.0,0.0,0.0,0.0,0.0,-1.9022,0.0,0.0,-2.3806,-2.4609,0.0,0.0,0.0,-2.5773,-2.8494,-2.8829,0.0,0.0,0.0,0.0,0.0,0.0,0.0,0.0,0.0,0.0,0.0,0.0,0.0,-2.1525,-2.1808,-2.1966,0.0,-2.2402,-2.2103,-2.1994,-2.1834,-2.135,-2.0442,-1.9609,-1.9016,-1.8649,-1.7063,-1.5812,-1.5541,-1.4521,-1.3489,-1.2758,-1.2908,-1.3036,-1.2851,-1.2986,-1.3161,-1.3248,-1.2368,-1.1539,-1.0751,-1.0853,-1.0645,-1.0132,-1.034,-1.0136,-0.9426,-0.9116,-0.86,-0.7882,-0.7428,-0.7106,-0.7119,-0.7166,-0.7043,-0.6824,-0.5935,-0.541,-0.5231,-0.4878,-0.4766,-0.4775,-0.4664,-0.4408,-0.4039,0.0,0.0,-0.8097,-0.8756,-0.888,-0.9099,-0.9701,-0.9775,-0.974,0.0,0.0,0.0,0.0,0.0,0.0,0.0,-0.9241,-0.9015,-0.9238,-0.91,-0.9067,-0.9151,-0.9351,-0.9485,-0.9579,-0.9658,-0.9699,-0.9715,-0.9659,-0.9607,-0.9558,-1.015,-1.0547,-1.0752,0.0,0.0,0.0,0.0,0.0,-1.7242,-1.953,-2.0932,0.0,0.0,-2.4746,-2.4237,-2.3831,-2.4702,-2.6343,-2.8972,-3.0395,0.0,0.0,0.0,0.0,0.0,-2.0256,0.0,0.0,0.0,0.0,0.0,0.0,0.0,-2.1403,-2.1721,-2.188,0.0,-2.1874,-2.1544,-2.0366,-2.0435,-2.039,-1.9371,-1.9219,-1.9163,-1.9151,-1.7597,-1.6345,-1.595,-1.4658,-1.3713,-1.3513,-1.3473,-1.3491,-1.3437,-1.3386,-1.2732,-1.1194,-0.9813,-0.9126,-0.9335,-0.9529,-0.9426,-0.8924,-0.9229,-0.913,-0.8627,-0.7733,-0.7033,-0.6534,-0.604,-0.5947,-0.6066,-0.6483,-0.6806,-0.7243,-0.6359,-0.5588,-0.5048,-0.5013,-0.4768,-0.4369,-0.4036,-0.3813,-0.3475,0.0,0.0,-0.8068,-0.8582,-0.8808,-0.9099,-0.9645,-0.962,-0.9767,0.0,0.0,0.0,0.0,0.0,0.0,0.0,-0.9753,-0.956,-0.8953,-0.901,-0.9021,-0.8866,-0.9069,-0.9271,-0.9434,-0.9605,-0.9514,-0.9156,-0.9654,-0.9679,-0.9204,-0.9754,-1.0069,-1.0186,0.0,0.0,0.0,0.0,0.0,-1.8701,-1.9322,0.0,-2.3595,-2.4447,-2.5198,-2.5724,-2.4806,-2.505,-2.6277,-2.9609,-3.2672,-3.4528,0.0,0.0,0.0,-2.4816,0.0,0.0,0.0,0.0,0.0,0.0,0.0,0.0,-2.151,-2.0881,-2.047,0.0,-2.0085,-1.939,-1.9629,-1.9103,-1.8419,-1.7539,-1.7687,-1.8188,-1.8824,-1.7132,-1.5583,-1.4993,-1.3629,-1.2744,-1.2886,-1.2723,-1.2687,-1.2825,-1.2747,-1.1889,-1.0306,-1.031,-1.031,-1.0216,-1.0019,-0.9821,-0.9723,-1.0019,-0.932,-0.7534,-0.7534,-0.6731,-0.5236,-0.5054,-0.5667,-0.6687,-0.6608,-0.7006,-0.7771,-0.7231,-0.6521,-0.5489,-0.4613,-0.4161,-0.4036,-0.3475,-0.3362,-0.3475,0.0,0.0,-0.8379,-0.8906,-0.9279,-0.9747,-1.0438,-1.0419,0.0,0.0,0.0,0.0,0.0,0.0,0.0,0.0,0.0,0.0,0.0,-0.9164,-0.8973,-0.8765,-0.8748,-0.8866,-0.9143,-0.9449,-0.9402,-0.9053,-0.945,-0.9509,-0.9264,-0.9498,-1.0186,-1.1251,0.0,0.0,0.0,0.0,-1.5632,-1.8151,-1.9286,0.0,-2.4016,-2.4565,-2.5226,-2.5808,-2.5223,-2.6942,-2.9792,-3.1673,-3.4042,0.0,-3.3625,-3.1844,-3.0209,0.0,-2.7344,-2.626,0.0,0.0,0.0,-2.4043,0.0,0.0,0.0,-2.1858,-2.0879,-2.0969,-1.9764,-1.867,-1.8577,-1.7847,-1.701,-1.6429,-1.668,-1.6944,-1.6865,-1.5858,-1.5139,-1.513,-1.3302,-1.2178,-1.2429,-1.2235,-1.2148,-1.2204,-1.151,-1.0733,-1.0065,-0.9866,-0.9817,-1.0019,-0.962,-0.9422,-0.9422,-0.9422,-0.8829,-0.7637,-0.7332,-0.6534,-0.5338,-0.4736,-0.5137,-0.6476,-0.6105,-0.6809,-0.8056,-0.7556,-0.7031,-0.633,-0.496,-0.4339,-0.4147,-0.3362,-0.3026,-0.2915,-0.785,0.0,-0.8651,-0.933,-0.9764,-1.0313,-1.1247,-1.1225,0.0,0.0,0.0,0.0,0.0,0.0,0.0,0.0,0.0,0.0,0.0,-0.9535,-0.8958,-0.8536,-0.84,-0.8445,-0.8678,-0.9158,-0.9265,-0.8926,-0.919,-0.9315,-0.9279,-0.9328,-1.0379,0.0,0.0,0.0,0.0,0.0,0.0,-1.8208,0.0,-2.1598,-2.3736,-2.452,-2.4981,-2.5203,-2.5743,-2.8946,-3.3069,-3.3585,-3.4997,-3.6425,-3.5545,-3.4111,0.0,0.0,0.0,0.0,0.0,0.0,0.0,0.0,0.0,-2.4761,0.0,0.0,0.0,-2.1555,-2.0028,-1.8583,0.0,0.0,0.0,-1.5379,0.0,0.0,0.0,-1.4261,0.0,-1.501,-1.3338,-1.2308,-1.2652,-1.2422,-1.1969,-1.1356,-1.0575,-1.0072,-0.9867,-0.9462,-0.9284,-0.9628,-0.9126,-0.8821,-0.8623,-0.8428,-0.7932,-0.7338,-0.6833,-0.6234,-0.5639,-0.4736,-0.5026,-0.6235,-0.5624,-0.6414,-0.8087,-0.7252,-0.6901,-0.6806,-0.5418,-0.4733,-0.4458,-0.358,-0.2802,-0.2243,-0.8176,-0.8199,0.0,-0.9496,-0.9618,-0.9955,-1.1135,-1.0969,0.0,0.0,0.0,0.0,0.0,0.0,0.0,0.0,0.0,0.0,-1.0838,0.0,-0.9062,-0.7873,-0.8025,-0.8028,-0.7845,-0.8691,-0.8856,-0.8305,-0.9034,-0.9214,-0.8885,-0.9294,-1.0155,0.0,-1.1992,0.0,0.0,0.0,-1.8148,0.0,-2.0828,-2.1302,0.0,-2.4368,-2.4502,-2.4149,-2.6792,-2.9503,-3.2125,0.0,-3.5884,-3.7671,0.0,-3.5805,-3.577,-3.3406,0.0,0.0,0.0,0.0,0.0,0.0,-2.6645,0.0,-2.501,0.0,-2.2768,-2.2151,0.0,-1.8653,0.0,0.0,0.0,0.0,0.0,0.0,-1.327,-1.2623,-1.2498,-1.352,-1.3522,-1.3625,-1.4366,-1.3761,-1.2463,-1.0229,-1.1052,-1.1008,-0.9198,-1.0035,-1.0316,-1.0015,-0.9418,-0.8817,-0.8124,-0.8024,-0.6924,-0.483,-0.5434,-0.5334,-0.463,-0.5133,-0.6002,-0.6944,-0.5592,-0.6017,-0.7501,-0.6233,-0.584,-0.6059,-0.5634,-0.5352,-0.4931,-0.3899,-0.3025,-0.2017,-0.8516,-0.8616,0.0,0.0,-0.9997,-1.0391,-1.1437,-1.1333,0.0,0.0,0.0,0.0,0.0,0.0,0.0,0.0,0.0,-1.2406,0.0,0.0,0.0,-0.8508,-0.8349,-0.8315,-0.8385,-0.8961,-0.9031,-0.8544,-0.8717,-0.8961,-0.9214,-0.9113,-1.0398,0.0,-1.3351,0.0,-1.7511,0.0,-1.9662,0.0,0.0,0.0,0.0,-2.3906,-2.4351,-2.4983,-2.8566,-3.1008,-3.2747,0.0,-3.6291,0.0,0.0,0.0,0.0,-3.5319,0.0,0.0,0.0,0.0,0.0,0.0,0.0,0.0,-2.6329,0.0,-2.346,0.0,0.0,0.0,0.0,0.0,0.0,0.0,-1.2736,-1.2358,0.0,0.0,-1.2185,-1.3063,0.0,0.0,-1.3042,-1.1859,-1.0829,-1.03,-1.0004,-0.9247,-0.797,-0.8702,-0.9075,-0.8766,-0.8188,-0.7841,-0.7726,-0.7132,-0.6531,-0.5829,-0.5532,-0.5231,-0.4828,-0.4632,-0.4679,-0.4961,-0.4506,-0.4951,-0.5884,-0.5763,-0.5896,-0.5854,-0.542,-0.4941,-0.4545,-0.4252,-0.3254,-0.1681,-0.8921,0.0,0.0,0.0,-1.0175,-1.0479,-1.1262,-1.1384,0.0,0.0,0.0,0.0,-1.199,-1.2738,0.0,0.0,-1.3467,-1.3252,0.0,0.0,-1.0737,-0.9452,-0.8998,-0.8902,-0.9207,-0.9417,-0.9362,-0.8984,-0.8763,-0.8956,-0.9536,-0.9234,-1.0666,-1.3565,0.0,-1.6414,-1.9686,0.0,-2.1277,-2.4238,-2.2666,-2.2715,-2.3696,-2.361,-2.426,-2.5757,-2.9547,-3.1898,-3.3433,-3.5032,-3.6696,-3.7935,-3.7004,-3.7249,-3.7664,0.0,0.0,0.0,-3.3168,0.0,0.0,0.0,0.0,0.0,0.0,0.0,0.0,0.0,0.0,0.0,0.0,0.0,0.0,0.0,0.0,-1.1778,0.0,-1.0507,0.0,0.0,0.0,0.0,0.0,-1.0036,-0.9374,-0.9782,-0.8718,-0.7612,-0.693,-0.7774,-0.7942,-0.7149,-0.6912,-0.6703,-0.6528,-0.6004,-0.579,-0.5887,-0.5388,-0.509,-0.4993,-0.442,-0.4058,-0.4108,-0.3649,-0.3899,-0.4748,-0.4706,-0.4633,-0.4611,-0.4148,-0.3544,-0.2911,-0.359,-0.2579,-0.0673,-0.9485,-0.9213,0.0,0.0,0.0,-0.9848,-1.0294,0.0,0.0,0.0,0.0,0.0,0.0,0.0,0.0,0.0,0.0,-1.498,-1.2503,0.0,-1.1838,0.0,0.0,-0.9852,-1.0076,-0.9932,-0.9741,-0.9461,-0.9329,-0.9416,-0.9689,-0.9813,-1.0938,-1.29,-1.3949,-1.6289,-1.9501,-2.0573,-2.3303,-2.6729,-2.4848,-2.4063,-2.394,0.0,-2.4331,-2.5869,-2.8955,0.0,-3.3806,-3.58,-3.7184,-3.7953,-3.7221,-3.7442,0.0,0.0,0.0,0.0,0.0,0.0,0.0,-3.0376,0.0,0.0,0.0,0.0,-2.6396,0.0,0.0,0.0,0.0,0.0,0.0,0.0,0.0,0.0,0.0,0.0,0.0,0.0,0.0,0.0,0.0,-0.9464,-0.8851,-0.7933,-0.7613,-0.7086,-0.6291,-0.7915,-0.7724,-0.5308,-0.5901,-0.5426,-0.3728,-0.4642,-0.4506,-0.3633,-0.4602,-0.4893,-0.4706,-0.4787,-0.5131,-0.5744,-0.3423,-0.3359,-0.4669,-0.2425,-0.1287,-0.1201,-0.1667,-0.0896,0.0224,-0.1344,-0.056,0.1232,0.0,0.0,0.0,0.0,0.0,0.0,0.0,-1.1104,0.0,0.0,-1.337,0.0,0.0,-1.607,-1.5967,0.0,0.0,-1.4656,-1.262,-1.2822,0.0,0.0,0.0,-1.176,0.0,-1.1603,-1.1343,-1.075,-1.0277,-1.0179,-1.0486,-1.0305,-1.1345,-1.3411,0.0,-1.7934,0.0,0.0,0.0,0.0,0.0,-2.4645,-2.3839,0.0,-2.5098,-2.7163,-2.9051,-3.183,-3.486,-3.6358,-3.7803,-3.8824,-3.8447,-3.8585,-3.8686,-3.775,-3.7508,-3.7229,-3.5818,-3.5409,-3.5014,-3.3689,-3.2368,-3.1076,-2.9941,0.0,0.0,0.0,0.0,0.0,0.0,0.0,0.0,0.0,0.0,0.0,0.0,0.0,-0.7424,0.0,0.0,0.0,0.0,-0.871,-0.8274,-0.8154,-0.7409,-0.6405,-0.5143,-0.6122,-0.6132,-0.4736,-0.512,-0.5225,-0.5039,-0.491,-0.4992,-0.5188,-0.4799,-0.4927,-0.5382,-0.423,-0.3578,-0.3324,-0.2519,-0.2342,-0.2386,-0.1375,-0.0753,-0.0219,0.1225,0.2131,0.258,0.2465,0.3024,0.4249,-1.0943,0.0,0.0,0.0,0.0,0.0,0.0,0.0,0.0,0.0,-1.5195,0.0,-1.727,0.0,-1.7374,0.0,-1.6033,-1.571,-1.3383,-1.4343,0.0,-1.4739,-1.466,-1.4596,0.0,0.0,0.0,-1.2758,-1.1799,-1.1405,-1.1532,-1.1125,-1.1985,-1.3925,0.0,-1.8905,-2.2733,-2.3734,-2.6083,0.0,0.0,-2.5341,0.0,0.0,-2.6126,-2.8151,-2.9391,-3.2335,-3.5806,-3.6888,-3.822,-3.9376,-3.9298,-3.9401,-3.9389,-3.8752,-3.8662,-3.8432,-3.6937,-3.6247,-3.5662,-3.4457,-3.3248,-3.2104,-3.1106,-3.0161,-2.9391,0.0,0.0,0.0,0.0,0.0,0.0,0.0,0.0,0.0,0.0,-0.6859,0.0,-0.6812,0.0,0.0,0.0,-0.7439,-0.6997,-0.7614,-0.629,-0.495,-0.3717,-0.4493,-0.4437,-0.3398,-0.4709,-0.5315,-0.5131,-0.5096,-0.5265,-0.5548,-0.4891,-0.483,-0.5181,-0.3498,-0.2464,-0.1998,-0.1207,-0.0612,-0.0,0.0212,0.0646,0.1424,0.2787,0.3591,0.4036,0.4457,0.4888,0.5531,-1.0865,0.0,0.0,0.0,-1.1004,0.0,0.0,0.0,-1.3749,0.0,-1.7007,-1.8191,-1.8927,-1.9658,-1.888,-1.592,-1.7916,-1.7993,-1.4962,-1.6805,0.0,0.0,-1.7955,-1.8086,-1.8434,0.0,0.0,0.0,0.0,0.0,-1.2726,-1.2191,-1.2792,0.0,-1.5869,0.0,-2.3671,-2.5036,-2.763,-3.0593,-2.8257,-2.6198,-2.4606,-2.5847,-2.7379,-2.8955,-3.0023,-3.2983,-3.6527,-3.7276,-3.8327,-3.937,-3.958,-3.9694,-3.9759,-3.9886,-4.0154,-3.9802,-3.713,-3.5368,-3.4018,-3.2866,-3.2157,-3.1676,-3.1499,-3.1768,-3.178,-3.0741,-2.9372,0.0,0.0,0.0,0.0,0.0,0.0,0.0,0.0,0.0,-0.6319,-0.6343,-0.6843,0.0,0.0,-0.578,-0.5143,-0.6241,-0.4221,-0.2677,-0.2077,-0.3144,-0.2943,-0.125,-0.4723,-0.5773,-0.408,-0.4928,-0.5245,-0.4789,-0.5066,-0.4979,-0.4346,-0.2788,-0.2056,-0.1963,0.02,0.1531,0.2286,0.2219,0.2687,0.3391,0.3003,0.3576,0.4677,0.4945,0.5132,0.5424,-1.205,-1.1832,-1.1892,0.0,-1.2434,-1.2521,0.0,0.0,0.0,0.0,-1.9251,-2.0734,-2.1808,-2.2094,-2.1347,-1.9254,-1.9329,0.0,0.0,0.0,0.0,-1.9668,-1.9944,-2.0277,-2.0593,-1.951,-1.8515,-1.7722,0.0,0.0,-1.3265,0.0,0.0,0.0,0.0,0.0,-2.2246,-2.5079,-2.7578,-2.9606,-2.9343,-2.8316,-2.7136,0.0,-2.9196,-3.0618,-3.1475,-3.3821,-3.6472,-3.6442,-3.6711,-3.7153,-3.7417,-3.7536,-3.777,-3.8568,-3.8869,-3.8991,-3.9185,-3.7961,-3.6416,-3.5518,-3.441,-3.3308,-3.2426,-3.2602,-3.2865,-3.2551,-3.2094,-3.0488,-2.6364,-2.311,0.0,0.0,0.0,0.0,0.0,0.0,0.0,-0.5707,0.0,0.0,-0.6158,-0.6033,-0.5178,-0.3582,-0.2634,-0.1782,-0.0939,-0.2503,-0.2671,-0.1061,-0.361,-0.49,-0.4542,-0.552,-0.6135,-0.648,-0.6745,-0.6712,-0.6267,-0.625,-0.4728,-0.1862,-0.06,0.0304,0.1019,0.2385,0.2409,0.1896,0.3755,0.545,0.6768,0.6143,0.6172,0.6526,-1.2519,-1.2701,0.0,-1.3338,0.0,0.0,-1.5041,-1.6128,0.0,-1.9799,-2.1387,0.0,-2.3374,-2.3818,-2.3363,-2.1572,-2.1343,0.0,-2.0101,0.0,0.0,-2.1862,-2.2389,-2.2919,-2.3321,-2.2324,0.0,-2.0142,0.0,0.0,-1.4357,0.0,0.0,0.0,0.0,-1.8682,-2.2249,-2.6419,-2.8544,-2.9257,-2.9867,-2.936,0.0,-2.9293,-3.0194,-3.1062,-3.198,-3.3665,-3.5512,-3.5642,-3.5811,-3.6028,-3.6387,-3.6614,-3.6887,-3.7734,-3.8322,-3.8766,-3.9026,-3.7871,-3.6505,-3.6345,-3.5243,-3.411,-3.3766,-3.4056,-3.4347,-3.4193,-3.2971,-3.0969,-2.7907,-2.3358,0.0,0.0,0.0,0.0,0.0,0.0,0.0,0.0,-0.5193,-0.4988,-0.5067,-0.4598,-0.3754,-0.2357,-0.1178,-0.024,0.0449,-0.0834,-0.1346,-0.0716,-0.2866,-0.4118,-0.4202,-0.5191,-0.5994,-0.6694,-0.6779,-0.6821,-0.6635,-0.6593,-0.4735,-0.1548,-0.0395,0.07,0.1717,0.2882,0.3109,0.2905,0.4757,0.6305,0.7458,0.6687,0.7025,0.8171,-1.271,0.0,0.0,0.0,0.0,0.0,0.0,-1.827,0.0,-2.1898,0.0,-2.3932,-2.4002,-2.4826,-2.4673,-2.3061,-2.3274,-2.3251,-2.2535,-2.3128,-2.3693,-2.4098,-2.4841,-2.5503,-2.6217,-2.5257,-2.4039,0.0,0.0,0.0,0.0,0.0,0.0,0.0,0.0,0.0,0.0,-2.8212,-2.9937,-2.9524,-3.0386,-3.0128,-2.9295,-3.0456,-3.0886,-3.1036,-3.2001,-3.3054,-3.4006,-3.4627,-3.4957,-3.5175,-3.567,-3.6003,-3.6381,-3.7137,-3.8002,-3.861,-3.8127,-3.678,-3.5624,-3.6137,-3.5328,-3.4509,-3.4905,-3.5427,-3.574,-3.5487,-3.2943,-3.0453,-2.939,-2.3514,0.0,0.0,0.0,0.0,0.0,0.0,0.0,0.0,0.0,0.0,-0.4188,-0.2793,-0.192,-0.1825,-0.0,0.1356,0.2016,0.0882,-0.0,-0.0542,-0.2325,-0.3481,-0.3652,-0.4559,-0.5453,-0.6248,-0.616,-0.6068,-0.5891,-0.5099,-0.3344,-0.0854,0.0775,0.2071,0.3106,0.3582,0.4336,0.5066,0.5682,0.649,0.7421,0.6838,0.7836,0.9726,-1.3644,0.0,0.0,0.0,0.0,-1.8949,-1.9584,-2.0582,-2.1614,-2.2417,-2.3695,-2.4327,-2.3717,-2.4105,-2.407,-2.3272,-2.3432,0.0,0.0,0.0,0.0,-2.5218,-2.5922,-2.6955,-2.8318,-2.678,-2.5735,0.0,0.0,-1.9078,-1.6784,0.0,0.0,0.0,0.0,0.0,-2.5697,-2.875,0.0,-3.0821,-3.2099,-3.2437,-3.2197,-3.2709,-3.2481,-3.2001,-3.253,-3.2598,-3.2449,-3.2424,-3.2616,-3.2907,-3.3166,-3.3687,-3.4589,-3.6581,-3.69,-3.7147,-3.9523,-3.8384,-3.648,-3.6197,-3.5811,-3.5245,-3.4192,-3.4956,-3.5815,-3.5604,-3.379,-3.1692,-2.9919,-2.4722,-1.8254,0.0,0.0,0.0,0.0,0.0,0.0,0.0,0.0,-0.4618,-0.4144,-0.334,-0.2121,-0.0337,0.0104,0.1335,0.361,0.0126,-0.172,-0.1211,-0.2395,-0.3345,-0.4009,-0.4798,-0.573,-0.6962,-0.6517,-0.5971,-0.5159,-0.4371,-0.2121,0.1116,0.2893,0.3112,0.2217,0.3892,0.5061,0.578,0.5782,0.6677,0.7892,0.7629,0.8299,0.9099,-1.5527,0.0,0.0,0.0,0.0,0.0,0.0,-2.3222,-2.3805,-2.2866,-2.4163,-2.5216,-2.5517,-2.6536,-2.7248,-2.7236,-2.7233,-2.7213,-2.7363,-2.7705,-2.7768,-2.7539,-2.7952,-2.8517,-2.914,-2.8072,-2.7022,-2.6066,0.0,-2.0582,-1.8039,-1.6477,0.0,0.0,0.0,-2.306,0.0,0.0,-3.0995,-3.1625,-3.3221,-3.3542,-3.3105,-3.3486,-3.3223,-3.275,-3.2901,-3.2616,-3.2133,-3.1969,-3.1878,-3.2004,-3.2852,-3.3338,-3.3923,-3.5609,-3.6172,-3.6621,-3.8241,-3.7812,-3.6854,-3.661,-3.6174,-3.5596,-3.4851,-3.5234,-3.5712,-3.5577,-3.4021,-3.1283,-2.6647,-2.3611,-1.9975,-1.4441,-1.3231,0.0,0.0,0.0,-0.9231,0.0,0.0,0.0,0.0,-0.3191,-0.2241,-0.0504,0.0,0.0961,0.2172,0.0494,-0.0677,-0.1129,-0.174,-0.2402,-0.3032,-0.4425,-0.5628,-0.6596,-0.6419,-0.5874,-0.4789,-0.4047,-0.1729,0.1754,0.2917,0.3419,0.3621,0.5294,0.5654,0.5367,0.6478,0.7293,0.7842,0.8012,0.8396,0.8748,0.0,-1.8731,0.0,0.0,-2.1999,-2.293,-2.3706,-2.516,-2.5599,-2.3956,-2.5214,-2.6566,-2.7433,-2.8934,-3.0081,-3.0529,-3.0513,-3.0708,-3.1046,-3.1011,-3.0661,-3.0063,-3.0324,-3.032,-3.0114,-2.9675,-2.8636,0.0,0.0,-2.2485,-1.9857,-1.8159,0.0,0.0,0.0,0.0,0.0,-3.0283,-3.1759,-3.2,-3.3985,-3.4234,-3.3469,-3.3994,-3.388,-3.3382,-3.3374,-3.2946,-3.2375,-3.2481,-3.2175,-3.1935,-3.3081,-3.3566,-3.3969,-3.5098,-3.5767,-3.6286,-3.6973,-3.6928,-3.6762,-3.7162,-3.6657,-3.6033,-3.5913,-3.5884,-3.5816,-3.5547,-3.4306,-3.1188,-2.4397,-2.406,-2.337,-1.8863,-1.7299,-1.6236,0.0,0.0,-1.2828,0.0,0.0,0.0,-0.468,-0.3772,-0.2634,-0.099,0.0095,0.0409,-0.0112,0.0607,0.0334,-0.1195,-0.1486,-0.1966,-0.2837,-0.4214,-0.5416,-0.6498,-0.6328,-0.5604,-0.4519,-0.3556,-0.1168,0.2106,0.2757,0.3819,0.4948,0.5867,0.5714,0.5061,0.6813,0.7661,0.7977,0.8528,0.8735,0.8962,0.0,0.0,0.0,0.0,0.0,-2.4418,-2.4493,-2.5364,-2.6115,-2.6337,-2.7786,-2.8642,-2.8225,-2.8993,-2.9543,-2.9488,-2.9933,-3.0472,-3.0985,-3.1498,-3.1887,-3.2139,-3.2595,-3.271,-3.2389,-3.2332,-3.1356,0.0,0.0,-2.5334,-2.2775,-2.1028,0.0,0.0,0.0,-2.7978,-2.914,-3.1679,-3.2323,-3.1851,-3.4382,-3.4839,-3.4127,-3.5139,-3.4861,-3.3963,-3.4264,-3.3709,-3.2975,-3.3923,-3.3586,-3.2757,-3.2904,-3.3666,-3.4717,-3.5863,-3.5776,-3.5746,-3.7722,-3.6968,-3.6026,-3.7687,-3.7526,-3.6933,-3.6813,-3.6835,-3.6598,-3.562,-3.5085,-3.3027,-2.7246,-2.9989,-3.0738,-2.3597,-2.2637,-2.1173,-1.6665,0.0,-1.4953,-1.3628,0.0,0.0,-0.9407,-0.66,-0.3859,-0.0931,-0.0184,-0.0435,-0.1779,-0.087,-0.0889,-0.2254,-0.2699,-0.3771,-0.5544,-0.4903,-0.5697,-0.8017,-0.6254,-0.5087,-0.4267,-0.2227,0.0268,0.3141,0.4116,0.4758,0.4937,0.401,0.4585,0.5994,0.5916,0.7136,0.8972,0.9537,1.0041,1.0387,0.0,0.0,-2.4463,-2.5395,-2.5871,-2.6297,-2.6607,-2.7511,-2.8484,-2.9136,-2.9128,-2.9519,-3.0556,-3.1616,-3.2388,-3.2728,-3.3356,-3.3879,-3.4303,-3.4805,-3.4936,-3.4497,-3.4787,-3.4609,-3.3988,-3.4103,-3.3164,0.0,0.0,-2.7735,-2.5355,-2.4239,-2.4598,-2.6337,-2.9437,-3.1057,-3.1634,-3.4375,-3.4838,-3.3899,-3.555,-3.5382,-3.4254,-3.5136,-3.5201,-3.4831,-3.4725,-3.4301,-3.3843,-3.4161,-3.3864,-3.3488,-3.4085,-3.4509,-3.4926,-3.5751,-3.5727,-3.563,-3.6571,-3.6309,-3.5896,-3.6597,-3.6541,-3.6347,-3.6459,-3.6501,-3.638,-3.5864,-3.5347,-3.3866,-3.0149,-3.0733,-3.0853,-2.8073,-2.6135,-2.3692,-2.0036,0.0,0.0,-1.0398,0.0,-1.1463,-0.6341,-0.6104,-0.4696,-0.0873,-0.0861,-0.0879,-0.0539,-0.0057,-0.0124,-0.0967,-0.0371,-0.1335,-0.41,-0.3699,-0.4509,-0.6511,-0.5891,-0.5078,-0.3993,-0.2316,0.0624,0.4281,0.4591,0.5084,0.5671,0.6059,0.6098,0.6146,0.7633,0.8717,0.9531,1.0396,1.0872,1.1144,-2.8032,-2.7212,-2.6735,-2.7394,-2.7832,-2.8193,-2.8793,-2.9648,-3.0542,-3.1501,-3.0979,-3.1129,-3.2814,-3.3974,-3.4811,-3.5442,-3.589,-3.6266,-3.6586,-3.6999,-3.7019,-3.6434,-3.6611,0.0,-3.5393,-3.58,-3.5082,-3.3167,-3.2227,-3.0641,-2.8482,-2.7904,-2.8257,-2.9518,-3.2606,-3.4062,-3.4336,-3.6481,-3.6549,-3.5379,-3.6492,-3.5902,-3.4478,-3.5403,-3.5679,-3.5507,-3.5425,-3.5051,-3.4642,-3.4869,-3.4604,-3.4282,-3.4868,-3.5119,-3.5271,-3.5706,-3.5767,-3.5702,-3.5828,-3.5882,-3.5964,-3.6132,-3.6209,-3.625,-3.6391,-3.6423,-3.6297,-3.5886,-3.5382,-3.451,-3.2754,-3.187,-3.1403,-3.1377,-2.9671,-2.7127,-2.3609,-2.4337,0.0,-1.1983,-1.317,-1.2758,-0.7701,-0.7447,-0.6173,-0.2574,-0.1283,-0.0048,0.1351,0.1255,0.0553,-0.0611,0.097,0.0158,-0.3343,-0.2924,-0.3541,-0.508,-0.5442,-0.4898,-0.3462,-0.1246,0.1603,0.4723,0.526,0.5794,0.6245,0.7431,0.7288,0.656,0.8496,0.9494,1.0135,1.1071,1.1911,1.2531,-3.0454,-2.9558,-2.8953,-2.9484,-2.978,-3.0179,-3.0852,-3.1203,-3.186,-3.3219,-3.3582,-3.4054,-3.4811,-3.5402,-3.5924,-3.6333,-3.6326,-3.6426,-3.6771,-3.7147,-3.7485,-3.7685,-3.7913,-3.7636,-3.6708,-3.7653,-3.7268,-3.5453,0.0,-3.4312,-3.2522,-3.2109,-3.236,-3.3231,-3.5471,-3.6753,-3.7258,-3.7488,-3.676,-3.5518,-3.6926,-3.6414,-3.4952,-3.6359,-3.6434,-3.5884,-3.6534,-3.6054,-3.5276,-3.6542,-3.6202,-3.5213,-3.4827,-3.5258,-3.5885,-3.5894,-3.5909,-3.5914,-3.5985,-3.6007,-3.6161,-3.6904,-3.713,-3.7147,-3.7024,-3.6937,-3.6582,-3.5522,-3.5195,-3.5045,-3.4884,-3.4696,-3.4207,-3.3131,-3.3617,-3.2317,-2.7154,-2.8719,0.0,-2.1855,-2.158,-2.0432,-1.6804,-1.2144,-0.8602,-0.6777,-0.1238,0.2543,0.3597,0.2679,0.0811,-0.1973,0.0151,-0.0559,-0.4327,-0.3246,-0.3228,-0.4345,-0.5087,-0.4469,-0.2674,0.1603,0.3659,0.3927,0.6599,0.7228,0.6428,0.7214,0.7482,0.7489,0.7738,0.9,1.0816,1.1688,1.3248,1.4817,-3.1915,-3.0707,-2.987,-3.0068,-3.0418,-3.0822,-3.1291,-3.1751,-3.2367,-3.3208,-3.4037,-3.4717,-3.5244,-3.5616,-3.5975,-3.6426,-3.6509,-3.6696,-3.7167,-3.7449,-3.7685,-3.7966,-3.8314,-3.8462,-3.8346,-3.8877,-3.8614,-3.7464,-3.7072,-3.6291,-3.5177,-3.5007,-3.5391,-3.6262,-3.7698,-3.8414,-3.8575,-3.9296,-3.8873,-3.7718,-3.787,-3.7094,-3.5904,-3.6126,-3.6406,-3.6689,-3.6611,-3.6654,-3.6766,-3.7095,-3.6704,-3.6047,-3.6061,-3.5999,-3.5894,-3.5895,-3.5903,-3.5903,-3.5923,-3.5927,-3.6005,-3.6285,-3.6338,-3.6368,-3.6554,-3.6504,-3.6298,-3.5809,-3.5519,-3.535,-3.5254,-3.5069,-3.4775,-3.4297,-3.3013,-3.0685,-2.6666,-2.749,-2.5884,-1.8737,-1.7964,-1.7477,-1.6059,-1.1502,-0.8592,-0.8476,-0.4686,-0.0687,0.3308,0.222,0.2102,0.3378,0.313,0.1868,-0.05,-0.0953,-0.186,-0.3382,-0.4376,-0.4113,-0.2504,-0.0,0.2312,0.4452,0.5968,0.7474,0.8803,0.8719,0.9492,1.06,1.0924,1.1684,1.2657,1.3545,1.4925,1.6263,-3.2882,-3.1681,-3.0845,-3.0805,-3.1291,-3.1807,-3.2104,-3.2602,-3.3156,-3.3745,-3.448,-3.5128,-3.5493,-3.5739,-3.6105,-3.6591,-3.6673,-3.6895,-3.7394,-3.7577,-3.7827,-3.8117,-3.8396,-3.87,-3.9017,-3.9389,-3.9429,-3.9069,-3.8439,-3.7878,-3.7404,-3.7279,-3.757,-3.8257,-3.9345,-3.982,-3.9809,-4.0377,-4.0037,-3.9071,-3.8705,-3.798,-3.7085,-3.6848,-3.6894,-3.7146,-3.7474,-3.7152,-3.6716,-3.7772,-3.7114,-3.5981,-3.6605,-3.6384,-3.5834,-3.5739,-3.5823,-3.59,-3.5773,-3.5843,-3.5939,-3.5965,-3.5958,-3.5982,-3.6133,-3.6062,-3.591,-3.5737,-3.5596,-3.5474,-3.5417,-3.5321,-3.5203,-3.5053,-3.3332,-3.1281,-2.9115,-2.8511,-2.5507,-1.7996,-1.652,-1.5304,-1.3335,-1.1241,-0.9818,-0.9431,-0.4409,-0.0059,0.294,0.1966,0.2415,0.4862,0.3845,0.2571,0.1353,-0.0,-0.0892,-0.1427,-0.2051,-0.1606,-0.0179,0.1864,0.4257,0.6851,0.7379,0.8524,1.0202,1.0692,1.1621,1.2632,1.3134,1.358,1.3965,1.4135,1.5369,1.6934,-3.3232,-3.2318,-3.1752,-3.1764,-3.2388,-3.2973,-3.3293,-3.3694,-3.4151,-3.4643,-3.4994,-3.5274,-3.5577,-3.5888,-3.6284,-3.686,-3.6838,-3.6974,-3.7413,-3.7613,-3.7862,-3.8183,-3.8303,-3.8554,-3.8915,-3.9378,-3.9815,-4.0232,-3.9474,-3.9141,-3.9208,-3.9044,-3.9078,-3.9388,-4.0443,-4.0905,-4.0908,-4.0821,-4.0373,-3.9656,-3.9423,-3.8935,-3.8361,-3.8244,-3.7775,-3.7362,-3.8867,-3.7642,-3.5722,-3.8544,-3.7586,-3.5427,-3.6612,-3.6437,-3.5743,-3.5505,-3.5701,-3.5925,-3.562,-3.576,-3.5996,-3.5918,-3.5947,-3.5957,-3.5825,-3.5706,-3.5585,-3.5454,-3.5476,-3.5509,-3.5433,-3.547,-3.5483,-3.5345,-3.435,-3.3598,-3.35,-3.0903,-2.6502,-1.9846,-1.7074,-1.3935,-0.9415,-1.1009,-1.1522,-0.9717,0.0,0.3218,0.2338,0.1817,0.2175,0.3526,0.2772,0.2205,0.1814,0.0088,-0.0178,0.1163,0.1339,0.223,0.3744,0.6492,0.864,1.0275,1.0144,1.0294,1.0804,1.2699,1.3684,1.3928,1.4615,1.4939,1.5011,1.4222,1.5303,1.7294,-3.2587,-3.2122,-3.2193,-3.2611,-3.2977,-3.3365,-3.3915,-3.4136,-3.4496,-3.4991,-3.5333,-3.5577,-3.5888,-3.6266,-3.6706,-3.7173,-3.6999,-3.7132,-3.7685,-3.7843,-3.8029,-3.8277,-3.8633,-3.9016,-3.935,-3.9675,-4.003,-4.0421,-4.0242,-4.0237,-4.0407,-4.0344,-4.0447,-4.0658,-4.0934,-4.1015,-4.0976,-4.0844,-4.0687,-4.0457,-3.968,-3.9313,-3.9149,-3.8518,-3.81,-3.8005,-3.9146,-3.9037,-3.8471,-3.9179,-3.8537,-3.7363,-3.6964,-3.6298,-3.5645,-3.5695,-3.5847,-3.5976,-3.5896,-3.5937,-3.5996,-3.5976,-3.5995,-3.5956,-3.5775,-3.5815,-3.5849,-3.5674,-3.5683,-3.5724,-3.571,-3.5627,-3.5353,-3.461,-3.4119,-3.323,-3.1572,-2.7648,-2.5108,-2.5473,-1.8324,-1.1906,-0.8259,-0.6782,-0.7182,-1.0043,-0.3065,0.0797,-0.0434,0.1369,0.3843,0.7032,0.5258,0.4683,0.5481,0.3277,0.2043,0.1866,0.1771,0.2831,0.4963,0.854,0.9795,0.9314,1.0111,1.0895,1.1752,1.2316,1.4129,1.6506,1.692,1.7251,1.7738,1.9997,2.1063,2.1719,-3.3928,-3.3853,-3.3999,-3.4062,-3.4302,-3.4571,-3.4627,-3.4769,-3.5068,-3.5616,-3.5924,-3.6165,-3.6563,-3.6981,-3.7397,-3.7805,-3.7613,-3.772,-3.8227,-3.8342,-3.8596,-3.8968,-3.9133,-3.9441,-3.9917,-4.0034,-4.0256,-4.0636,-4.0476,-4.0516,-4.0691,-4.0457,-4.045,-4.0648,-4.0629,-4.0616,-4.0545,-4.0623,-4.0652,-4.059,-4.0205,-4.0073,-4.0088,-3.9617,-3.9197,-3.8955,-3.9875,-3.9642,-3.9021,-3.9848,-3.8923,-3.7405,-3.7331,-3.6393,-3.533,-3.5387,-3.5639,-3.5876,-3.5767,-3.5862,-3.5993,-3.5992,-3.5991,-3.5968,-3.5861,-3.586,-3.5836,-3.571,-3.5502,-3.542,-3.5664,-3.5273,-3.4759,-3.4236,-3.3541,-3.2499,-3.0822,-2.6266,-2.3637,-2.5082,-1.6929,-1.0409,-0.8312,-0.5494,-0.4294,-0.5706,-0.1888,0.0742,0.1266,0.3329,0.5246,0.6862,0.5339,0.5241,0.6602,0.4889,0.3636,0.2921,0.3796,0.5563,0.7895,1.0217,1.1003,1.0514,1.1225,1.2486,1.4115,1.4911,1.6919,1.9344,1.9058,1.9094,1.9344,1.9959,2.1109,2.2725,-3.6248,-3.6308,-3.6371,-3.5974,-3.6304,-3.6387,-3.5864,-3.599,-3.6251,-3.6516,-3.6794,-3.7108,-3.7379,-3.7772,-3.8125,-3.8566,-3.8499,-3.8578,-3.8886,-3.897,-3.9249,-3.9791,-3.9696,-3.9884,-4.0424,-4.0374,-4.0474,-4.0741,-4.0433,-4.0351,-4.0498,-4.0063,-3.9944,-4.0092,-4.01,-4.0063,-4.001,-4.0359,-4.0466,-4.0425,-4.071,-4.0856,-4.0898,-4.0839,-4.0344,-3.9789,-4.063,-3.9864,-3.8736,-4.0265,-3.9092,-3.7052,-3.7538,-3.6571,-3.5184,-3.4952,-3.5251,-3.5612,-3.5449,-3.568,-3.5962,-3.5971,-3.5988,-3.5988,-3.5991,-3.5788,-3.556,-3.5496,-3.4996,-3.4725,-3.5292,-3.4543,-3.3906,-3.4101,-3.3027,-3.1813,-3.0823,-2.5623,-2.1607,-2.081,-1.4392,-0.9131,-0.6985,-0.4684,-0.2349,-0.0147,0.1044,0.2265,0.3787,0.5857,0.6476,0.5336,0.4874,0.5336,0.6691,0.6048,0.532,0.477,0.6715,0.9026,1.1635,1.21,1.2589,1.2936,1.3497,1.4774,1.6669,1.8399,2.0273,2.2009,2.106,2.0861,2.0777,1.8949,2.0108,2.2988,-3.8197,-3.8112,-3.8288,-3.8597,-3.8964,-3.9024,-3.8509,-3.9155,-3.9204,-3.7843,-3.8411,-3.871,-3.8062,-3.8237,-3.8578,-3.8971,-3.9326,-3.9504,-3.9414,-3.9508,-3.9675,-3.9876,-4.0145,-4.0366,-4.0548,-4.0566,-4.0544,-4.0544,-4.0272,-4.0113,-4.0096,-4.0068,-4.0072,-4.0104,-4.0104,-4.0057,-4.0021,-4.0364,-4.0469,-4.043,-4.0747,-4.0897,-4.0898,-4.0897,-4.0324,-3.9658,-4.0627,-4.0307,-3.9447,-3.9726,-3.9504,-3.8848,-3.7215,-3.6516,-3.6074,-3.5108,-3.488,-3.5021,-3.5325,-3.5609,-3.5841,-3.5908,-3.5923,-3.5923,-3.5988,-3.548,-3.4928,-3.4597,-3.3936,-3.3667,-3.4361,-3.3489,-3.3023,-3.4082,-3.3234,-3.2107,-3.1161,-2.4208,-1.7653,-1.3449,-1.2546,-0.8259,0.2085,-0.0,-0.1133,0.1044,0.4837,0.5152,0.0761,0.5585,0.7721,0.6105,0.681,0.7552,0.8281,0.8544,0.8882,0.93,1.0005,1.194,1.4828,1.509,1.527,1.5509,1.7581,1.789,1.6967,1.9793,2.1808,2.3094,2.3296,2.3391,2.3666,2.5493,2.6275,2.6907,-4.0866,-4.0842,-4.0854,-4.0781,-4.0836,-4.0742,-4.0157,-4.048,-4.0554,-3.9912,-4.0259,-4.0306,-3.9573,-3.9713,-3.9724,-3.9383,-4.019,-4.0417,-3.9714,-3.9903,-4.013,-4.0377,-4.0354,-4.0355,-4.0385,-4.0315,-4.025,-4.0243,-3.9884,-3.9718,-3.9658,-3.9567,-3.9517,-3.9517,-3.9452,-3.9188,-3.8786,-3.9013,-3.8793,-3.8347,-3.8623,-3.8812,-3.8897,-3.8708,-3.8576,-3.8511,-3.8773,-3.8661,-3.8415,-3.8373,-3.7938,-3.7274,-3.6269,-3.5571,-3.5011,-3.4502,-3.4584,-3.492,-3.5213,-3.5435,-3.5618,-3.5767,-3.5814,-3.5852,-3.5899,-3.5185,-3.4642,-3.5059,-3.4148,-3.3507,-3.4313,-3.3384,-3.275,-3.3477,-3.2516,-3.1558,-3.13,-2.5945,-2.2212,-2.267,-1.3418,-0.7171,-0.7466,-0.6036,-0.241,0.4157,0.6005,0.6722,0.6386,0.9642,1.0926,0.9661,0.841,0.8009,0.8679,0.9438,1.009,1.0719,1.1477,1.3233,1.5828,1.6199,1.7199,1.8683,1.9937,2.0687,2.1192,2.2626,2.4047,2.5329,2.4861,2.4732,2.485,2.5431,2.6714,2.8395,-4.3305,-4.3336,-4.323,-4.2856,-4.2771,-4.2546,-4.1849,-4.1952,-4.2038,-4.1831,-4.2029,-4.1946,-4.1276,-4.1333,-4.1144,-4.0482,-4.1074,-4.1121,-4.0223,-4.0157,-4.0285,-4.0656,-4.0389,-4.0175,-4.0096,-3.9849,-3.97,-3.97,-3.934,-3.9163,-3.9156,-3.8933,-3.8815,-3.8815,-3.8725,-3.8255,-3.752,-3.7665,-3.7213,-3.6413,-3.6604,-3.685,-3.7069,-3.6644,-3.692,-3.7486,-3.7048,-3.7097,-3.7366,-3.7321,-3.6715,-3.5931,-3.5588,-3.4829,-3.4009,-3.3734,-3.3913,-3.4285,-3.4904,-3.5105,-3.5115,-3.5142,-3.5104,-3.5033,-3.4901,-3.4347,-3.3989,-3.4447,-3.3866,-3.3406,-3.3914,-3.3228,-3.2785,-3.3483,-3.2503,-3.1736,-3.201,-2.8455,-2.7033,-3.0354,-1.6186,-0.9071,-1.6451,-0.9308,-0.1265,0.5811,0.9058,1.1402,1.2946,1.4501,1.4506,1.2599,1.0506,0.948,0.9619,1.0353,1.0969,1.1555,1.2465,1.4104,1.6403,1.7368,1.8944,2.1056,2.2239,2.3527,2.4833,2.5448,2.6485,2.7471,2.643,2.6133,2.6077,2.4965,2.6532,2.9069,-4.4916,-4.4919,-4.4978,-4.5127,-4.524,-4.5017,-4.4083,-4.4802,-4.478,-4.2937,-4.3477,-4.3652,-4.2741,-4.2712,-4.2783,-4.2838,-4.197,-4.1361,-4.1284,-4.025,-3.982,-4.0233,-4.011,-3.9924,-3.9738,-3.9166,-3.8854,-3.8801,-3.8559,-3.8428,-3.8368,-3.83,-3.8249,-3.8249,-3.8201,-3.7718,-3.6948,-3.7106,-3.6711,-3.6049,-3.6049,-3.6359,-3.6765,-3.6117,-3.6515,-3.7334,-3.6748,-3.6877,-3.7305,-3.7296,-3.7247,-3.6964,-3.5777,-3.4996,-3.4316,-3.3088,-3.2342,-3.2337,-3.4213,-3.452,-3.4161,-3.3593,-3.3204,-3.2773,-3.2216,-3.2482,-3.2402,-3.0855,-3.19,-3.2937,-3.2375,-3.2376,-3.3072,-3.509,-3.4536,-3.3884,-3.3981,-3.067,-2.7494,-2.5431,-2.1118,-1.6961,-1.3535,-0.0803,0.6243,0.368,1.7162,2.283,1.6578,1.8659,1.7677,1.2491,1.3732,1.3737,1.2226,1.2336,1.2654,1.3028,1.3519,1.494,1.7227,1.9629,2.0858,2.1236,2.5828,2.6758,2.5245,2.7774,2.8739,2.8661,2.8417,2.8417,2.8441,2.7324,2.8186,2.9761,-4.5491,-4.5507,-4.5545,-4.5536,-4.562,-4.5572,-4.5142,-4.5445,-4.5475,-4.4768,-4.4903,-4.468,-4.3713,-4.3634,-4.3258,-4.2264,-4.2085,-4.1546,-4.0423,-4.0196,-3.9909,-3.9535,-3.9427,-3.925,-3.8976,-3.8659,-3.8475,-3.8444,-3.8231,-3.8119,-3.8104,-3.805,-3.8013,-3.8013,-3.7948,-3.747,-3.6654,-3.5832,-3.5335,-3.4994,-3.3573,-3.3583,-3.432,-3.3255,-3.3287,-3.3827,-3.3283,-3.3335,-3.3612,-3.3318,-3.3231,-3.3108,-3.253,-3.2359,-3.232,-3.2085,-3.1872,-3.1931,-3.2644,-3.2915,-3.2879,-3.2634,-3.2183,-3.1753,-3.1361,-3.1479,-3.163,-3.1655,-3.2619,-3.3449,-3.3413,-3.3399,-3.3712,-3.4699,-3.4013,-3.3633,-3.4395,-3.2037,-3.038,-3.0801,-2.581,-2.2212,-2.1953,-1.4417,-0.8409,-0.5677,0.8762,1.5774,1.2009,1.9017,2.1612,1.8383,2.0389,1.8954,1.371,1.3748,1.4595,1.6144,1.5404,1.7098,2.1042,2.1691,2.3792,2.7013,2.8948,2.9378,2.8691,2.9524,2.9747,2.9623,2.9387,2.9925,3.0719,3.0367,3.1102,3.2332,-4.582,-4.5862,-4.5879,-4.5765,-4.583,-4.5852,-4.5708,-4.5743,-4.5781,-4.5763,-4.5457,-4.5055,-4.4651,-4.4031,-4.3278,-4.2401,-4.1947,-4.1181,-3.9958,-3.9721,-3.9432,-3.8933,-3.8875,-3.8692,-3.8332,-3.8171,-3.8088,-3.8088,-3.7933,-3.781,-3.7721,-3.765,-3.756,-3.7451,-3.7358,-3.6869,-3.6111,-3.5064,-3.4525,-3.4219,-3.2509,-3.2458,-3.3231,-3.2021,-3.1978,-3.2486,-3.1507,-3.1418,-3.1589,-3.0909,-3.0641,-3.0641,-3.0561,-3.0508,-3.0526,-3.0623,-3.0705,-3.0775,-3.0639,-3.0869,-3.1133,-3.1341,-3.1064,-3.053,-2.9887,-3.0523,-3.1268,-3.1333,-3.2877,-3.4141,-3.3958,-3.4204,-3.4543,-3.4732,-3.3658,-3.3083,-3.393,-3.2135,-3.1206,-3.2523,-2.8598,-2.6507,-2.845,-2.2426,-1.6469,-1.1791,0.2306,1.1437,1.3182,2.1717,2.5654,2.3622,2.5127,2.3191,1.7471,1.6528,1.6763,1.828,1.7633,1.9097,2.2517,2.3792,2.6387,2.9964,3.0793,3.1115,3.1058,3.0911,3.0733,3.0629,3.0822,3.1339,3.1925,3.2106,3.2671,3.3466,-4.6069,-4.6094,-4.6105,-4.6105,-4.6108,-4.6053,-4.5913,-4.5948,-4.5909,-4.5706,-4.4926,-4.4732,-4.5596,-4.3834,-4.2943,-4.3809,-4.1632,-4.0169,-4.0186,-3.8802,-3.8153,-3.8496,-3.8504,-3.8346,-3.8018,-3.7721,-3.7594,-3.7577,-3.7594,-3.7429,-3.7091,-3.7009,-3.6829,-3.6502,-3.6343,-3.5881,-3.5174,-3.5081,-3.4528,-3.3786,-3.3391,-3.3616,-3.408,-3.3093,-3.3412,-3.4154,-3.2272,-3.187,-3.2116,-3.1035,-3.0609,-3.0497,-3.0576,-3.0029,-2.9276,-2.8774,-2.8587,-2.8587,-2.8365,-2.8444,-2.8775,-2.9674,-2.961,-2.8885,-2.7329,-2.9539,-3.1268,-2.9049,-3.218,-3.4868,-3.3552,-3.4486,-3.5488,-3.5473,-3.3859,-3.2582,-3.2561,-3.0782,-2.9196,-2.8378,-2.9052,-2.998,-3.096,-2.052,-1.3446,-1.2924,0.0587,1.2925,2.2372,2.783,2.9568,2.7226,2.7013,2.6083,2.4259,2.102,1.9373,1.9234,2.0195,2.0638,2.0843,2.5973,2.8427,2.8759,3.1135,3.1931,3.1736,3.1987,3.1931,3.1819,3.2855,3.2672,3.1788,3.2104,3.251,3.2772,-4.5976,-4.5992,-4.5966,-4.5781,-4.5898,-4.567,-4.4655,-4.4589,-4.4305,-4.331,-4.3561,-4.3943,-4.4204,-4.3632,-4.3076,-4.2651,-4.0833,-3.9456,-3.8852,-3.7584,-3.7457,-3.8784,-3.8133,-3.7614,-3.7299,-3.6575,-3.6465,-3.7031,-3.6337,-3.6224,-3.669,-3.655,-3.6468,-3.6343,-3.6301,-3.6156,-3.5924,-3.5015,-3.4922,-3.5174,-3.3348,-3.3204,-3.3844,-3.2814,-3.261,-3.2748,-3.1439,-3.096,-3.0774,-2.9624,-2.9047,-2.8806,-2.8834,-2.8663,-2.8663,-2.9605,-2.9142,-2.8532,-2.9324,-2.8798,-2.8128,-2.8553,-2.8133,-2.7493,-2.6907,-2.8677,-3.0253,-2.9605,-3.2033,-3.4289,-3.4236,-3.4386,-3.4081,-3.2757,-3.1983,-3.0928,-2.9201,-2.8768,-2.8313,-2.7286,-2.7722,-2.7992,-2.7621,-2.3128,-2.0304,-2.0482,-0.7433,0.67,2.0813,2.4214,2.7036,2.9888,2.9737,2.9658,2.9664,2.3406,2.1509,2.3959,2.2317,2.3874,2.8334,2.9098,3.0825,3.3177,3.3478,3.3459,3.3182,3.3135,3.3082,3.3045,3.3113,3.3811,3.4806,3.4858,3.5292,3.5959,-4.5495,-4.5269,-4.5153,-4.5274,-4.5402,-4.5293,-4.4741,-4.4696,-4.4452,-4.3675,-4.3159,-4.3014,-4.3355,-4.1994,-4.0977,-4.0778,-3.9367,-3.8438,-3.8419,-3.7343,-3.7227,-3.8328,-3.7698,-3.717,-3.6844,-3.6341,-3.6127,-3.6294,-3.5693,-3.5702,-3.6343,-3.5953,-3.5847,-3.6002,-3.5915,-3.5915,-3.5827,-3.4955,-3.4988,-3.5407,-3.3804,-3.3601,-3.4137,-3.3323,-3.3061,-3.2955,-3.1758,-3.0925,-3.0259,-2.9142,-2.83,-2.7723,-2.8026,-2.7842,-2.7696,-2.9024,-2.8898,-2.8607,-2.9681,-2.8933,-2.7841,-2.7868,-2.7803,-2.7639,-2.7161,-2.8613,-3.0124,-3.0261,-3.1777,-3.3161,-3.3243,-3.2983,-3.2177,-3.0359,-2.9312,-2.8169,-2.6667,-2.594,-2.5316,-2.4655,-2.473,-2.4728,-2.439,-2.2221,-1.939,-1.5935,-0.4426,0.7577,1.945,2.4331,2.8183,3.1276,3.155,3.1655,3.157,2.6415,2.5162,2.775,2.5897,2.7429,3.1838,3.2158,3.3396,3.5256,3.4977,3.4688,3.4333,3.4333,3.449,3.4697,3.4863,3.5572,3.6549,3.7345,3.7593,3.7661,-4.4662,-4.4148,-4.3914,-4.4474,-4.4554,-4.4685,-4.5179,-4.5202,-4.5144,-4.5113,-4.3016,-4.1864,-4.2761,-3.9658,-3.7882,-3.8743,-3.768,-3.7448,-3.8638,-3.7654,-3.7126,-3.7401,-3.6987,-3.6584,-3.6231,-3.6452,-3.6195,-3.5464,-3.5366,-3.5523,-3.5868,-3.5202,-3.5071,-3.5321,-3.5105,-3.5105,-3.5135,-3.4787,-3.4691,-3.4787,-3.4382,-3.4382,-3.4546,-3.4184,-3.4101,-3.4018,-3.2725,-3.1528,-3.0425,-2.9386,-2.8247,-2.7351,-2.8076,-2.7564,-2.6867,-2.7973,-2.8387,-2.8666,-2.9662,-2.8856,-2.7657,-2.7565,-2.816,-2.8505,-2.772,-2.9012,-3.0435,-3.0543,-3.1079,-3.1315,-3.0715,-3.03,-2.9505,-2.7802,-2.5856,-2.4488,-2.4191,-2.2422,-2.1037,-2.0681,-2.0475,-2.0484,-2.0772,-1.8184,-1.2862,-0.4106,0.4923,1.2449,1.7944,2.6132,3.0924,3.1572,3.2536,3.2469,3.1258,2.9878,2.9667,3.0523,3.0117,3.0864,3.269,3.4837,3.5821,3.5788,3.5899,3.5745,3.5385,3.5753,3.6138,3.6559,3.751,3.7562,3.7366,3.9407,3.9287,3.831,-4.3455,-4.3312,-4.3182,-4.305,-4.3079,-4.2688,-4.1311,-4.1089,-4.0725,-3.9743,-3.9454,-3.9799,-4.0962,-3.9892,-3.9284,-3.9693,-3.8407,-3.7916,-3.8632,-3.6657,-3.6022,-3.7254,-3.4774,-3.3299,-3.3215,-3.4076,-3.4726,-3.5214,-3.4484,-3.4171,-3.4203,-3.4067,-3.3659,-3.3115,-3.3022,-3.3472,-3.4301,-3.4202,-3.4152,-3.4185,-3.3869,-3.3818,-3.3818,-3.3646,-3.3475,-3.3303,-3.247,-3.183,-3.1187,-2.9997,-2.9421,-2.9219,-2.9192,-2.9052,-2.9101,-3.0288,-2.9893,-2.938,-3.0497,-2.9018,-2.7059,-2.7072,-2.6817,-2.6622,-2.6872,-2.8468,-2.9454,-2.761,-2.7905,-2.7922,-2.6135,-2.5543,-2.463,-2.2564,-2.1787,-2.0535,-1.8041,-1.8811,-1.8569,-1.5713,-1.6429,-1.6302,-1.3982,-1.061,-0.7409,-0.451,0.1284,0.766,1.4351,2.0129,2.5777,3.1346,3.2801,3.362,3.3952,3.2813,3.1771,3.0825,3.0467,3.2193,3.5721,3.5988,3.6813,3.7972,3.7448,3.729,3.7408,3.7635,3.7796,3.7911,3.8103,3.8238,3.8508,3.9892,3.9895,3.9257,-4.2178,-4.1836,-4.1689,-4.1929,-4.2013,-4.1886,-4.1245,-4.0851,-4.0559,-4.0238,-3.9408,-3.9131,-3.9761,-3.9105,-3.8442,-3.81,-3.7368,-3.6986,-3.7217,-3.578,-3.5095,-3.5477,-3.3652,-3.2152,-3.1182,-3.2166,-3.2852,-3.3114,-3.263,-3.2608,-3.2901,-3.2551,-3.2361,-3.2244,-3.2064,-3.2304,-3.2764,-3.2305,-3.2097,-3.1925,-3.1434,-3.1177,-3.1106,-3.0979,-3.0863,-3.0748,-3.047,-2.9472,-2.8148,-2.7013,-2.6105,-2.5573,-2.6,-2.6211,-2.6422,-2.7561,-2.8018,-2.8282,-2.9288,-2.7902,-2.609,-2.5965,-2.5241,-2.4934,-2.6052,-2.7152,-2.7766,-2.7089,-2.6312,-2.5308,-2.404,-2.2902,-2.1506,-1.9497,-1.8638,-1.7635,-1.5783,-1.5945,-1.5491,-1.3314,-1.3508,-1.2445,-0.9025,-0.6277,-0.3522,-0.0685,0.3511,0.8386,1.3997,1.9106,2.4116,2.9045,3.0665,3.2187,3.3689,3.3422,3.2882,3.2096,3.2438,3.4208,3.7181,3.7046,3.7563,3.8502,3.8304,3.8246,3.8301,3.8501,3.8782,3.9071,3.9026,3.927,3.9797,4.1306,4.1647,4.1203,-4.1153,-4.0538,-4.0329,-4.0961,-4.1024,-4.1223,-4.1796,-4.1216,-4.1035,-4.1857,-3.9884,-3.8544,-3.886,-3.8035,-3.7186,-3.6455,-3.6372,-3.6252,-3.6044,-3.5186,-3.4301,-3.3498,-3.2765,-3.1562,-2.9883,-3.0618,-3.103,-3.1013,-3.1013,-3.1227,-3.174,-3.1103,-3.1007,-3.1397,-3.1062,-3.0945,-3.0864,-3.0111,-2.9546,-2.9199,-2.8552,-2.815,-2.7835,-2.7733,-2.7536,-2.7457,-2.7533,-2.6289,-2.4435,-2.3507,-2.2282,-2.1326,-2.2386,-2.286,-2.3223,-2.413,-2.5566,-2.6969,-2.7538,-2.6489,-2.5187,-2.4861,-2.4026,-2.3595,-2.4962,-2.5497,-2.5883,-2.6313,-2.4784,-2.2947,-2.1747,-2.0398,-1.8846,-1.7067,-1.5896,-1.5031,-1.4576,-1.3272,-1.217,-1.1563,-1.0601,-0.8575,-0.4898,-0.3011,-0.0232,0.4232,0.7535,1.1076,1.4819,1.9725,2.3596,2.6093,2.811,3.0038,3.1962,3.2869,3.338,3.3512,3.4489,3.5837,3.7492,3.7699,3.8035,3.8454,3.8856,3.8948,3.8867,3.9091,3.9502,3.9994,3.9945,4.0193,4.077,4.2465,4.3188,4.3071,-4.1119,-4.088,-4.0617,-3.9715,-3.9594,-3.9462,-3.9054,-3.8018,-3.7678,-3.8819,-3.71,-3.6283,-3.7816,-3.7564,-3.7519,-3.8017,-3.8066,-3.7954,-3.7802,-3.5535,-3.3964,-3.3493,-3.1169,-2.9691,-2.9197,-2.9341,-3.0063,-3.1296,-3.1296,-3.0997,-3.0398,-3.028,-2.9651,-2.872,-2.8657,-2.8579,-2.8552,-2.8417,-2.7991,-2.7422,-2.6996,-2.6331,-2.5712,-2.5407,-2.4989,-2.4386,-2.4372,-2.4026,-2.3652,-2.3511,-2.3299,-2.318,-2.3546,-2.426,-2.5063,-2.5362,-2.6291,-2.7222,-2.7129,-2.612,-2.5049,-2.4838,-2.3921,-2.2996,-2.29,-2.4054,-2.4279,-2.1335,-2.1097,-2.0128,-1.5613,-1.5281,-1.5098,-1.355,-1.2858,-1.2184,-1.1279,-1.0082,-0.8949,-0.8031,-0.619,-0.3872,-0.0774,0.1159,0.3473,0.6492,0.942,1.2249,1.4927,1.8653,2.1684,2.395,2.7446,2.9467,2.991,3.1939,3.3282,3.3929,3.4472,3.5418,3.6674,3.7171,3.7975,3.9013,3.9357,3.9613,3.9851,4.0161,4.0341,4.0427,4.048,4.0433,4.0455,4.1465,4.249,4.3235,-3.9817,-3.9543,-3.9439,-3.9061,-3.8805,-3.8309,-3.7391,-3.6885,-3.6603,-3.6832,-3.6283,-3.5941,-3.6032,-3.4988,-3.4739,-3.5916,-3.5993,-3.5539,-3.445,-3.3542,-3.2187,-3.0224,-2.8917,-2.7983,-2.7672,-2.7661,-2.8016,-2.8645,-2.9397,-2.9487,-2.8851,-2.8851,-2.8494,-2.7782,-2.7717,-2.7557,-2.723,-2.668,-2.6075,-2.5447,-2.4769,-2.4172,-2.3655,-2.3401,-2.2783,-2.1949,-2.0615,-1.9879,-1.941,-1.9053,-1.8743,-1.85,-1.8848,-2.0252,-2.1818,-2.1903,-2.3313,-2.4815,-2.4518,-2.3895,-2.3114,-2.2722,-2.2027,-2.1405,-2.1098,-2.1343,-2.1493,-2.0967,-2.0555,-1.9627,-1.7234,-1.5873,-1.4774,-1.3896,-1.2311,-1.0864,-0.9959,-0.8528,-0.6472,-0.3696,-0.2422,-0.0235,0.3675,0.4975,0.6606,0.8916,1.0913,1.3114,1.5605,1.7794,2.0666,2.4483,2.676,2.8728,3.0471,3.231,3.3508,3.407,3.49,3.582,3.6794,3.7298,3.8055,3.8963,3.9373,3.9661,3.9863,4.0062,4.0208,4.0277,4.0356,4.0731,4.1298,4.1593,4.2186,4.2767]},{"header":{"parameterUnit":"m.s-1","parameterCategory":1,"la1":30.6,"la2":28.766,"lo1":-90.7593,"lo2":-88.6598,"dy":0.0162,"dx":0.0183,"nx":116,"ny":114,"refTime":"2023-10-04T12:00:00:Z","depth":0,"parameterNumber":3,"parameterNumberName":"V-component_of_WINDS"},"data":[0.0,0.0,0.0,0.0,0.0,0.0,0.0,0.0,0.0,0.0,0.0,0.0,0.0,0.0,0.0,0.0,0.0,0.0,0.0,0.0,0.0,0.0,0.0,0.0,0.0,0.0,0.0,0.0,0.0,0.0,0.0,0.0,0.0,0.0,0.0,0.0,0.0,0.0,0.0,0.0,0.0,0.0,0.0,0.0,0.0,0.0,0.0,0.0,0.0,0.0,0.0,0.0,0.0,0.0,0.0,0.0,0.0,0.0,0.0,0.0,0.0,0.0,0.0,0.0,0.0,0.0,0.0,0.0,0.0,0.0,0.0,0.0,0.0,0.0,0.0,0.0,0.0,0.0,0.0,0.0,0.0,0.0,0.0,0.0,0.0,0.0,0.0,0.0,0.0,0.0,0.0,0.0,0.0,0.0,0.0,0.0,0.0,0.0,0.0,0.0,0.0,0.0,0.0,0.0,0.0,0.0,0.0,0.0,0.0,0.0,0.0,0.0,0.0,0.0,0.0,0.0,0.0,0.0,0.0,0.0,0.0,0.0,0.0,0.0,0.0,0.0,0.0,0.0,0.0,0.0,0.0,0.0,0.0,0.0,0.0,0.0,0.0,0.0,0.0,0.0,0.0,0.0,0.0,0.0,0.0,0.0,0.0,0.0,0.0,0.0,0.0,0.0,0.0,0.0,0.0,0.0,0.0,0.0,0.0,0.0,0.0,0.0,0.0,0.0,0.0,0.0,0.0,0.0,0.0,0.0,0.0,0.0,0.0,0.0,0.0,0.0,0.0,0.0,0.0,0.0,0.0,0.0,0.0,0.0,0.0,0.0,0.0,0.0,0.0,0.0,0.0,0.0,0.0,0.0,0.0,0.0,0.0,0.0,0.0,0.0,0.0,0.0,0.0,0.0,0.0,0.0,0.0,0.0,0.0,0.0,0.0,0.0,0.0,0.0,0.0,0.0,0.0,0.0,0.0,0.0,0.0,0.0,0.0,0.0,0.0,0.0,0.0,0.0,0.0,0.0,0.0,0.0,0.0,0.0,0.0,0.0,0.0,0.0,0.0,0.0,0.0,0.0,0.0,0.0,0.0,0.0,0.0,0.0,0.0,0.0,0.0,0.0,0.0,0.0,0.0,0.0,0.0,0.0,0.0,0.0,0.0,0.0,0.0,0.0,0.0,0.0,0.0,0.0,0.0,0.0,0.0,0.0,0.0,0.0,0.0,0.0,0.0,0.0,0.0,0.0,0.0,0.0,0.0,0.0,0.0,0.0,0.0,0.0,0.0,0.0,0.0,0.0,0.0,0.0,0.0,0.0,0.0,0.0,0.0,0.0,0.0,0.0,0.0,0.0,0.0,0.0,0.0,0.0,0.0,0.0,0.0,0.0,0.0,0.0,0.0,0.0,0.0,0.0,0.0,0.0,0.0,0.0,0.0,0.0,0.0,0.0,0.0,0.0,0.0,0.0,0.0,0.0,0.0,0.0,0.0,0.0,0.0,0.0,0.0,0.0,0.0,0.0,0.0,0.0,0.0,0.0,0.0,0.0,0.0,0.0,0.0,0.0,0.0,0.0,0.0,0.0,0.0,0.0,0.0,0.0,0.0,0.0,0.0,0.0,0.0,0.0,0.0,0.0,0.0,0.0,0.0,0.0,0.0,0.0,0.0,0.0,0.0,0.0,0.0,0.0,0.0,0.0,0.0,0.0,0.0,0.0,0.0,0.0,0.0,0.0,0.0,0.0,0.0,0.0,0.0,0.0,0.0,0.0,0.0,0.0,0.0,0.0,0.0,0.0,0.0,0.0,0.0,0.0,0.0,0.0,0.0,0.0,0.0,0.0,0.0,0.0,0.0,0.0,0.0,0.0,0.0,0.0,0.0,0.0,0.0,0.0,0.0,0.0,0.0,0.0,0.0,0.0,0.0,0.0,0.0,0.0,0.0,0.0,0.0,0.0,0.0,0.0,0.0,0.0,0.0,0.0,0.0,0.0,0.0,0.0,0.0,0.0,0.0,0.0,0.0,0.0,0.0,0.0,0.0,0.0,0.0,0.0,0.0,0.0,0.0,0.0,0.0,0.0,0.0,0.0,0.0,0.0,0.0,0.0,0.0,0.0,0.0,0.0,0.0,0.0,0.0,0.0,0.0,0.0,0.0,0.0,0.0,0.0,0.0,0.0,0.0,0.0,0.0,0.0,0.0,0.0,0.0,0.0,0.0,0.0,0.0,0.0,0.0,0.0,0.0,0.0,0.0,0.0,0.0,0.0,0.0,0.0,0.0,0.0,0.0,0.0,0.0,0.0,0.0,0.0,0.0,0.0,0.0,0.0,0.0,0.0,0.0,0.0,0.0,0.0,0.0,0.0,0.0,0.0,0.0,0.0,0.0,0.0,0.0,0.0,0.0,0.0,0.0,0.0,0.0,0.0,0.0,0.0,0.0,0.0,0.0,0.0,0.0,0.0,0.0,0.0,0.0,0.0,0.0,0.0,0.0,0.0,0.0,0.0,0.0,0.0,0.0,0.0,0.0,0.0,0.0,0.0,0.0,0.0,0.0,0.0,0.0,0.0,0.0,0.0,0.0,0.0,0.0,0.0,0.0,0.0,0.0,0.0,0.0,0.0,0.0,0.0,0.0,0.0,0.0,0.0,0.0,0.0,0.0,0.0,0.0,0.0,0.0,0.0,0.0,0.0,0.0,0.0,0.0,0.0,0.0,0.0,0.0,0.0,0.0,0.0,0.0,0.0,0.0,0.0,0.0,0.0,0.0,0.0,0.0,0.0,0.0,0.0,0.0,0.0,0.0,0.0,0.0,0.0,0.0,0.0,0.0,0.0,0.0,0.0,0.0,0.0,0.0,0.0,0.0,0.0,0.0,0.0,0.0,0.0,0.0,0.0,0.0,0.0,0.0,0.0,0.0,0.0,0.0,0.0,0.0,0.0,0.0,0.0,0.0,0.0,0.0,0.0,0.0,0.0,0.0,0.0,0.0,0.0,0.0,0.0,0.0,0.0,0.0,0.0,0.0,0.0,0.0,0.0,0.0,0.0,0.0,0.0,0.0,0.0,0.0,0.0,0.0,0.0,0.0,0.0,0.0,0.0,0.0,0.0,0.0,0.0,0.0,0.0,0.0,0.0,0.0,0.0,0.0,0.0,0.0,0.0,0.0,0.0,0.0,0.0,0.0,0.0,0.0,0.0,0.0,0.0,0.0,0.0,0.0,0.0,0.0,0.0,0.0,0.0,0.0,0.0,0.0,0.0,0.0,0.0,0.0,0.0,0.0,0.0,0.0,0.0,0.0,0.0,0.0,0.0,0.0,0.0,0.0,0.0,0.0,0.0,0.0,0.0,0.0,0.0,0.0,0.0,0.0,0.0,0.0,0.0,0.0,0.0,0.0,0.0,0.0,0.0,0.0,0.0,0.0,0.0,0.0,0.0,0.0,0.0,0.0,0.0,0.0,0.0,0.0,0.0,0.0,0.0,0.0,0.0,0.0,0.0,0.0,0.0,0.0,0.0,0.0,0.0,0.0,0.0,0.0,0.0,0.0,0.0,0.0,0.0,0.0,0.0,0.0,0.0,0.0,0.0,0.0,0.0,0.0,0.0,0.0,0.0,0.0,0.0,0.0,0.0,0.0,0.0,0.0,0.0,0.0,0.0,0.0,0.0,0.0,0.0,0.0,0.0,0.0,0.0,0.0,0.0,0.0,0.0,0.0,0.0,0.0,0.0,0.0,0.0,0.0,0.0,0.0,0.0,0.0,0.0,0.0,0.0,0.0,0.0,0.0,0.0,0.0,0.0,0.0,0.0,0.0,0.0,0.0,0.0,0.0,0.0,0.0,0.0,0.0,0.0,0.0,0.0,0.0,0.0,0.0,0.0,0.0,0.0,0.0,0.0,0.0,0.0,0.0,0.0,0.0,0.0,0.0,0.0,0.0,0.0,0.0,0.0,0.0,0.0,0.0,0.0,0.0,0.0,0.0,0.0,0.0,0.0,0.0,0.0,0.0,0.0,0.0,0.0,0.0,0.0,0.0,0.0,0.0,0.0,0.0,0.0,0.0,0.0,0.0,0.0,0.0,0.0,0.0,0.0,0.0,0.0,0.0,0.0,0.0,0.0,0.0,0.0,0.0,0.0,0.0,0.0,0.0,0.0,0.0,0.0,0.0,0.0,0.0,0.0,0.0,0.0,0.0,0.0,0.0,0.0,0.0,0.0,0.0,0.0,0.0,0.0,0.0,0.0,0.0,0.0,0.0,0.0,0.0,0.0,0.0,0.0,0.0,0.0,0.0,0.0,0.0,0.0,0.0,0.0,0.0,0.0,0.0,0.0,0.0,0.0,0.0,0.0,0.0,0.0,0.0,0.0,0.0,0.0,0.0,0.0,0.0,0.0,0.0,0.0,0.0,0.0,0.0,0.0,0.0,0.0,0.0,0.0,0.0,0.0,0.0,0.0,0.0,0.0,0.0,0.0,0.0,0.0,0.0,0.0,0.0,0.0,0.0,0.0,0.0,0.0,0.0,0.0,0.0,0.0,0.0,0.0,0.0,0.0,0.0,0.0,0.0,0.0,0.0,0.0,0.0,0.0,0.0,0.0,0.0,0.0,0.0,0.0,0.0,0.0,0.0,0.0,0.0,0.0,0.0,0.0,0.0,0.0,0.0,0.0,0.0,0.0,0.0,0.0,0.0,0.0,0.0,0.0,0.0,0.0,0.0,0.0,0.0,0.0,0.0,0.0,0.0,0.0,0.0,0.0,0.0,0.0,0.0,0.0,0.0,0.0,0.0,0.0,0.0,0.0,0.0,0.0,0.0,0.0,0.0,0.0,0.0,0.0,0.0,0.0,0.0,0.0,0.0,0.0,0.0,0.0,0.0,0.0,0.0,0.0,0.0,0.0,0.0,0.0,0.0,0.0,0.0,0.0,0.0,0.0,0.0,0.0,0.0,0.0,0.0,0.0,0.0,0.0,0.0,0.0,0.0,0.0,0.0,0.0,0.0,0.0,0.0,0.0,0.0,0.0,0.0,0.0,0.0,0.0,0.0,0.0,0.0,0.0,0.0,0.0,0.0,0.0,0.0,0.0,0.0,0.0,0.0,0.0,0.0,0.0,0.0,0.0,0.0,0.0,0.0,0.0,0.0,0.0,0.0,0.0,0.0,0.0,0.0,0.0,0.0,0.0,0.0,0.0,0.0,0.0,0.0,0.0,0.0,0.0,0.0,0.0,0.0,0.0,0.0,0.0,0.0,0.0,0.0,0.0,0.0,0.0,0.0,0.0,0.0,0.0,0.0,0.0,0.0,0.0,0.0,0.0,0.0,0.0,0.0,0.0,0.0,0.0,0.0,0.0,0.0,0.0,0.0,0.0,0.0,0.0,0.0,0.0,0.0,0.0,0.0,0.0,0.0,0.0,0.0,0.0,0.0,0.0,0.0,0.0,0.0,0.0,0.0,0.0,0.0,0.0,0.0,0.0,0.0,0.0,0.0,0.0,0.0,0.0,0.0,0.0,0.0,0.0,0.0,0.0,0.0,0.0,0.0,0.0,0.0,0.0,0.0,0.0,0.0,0.0,0.0,0.0,0.0,0.0,0.0,0.0,0.0,0.0,0.0,0.0,0.0,0.0,0.0,0.0,0.0,0.0,0.0,0.0,0.0,0.0,0.0,0.0,0.0,0.0,0.0,0.0,0.0,0.0,0.0,0.0,0.0,0.0,0.0,0.0,0.0,0.0,0.0,0.0,0.0,0.0,0.0,0.0,0.0,0.0,0.0,0.0,0.0,0.0,0.0,0.0,0.0,0.0,0.0,0.0,0.0,0.0,0.0,0.0,0.0,0.0,0.0,0.0,0.0,0.0,0.0,0.0,0.0,0.0,0.0,0.0,0.0,0.0,0.0,0.0,0.0,0.0,0.0,0.0,0.0,0.0,0.0,0.0,0.0,0.0,0.0,0.0,0.0,0.0,0.0,0.0,0.0,0.0,0.0,0.0,0.0,0.0,0.0,0.0,0.0,0.0,0.0,0.0,0.0,0.0,0.0,0.0,0.0,0.0,0.0,0.0,0.0,0.0,0.0,0.0,0.0,0.0,0.0,0.0,0.0,0.0,0.0,0.0,0.0,0.0,-2.8293,-2.5447,0.0,0.0,0.0,0.0,0.0,0.0,0.0,0.0,0.0,0.0,0.0,0.0,0.0,0.0,0.0,0.0,0.0,0.0,0.0,0.0,0.0,0.0,0.0,0.0,0.0,0.0,0.0,0.0,0.0,0.0,0.0,0.0,0.0,0.0,0.0,0.0,0.0,0.0,0.0,-1.7367,-1.9477,-1.9876,-1.8525,-1.5791,0.0,0.0,0.0,0.0,0.0,0.0,0.0,0.0,0.0,0.0,0.0,0.0,0.0,0.0,0.0,0.0,0.0,0.0,0.0,0.0,0.0,0.0,0.0,0.0,0.0,0.0,0.0,0.0,0.0,0.0,0.0,0.0,0.0,0.0,0.0,0.0,0.0,0.0,0.0,0.0,0.0,0.0,0.0,0.0,0.0,0.0,0.0,0.0,0.0,0.0,0.0,0.0,0.0,0.0,0.0,0.0,0.0,0.0,0.0,0.0,0.0,0.0,0.0,0.0,0.0,0.0,0.0,0.0,0.0,0.0,-3.3596,-3.0754,0.0,0.0,0.0,0.0,0.0,0.0,0.0,0.0,0.0,0.0,0.0,0.0,0.0,0.0,0.0,0.0,0.0,0.0,0.0,0.0,0.0,0.0,0.0,0.0,0.0,0.0,0.0,0.0,0.0,0.0,0.0,0.0,0.0,0.0,0.0,0.0,0.0,0.0,0.0,0.0,-2.5717,-2.8227,-2.6761,-2.1951,-2.1043,0.0,0.0,0.0,0.0,0.0,0.0,0.0,0.0,0.0,0.0,0.0,0.0,0.0,0.0,0.0,0.0,0.0,0.0,0.0,0.0,0.0,0.0,0.0,0.0,0.0,0.0,0.0,0.0,0.0,0.0,0.0,0.0,0.0,0.0,0.0,0.0,0.0,0.0,0.0,0.0,0.0,0.0,0.0,0.0,0.0,0.0,0.0,0.0,0.0,0.0,0.0,0.0,0.0,0.0,0.0,0.0,0.0,0.0,0.0,0.0,0.0,0.0,0.0,-4.0391,-4.0662,-3.972,-4.1459,-4.2105,-4.1712,-3.9228,-3.7054,-3.5049,-3.1931,0.0,0.0,0.0,0.0,0.0,0.0,0.0,0.0,0.0,0.0,0.0,0.0,0.0,0.0,0.0,0.0,0.0,0.0,0.0,0.0,0.0,-1.6059,-1.6867,-1.7633,-1.7601,-1.7527,0.0,0.0,0.0,0.0,0.0,0.0,0.0,0.0,0.0,0.0,0.0,-2.9886,-3.1885,-3.3746,-3.4182,-3.3233,-2.8797,-2.5885,-2.4219,0.0,0.0,0.0,0.0,0.0,0.0,0.0,0.0,0.0,0.0,0.0,0.0,0.0,0.0,0.0,0.0,0.0,0.0,0.0,0.0,0.0,0.0,0.0,0.0,0.0,0.0,0.0,0.0,0.0,0.0,0.0,0.0,0.0,0.0,0.0,0.0,0.0,0.0,0.0,0.0,0.0,-3.1753,-3.4315,0.0,0.0,0.0,0.0,0.0,0.0,0.0,0.0,0.0,0.0,0.0,0.0,0.0,-3.9587,-4.2036,-4.3779,-4.4994,-4.5688,-4.7478,-4.7486,-4.5974,-4.7666,-4.7661,-4.6402,-4.74,0.0,-3.8678,-3.6772,0.0,0.0,0.0,0.0,0.0,0.0,0.0,0.0,0.0,0.0,0.0,0.0,0.0,0.0,0.0,0.0,0.0,0.0,0.0,0.0,0.0,-1.8904,-2.0129,-2.1038,-2.2021,-2.195,-2.0459,0.0,0.0,0.0,0.0,0.0,0.0,0.0,0.0,0.0,-3.2409,-3.5257,-3.6516,-3.8305,-3.9155,-3.9026,-3.6803,-3.3566,-2.9602,-2.6904,0.0,0.0,0.0,0.0,0.0,0.0,0.0,0.0,0.0,0.0,0.0,0.0,0.0,0.0,0.0,0.0,0.0,0.0,0.0,0.0,0.0,0.0,0.0,0.0,0.0,0.0,0.0,0.0,0.0,0.0,0.0,0.0,0.0,0.0,0.0,0.0,0.0,0.0,0.0,-3.1631,-3.5266,-3.6338,-3.5624,-3.445,0.0,0.0,0.0,0.0,0.0,0.0,0.0,0.0,0.0,-4.2501,-4.3901,-4.5343,-4.6933,-4.8193,-4.8947,-4.9196,-5.0484,-5.0426,-4.9219,-5.0491,-5.0681,-5.0016,-5.0268,-4.8682,-4.5631,-4.2054,-3.8833,-3.5916,0.0,0.0,0.0,0.0,-3.281,-3.3749,0.0,0.0,0.0,0.0,0.0,0.0,0.0,0.0,0.0,0.0,0.0,0.0,-2.0378,-2.2407,-2.4064,-2.5206,-2.6301,-2.6019,-2.3836,-2.2948,0.0,0.0,0.0,0.0,0.0,0.0,0.0,-3.5539,-3.8211,-3.9961,-4.0873,-4.2433,-4.3023,-4.2811,-4.2628,-3.9631,-3.4527,-3.1526,-2.9049,-2.6815,0.0,0.0,0.0,0.0,0.0,0.0,0.0,0.0,0.0,0.0,0.0,0.0,0.0,0.0,0.0,0.0,0.0,0.0,0.0,0.0,0.0,0.0,0.0,0.0,0.0,0.0,0.0,0.0,0.0,0.0,0.0,0.0,0.0,0.0,0.0,0.0,0.0,-3.5931,-3.8947,-3.9544,-3.985,-3.9237,0.0,0.0,0.0,0.0,0.0,0.0,-4.2647,-4.4383,-4.5976,-4.7414,-4.898,-5.0181,-5.0971,-5.1663,-5.2074,-5.2224,-5.2882,-5.273,-5.1848,-5.2752,-5.2942,-5.2514,-5.2086,-5.176,-5.1206,-4.6568,-4.326,-4.0945,-3.9412,-3.8273,-3.7486,-3.7726,-3.8579,-3.9745,0.0,0.0,0.0,0.0,0.0,0.0,0.0,0.0,0.0,0.0,0.0,-2.0376,-2.3765,-2.6432,-2.8633,-3.028,-2.987,-2.9082,-2.8073,-2.5061,-2.2518,-2.0699,0.0,0.0,0.0,0.0,0.0,-3.9984,-4.2601,-4.436,-4.5297,-4.6144,-4.6106,-4.5282,-4.46,-4.2333,-3.8962,-3.7121,-3.4461,-3.1178,-2.7842,0.0,0.0,0.0,0.0,0.0,0.0,0.0,0.0,0.0,0.0,0.0,0.0,0.0,0.0,0.0,0.0,0.0,0.0,0.0,0.0,0.0,0.0,0.0,0.0,0.0,0.0,0.0,0.0,0.0,0.0,0.0,0.0,0.0,0.0,0.0,0.0,0.0,0.0,-4.639,-4.5328,0.0,0.0,0.0,0.0,-4.2724,-4.3703,-4.5307,-4.7874,-4.9614,-5.0964,-5.1939,-5.2802,-5.3642,-5.4445,-5.4622,-5.5036,-5.5748,-5.5855,-5.5443,-5.463,-5.5449,-5.4946,-5.3488,-5.4268,-5.4136,-5.3091,-4.9591,-4.7051,-4.5298,-4.438,-4.3481,-4.2807,-4.3583,-4.3912,-4.4105,0.0,0.0,0.0,0.0,0.0,0.0,0.0,0.0,0.0,-1.7048,-2.0276,-2.3511,-2.6393,-3.0008,-3.2711,-3.392,-3.4301,-3.3644,-3.1708,-2.8988,-2.6456,-2.4169,0.0,0.0,0.0,0.0,-4.0367,-4.3441,-4.561,-4.68,-4.7087,-4.7375,-4.7068,-4.6263,-4.6051,-4.4664,-4.2409,-4.0183,-3.7932,-3.5562,-3.2153,-2.8954,0.0,0.0,0.0,0.0,0.0,0.0,0.0,0.0,0.0,0.0,0.0,0.0,0.0,0.0,0.0,0.0,0.0,0.0,0.0,0.0,0.0,0.0,0.0,0.0,0.0,0.0,0.0,0.0,0.0,0.0,0.0,0.0,0.0,0.0,0.0,0.0,0.0,-4.7863,-4.8464,0.0,-4.7178,-4.6385,-4.677,-4.8806,-4.974,-5.1344,-5.3928,-5.4175,-5.4868,-5.6246,-5.6104,-5.6377,-5.7138,-5.7243,-5.7381,-5.7622,-5.7695,-5.7538,-5.7248,-5.754,-5.7037,-5.5932,-5.5683,-5.5049,-5.4069,-5.2292,-5.0557,-4.8955,-4.8089,-4.7188,-4.6405,-4.6744,-4.7174,-4.7566,0.0,0.0,0.0,0.0,0.0,0.0,0.0,0.0,0.0,-1.8607,-2.2484,-2.6405,-3.0054,-3.3538,-3.6085,-3.7285,-3.7225,-3.616,-3.3904,-3.1467,-2.9101,-2.6837,-2.7687,0.0,0.0,-4.0845,-4.4018,-4.6469,-4.775,-4.8348,-4.8307,-4.8305,-4.7846,-4.7065,-4.7125,-4.6359,-4.4959,-4.3325,-4.1354,-3.9075,-3.5933,-3.281,-2.9746,0.0,0.0,0.0,0.0,0.0,0.0,0.0,0.0,0.0,0.0,0.0,0.0,0.0,0.0,0.0,0.0,0.0,0.0,0.0,0.0,0.0,0.0,0.0,0.0,0.0,0.0,0.0,0.0,0.0,0.0,0.0,0.0,0.0,0.0,0.0,-4.8261,-4.9141,-5.0728,-5.1308,-5.012,-5.048,-5.1488,-5.3222,-5.4168,-5.5499,-5.7487,-5.7119,-5.735,-5.8472,-5.8025,-5.8023,-5.8529,-5.8583,-5.8583,-5.8529,-5.8548,-5.8566,-5.8586,-5.8548,-5.822,-5.7602,-5.6771,-5.6039,-5.5345,-5.4477,-5.3358,-5.2063,-5.1159,-5.0238,-4.9412,-4.9448,-4.9622,-4.974,0.0,0.0,0.0,0.0,0.0,0.0,0.0,-1.4441,-1.6602,-2.0842,-2.4513,-2.8924,-3.4663,-3.692,-3.8689,-4.0346,-3.8384,-3.6377,-3.4682,-3.2291,-3.0227,0.0,0.0,0.0,-4.1271,-4.3947,-4.653,-4.8986,-4.9095,-4.9121,-4.9127,-4.9121,-4.8678,-4.7815,-4.7857,-4.7382,-4.6642,-4.6642,-4.4806,-4.1726,-3.9108,-3.6555,-3.3928,0.0,0.0,0.0,0.0,0.0,0.0,0.0,0.0,0.0,0.0,0.0,0.0,0.0,0.0,0.0,0.0,0.0,0.0,0.0,0.0,0.0,0.0,0.0,0.0,0.0,0.0,0.0,0.0,0.0,0.0,0.0,0.0,0.0,-4.3445,-4.6947,-4.9893,-5.0797,-5.2396,-5.3379,-5.3282,-5.3321,-5.4073,-5.5767,-5.6673,-5.7541,-5.8431,-5.8389,-5.841,-5.8568,-5.8549,-5.8587,-5.8662,-5.8662,-5.8662,-5.8662,-5.8606,-5.8568,-5.8568,-5.851,-5.8429,-5.831,-5.7581,-5.7196,-5.6981,-5.6172,-5.5383,-5.4574,-5.3628,-5.2661,-5.1851,-5.1851,-5.1355,-5.0702,0.0,0.0,0.0,0.0,0.0,0.0,0.0,-1.5382,-1.7879,-2.1061,-2.602,-3.0825,-3.4847,-3.7394,-3.9194,-4.0205,-3.8116,-3.657,-3.6186,-3.3318,-3.1976,0.0,0.0,0.0,-4.2767,-4.6049,-4.8055,-4.8707,-4.941,-4.9765,-4.9746,-4.9765,-4.9327,-4.8596,-4.8651,-4.8197,-4.7392,-4.7499,-4.66,-4.4937,-4.2612,-4.0457,-3.8454,0.0,0.0,0.0,0.0,0.0,0.0,0.0,0.0,0.0,0.0,0.0,0.0,0.0,0.0,0.0,0.0,0.0,0.0,0.0,0.0,0.0,0.0,0.0,0.0,0.0,0.0,0.0,0.0,0.0,0.0,0.0,0.0,-4.8106,-4.8548,-5.1202,-5.3668,-5.5152,-5.5729,-5.5726,-5.507,-5.4949,-5.566,-5.7475,-5.7822,-5.8613,-6.0143,-5.9686,-5.9648,-6.0222,-5.9766,-5.9766,-6.0325,-6.0345,-6.0345,-6.0344,-6.0324,-6.0324,-6.0324,-6.0284,-5.9915,-5.9318,-5.9044,-5.8561,-5.7886,-5.7077,-5.6615,-5.6269,-5.4746,-5.3628,-5.2897,-5.2897,-5.2723,-5.2395,0.0,0.0,0.0,0.0,0.0,0.0,0.0,-1.5783,-1.8589,-2.1884,-2.6854,-3.1602,-3.5595,-3.7735,-3.9087,-3.9527,-3.7701,-3.6258,-3.5676,-3.4221,0.0,0.0,0.0,-4.3441,-4.5466,-4.7912,-4.9311,-4.9644,-4.9822,-5.0142,-5.0589,-5.0176,-4.9784,-4.9403,-4.9415,-4.8938,-4.8157,-4.8228,-4.7777,-4.6904,-4.5611,-4.356,-4.1132,-3.9793,-3.785,-3.5628,-3.4407,-3.3099,-3.172,-3.0022,0.0,0.0,0.0,0.0,0.0,0.0,0.0,0.0,0.0,0.0,0.0,0.0,0.0,0.0,0.0,0.0,0.0,0.0,0.0,0.0,0.0,0.0,0.0,0.0,-4.9199,-5.1964,-5.3603,-5.447,-5.5278,-5.6321,-5.6412,-5.6153,-5.5631,-5.6222,-5.7071,-5.8135,-5.8889,-5.9738,-6.0766,-6.0388,-6.0349,-6.0827,-6.0515,-6.0537,-6.0997,-6.1001,-6.1001,-6.0997,-6.0976,-6.0955,-6.0955,-6.0933,-6.0622,-6.0099,-5.9711,-5.9246,-5.8642,-5.747,-5.697,-5.6854,0.0,0.0,0.0,0.0,-5.3142,-5.3063,0.0,0.0,0.0,0.0,0.0,0.0,0.0,-1.5818,-1.8868,-2.2986,-2.7103,-3.1483,-3.6354,-3.7752,-3.8401,-3.8621,-3.7161,-3.5688,-3.4341,-3.5291,0.0,-4.0672,-4.3398,-4.5914,-4.8267,-4.9239,-5.0128,-5.1026,-5.0175,-5.0298,-5.1304,-5.0377,-5.0005,-5.0057,-5.0031,-4.9613,-4.8897,-4.8941,-4.859,-4.8003,-4.7941,-4.5977,-4.2978,-4.206,-4.0707,-3.9248,-3.834,-3.705,-3.5628,-3.4471,0.0,0.0,0.0,0.0,0.0,0.0,0.0,0.0,0.0,0.0,0.0,0.0,0.0,0.0,0.0,0.0,0.0,0.0,0.0,0.0,0.0,0.0,0.0,0.0,-5.2548,-5.5585,-5.7954,-5.6851,-5.5768,-5.5768,-5.5691,-5.5571,-5.5383,-5.6975,-5.8045,-5.8073,-5.9599,-6.0589,-6.0685,0.0,0.0,0.0,0.0,-6.0933,-6.0976,-6.1,-6.1,-6.0976,-6.0933,-6.0888,-6.0888,-6.0823,-6.0719,-6.0512,-5.9888,-5.9494,-5.916,-5.769,-5.7019,-5.687,-5.613,-5.5303,-5.4425,-5.359,-5.328,-5.3283,0.0,0.0,0.0,0.0,0.0,0.0,0.0,-1.5818,-1.8906,-2.3102,-2.6585,-3.0559,-3.555,-3.6297,-3.696,-3.8259,-3.6424,-3.5367,-3.5828,0.0,-3.947,-4.2032,-4.4736,-4.6725,-4.783,-4.8698,-4.9618,-5.0558,-4.9701,-4.9834,-5.0816,-5.0088,-4.9759,-4.9759,-4.9925,-4.9857,-4.9625,-4.9784,-4.9409,-4.8715,-4.8566,-4.7834,-4.6663,-4.5673,-4.4535,-4.3271,-4.1763,-4.1009,-4.0292,-3.747,-3.6937,-3.6819,-3.3142,0.0,0.0,0.0,0.0,0.0,0.0,0.0,0.0,0.0,0.0,0.0,0.0,0.0,0.0,0.0,0.0,0.0,0.0,0.0,0.0,-5.2656,-5.5576,-5.7742,-5.8847,-5.808,-5.7442,-5.75,-5.6837,-5.6071,-5.5252,-5.6164,-5.7141,-5.7882,-5.8891,-5.9837,-6.0647,-6.0685,-6.0729,-6.08,-6.0869,-6.0911,-6.0933,-6.0914,-6.0914,-6.0933,-6.0846,0.0,-6.0823,-6.08,-6.0368,-5.9594,-6.015,-5.9952,-5.9204,-5.893,-5.8443,-5.768,-5.6168,-5.5455,-5.5278,-5.5082,-5.5025,-5.4929,0.0,0.0,0.0,0.0,0.0,0.0,0.0,-1.5801,-1.8406,-2.1316,-2.4831,-2.8282,-3.1588,-3.2733,-3.3424,-3.3858,-3.3651,-3.428,0.0,-3.8536,-4.1043,-4.3623,-4.5875,-4.763,-4.8839,-4.9299,-5.0238,-5.1607,-5.0666,-5.0773,-5.186,-5.0667,-5.0146,-5.0237,-5.0005,-4.9843,-4.975,-4.9925,-5.0031,-5.0019,-4.9581,-4.948,-4.9439,-4.8052,-4.6847,-4.5798,-4.4976,-4.4171,-4.3077,-4.0632,-3.9892,-3.945,-3.6296,-3.4427,-3.2924,0.0,0.0,0.0,0.0,0.0,0.0,0.0,0.0,0.0,0.0,0.0,0.0,0.0,0.0,-4.2928,0.0,0.0,-5.2116,-5.5542,-5.7143,-5.8253,-5.9082,-5.802,-5.7309,-5.7791,-5.7076,-5.6507,-5.6406,-5.7279,-5.8047,-5.8513,-5.9316,-6.0013,-6.0514,-6.0908,-6.1119,-6.1198,-6.1722,-6.181,-6.1454,-6.1439,-6.1251,-6.0846,-6.0777,-6.0753,-6.0753,-6.068,-6.038,-5.9971,-6.0386,-6.0277,-5.981,-5.9389,-5.8719,-5.7877,-5.7035,-5.6466,-5.6098,-5.561,-5.5456,-5.5399,0.0,0.0,0.0,0.0,0.0,0.0,0.0,0.0,-1.7502,-1.926,-2.2564,-2.54,-2.7138,-2.8699,-2.9543,-2.9295,-3.1016,0.0,0.0,-3.9258,-4.2225,-4.4996,-4.6906,-4.8512,-4.9843,-5.0102,-5.1027,-5.2678,-5.1658,-5.1787,-5.2941,-5.1274,-5.059,-5.0698,-5.0051,-4.975,-4.974,-5.006,-5.0586,-5.1216,-5.0621,-5.0799,-5.1237,-4.9581,-4.823,-4.7164,-4.7057,-4.5923,-4.4241,-4.2621,-4.167,-4.0715,-3.8269,-3.7154,-3.6138,-3.2924,-3.125,0.0,0.0,0.0,0.0,0.0,0.0,0.0,0.0,0.0,-4.1528,-4.2125,-4.4573,-4.7253,-4.9427,-5.1897,-5.456,-5.7461,-5.8099,-5.8453,-5.906,-5.7834,-5.713,-5.7787,-5.7035,-5.6796,-5.7568,-5.8566,-5.9144,-5.9117,-6.0073,-6.0618,-6.0618,-6.1363,-6.1802,-6.1869,-6.2651,-6.2789,-6.2215,-6.2054,-6.1637,-6.1007,-6.0762,-6.066,-6.068,-6.0578,-6.043,-6.0284,-6.025,-6.0319,-6.0387,-5.9671,-5.892,-5.8273,-5.8165,-5.7748,-5.7098,-5.6039,-5.5517,-5.5408,0.0,0.0,0.0,0.0,0.0,0.0,0.0,0.0,0.0,-1.8425,-2.0255,-2.2247,-2.4622,-2.5709,-2.6836,-2.8327,0.0,0.0,-3.645,-3.9908,-4.2941,-4.5326,-4.7917,-4.9334,-4.9475,-5.0233,-5.1143,-5.2183,-5.1392,-5.1526,-5.2456,-5.1124,-5.0492,-5.0407,-4.9932,-4.9692,-4.9778,-5.0713,-5.1281,-5.1459,-5.1438,-5.1462,-5.1381,-5.0323,-4.8761,-4.7005,-4.6233,-4.4896,-4.322,-4.1531,-4.1108,-4.0684,-3.7211,-3.6825,-3.7099,-3.422,0.0,-3.1146,-3.0614,-3.113,-3.2968,-3.7623,-3.847,-3.9534,0.0,0.0,-4.6225,-4.8671,-5.0045,-5.1152,-5.2265,-5.4467,-5.6469,-5.7576,-5.892,-5.9623,-5.8935,-5.8658,-5.8551,-5.8584,-5.726,-5.6643,-5.7441,-5.8386,-5.89,-5.884,-6.0465,-6.1478,-6.1478,-6.2299,-6.2816,-6.2935,-6.2976,-6.3004,-6.2981,-6.2221,-6.178,-6.1684,-6.0975,-6.0604,-6.0604,-6.0604,-6.0104,-5.9251,-5.9215,-5.9598,-6.0323,-6.0265,-6.0142,-5.9951,-5.9253,-5.8891,-5.8568,-5.7046,-5.6008,-5.5408,0.0,0.0,0.0,0.0,0.0,0.0,0.0,0.0,0.0,0.0,-1.7818,-1.9132,-2.0139,-2.1396,-2.2823,-2.4495,0.0,0.0,-3.5173,-3.9716,-4.3242,-4.5358,-4.7387,-4.8922,-4.978,-5.0378,-5.1247,-5.2529,-5.2265,-5.2471,-5.3024,-5.1565,-5.0948,-5.0999,-5.0509,-5.0278,-5.0303,-5.1404,-5.1907,-5.1878,-5.1631,-5.1091,-5.0377,-4.967,-4.7795,-4.5547,-4.5772,-4.4783,0.0,0.0,-3.9882,-3.9192,-3.7385,-3.6765,-3.6273,-3.4169,-3.345,0.0,-3.4811,-3.5375,0.0,0.0,-4.2961,-4.4308,-4.7498,-4.8732,-4.9569,-5.0765,-5.2093,-5.3301,-5.4053,-5.5885,-5.7499,0.0,-5.8927,-5.9209,-5.8836,-5.7851,-5.7365,-5.7939,-5.7358,-5.7434,-5.8836,-5.9433,-5.9911,-6.0338,-6.1054,-6.1724,-6.2279,-6.2601,-6.3032,-6.3628,-6.3599,-6.3599,-6.3686,-6.29,-6.2257,-6.1713,-6.0935,-6.0552,-6.0552,-6.0444,-6.0217,-5.9798,-5.9798,-6.0036,-6.0352,-6.0389,-6.0352,-6.0275,-5.9922,-5.9455,-5.8806,-5.7791,-5.6869,-5.6104,0.0,0.0,0.0,0.0,0.0,0.0,0.0,0.0,0.0,0.0,0.0,-1.6709,-1.6846,-1.7875,-1.9381,0.0,0.0,0.0,0.0,-3.8689,-4.2519,-4.478,-4.669,-4.8448,-4.9991,-5.0507,-5.1377,-5.2743,-5.2912,-5.3151,-5.3381,-5.2175,-5.1565,-5.1432,-5.0852,-5.0595,-5.0586,-5.1437,-5.1907,-5.2008,-5.133,-5.0506,-4.9552,-4.8264,-4.6121,-4.3895,-4.4605,-4.3439,0.0,0.0,-3.745,-3.6681,-3.5826,-3.5543,-3.5216,-3.35,-3.3761,-3.5049,-3.7175,0.0,0.0,-4.3765,-4.6111,-4.7806,-4.9378,-5.1114,-5.241,-5.2463,-5.3729,-5.4861,-5.5091,-5.6338,-5.7596,-5.8375,-5.8627,-5.8812,-5.9071,-5.7744,-5.703,-5.7761,-5.7535,-5.7971,-5.9507,-5.9962,-6.0529,-6.1328,-6.1602,-6.197,-6.2661,-6.2896,-6.3296,-6.388,-6.3918,-6.4076,-6.4336,-6.3607,-6.294,-6.228,-6.1258,-6.0789,-6.0789,-6.0447,-6.0323,-6.0323,-6.038,-6.0389,-6.0389,-6.0361,-6.0352,-6.0313,-6.0264,-5.9824,-5.9166,-5.8729,-5.7867,-5.6912,0.0,0.0,0.0,0.0,0.0,0.0,0.0,0.0,0.0,0.0,0.0,0.0,0.0,0.0,-1.7196,0.0,0.0,0.0,0.0,-3.6702,-4.0446,-4.3512,-4.6128,-4.8276,-4.9884,-5.0678,-5.1565,-5.259,-5.2893,-5.3085,-5.3193,-5.2845,-5.2158,-5.1268,-5.0698,-5.0411,-5.043,-5.0492,-5.1007,-5.1621,-5.044,-4.9868,-4.9362,-4.6228,-4.3861,-4.2253,-4.2241,0.0,0.0,0.0,-3.3302,-3.301,-3.118,-3.2478,0.0,-3.2315,-3.2971,-3.4692,-3.6391,0.0,-4.1165,-4.4621,-4.684,-4.8848,-5.1503,-5.3545,-5.4914,-5.4979,-5.5703,-5.6092,-5.5355,-5.5722,-5.6448,-5.7392,-5.8104,-5.8821,-5.9734,-5.9146,-5.8616,-5.8653,-5.7958,-5.7818,0.0,-5.9463,-6.0259,-6.1055,-6.1956,-6.2449,-6.2421,-6.3266,-6.3721,-6.3634,-6.374,-6.4172,-6.4951,-6.4253,-6.3867,-6.381,-6.2247,-6.1476,-6.1457,-6.0724,-6.0389,-6.0389,-6.0389,-6.0389,-6.0389,-6.0323,-6.0313,-6.0313,-6.0167,-6.0038,-5.9956,-6.0011,-5.9064,-5.7657,0.0,0.0,0.0,0.0,0.0,0.0,0.0,0.0,0.0,0.0,0.0,0.0,0.0,0.0,0.0,0.0,0.0,0.0,0.0,-3.4659,-3.8762,-4.094,-4.4002,-4.6275,-4.7665,-4.8217,-4.9126,-5.0401,-5.122,-5.1492,-5.1225,-5.1224,-5.0814,-5.0118,-5.0028,-4.999,-4.9973,-5.049,-5.0102,-4.8938,-4.6967,-4.5148,-4.3317,-4.0559,-3.8307,-3.639,0.0,0.0,0.0,0.0,-3.0428,-3.0405,-3.0341,-3.0594,-3.1084,-3.2059,-3.4043,-3.6352,-3.8442,0.0,-4.3718,-4.7118,-4.8877,-5.0516,-5.3331,-5.4473,-5.4809,-5.4287,-5.3983,-5.3698,-5.3271,-5.3916,-5.4939,-5.6273,-5.7693,-5.8703,-5.8868,-5.8155,-5.7385,-5.6857,-5.6888,0.0,0.0,0.0,0.0,-6.0984,-6.1928,-6.2667,-6.3164,-6.3432,-6.3884,-6.4518,-6.3922,-6.3751,-6.4086,-6.3289,-6.2905,-6.2871,-6.1957,-6.1258,-6.0762,-6.0523,-6.0389,-6.0389,-6.0352,-6.0323,-6.0323,-6.0197,-6.0137,-6.0106,-6.0057,-5.9994,-5.995,-5.995,-5.9665,-5.9052,0.0,0.0,0.0,0.0,0.0,0.0,0.0,0.0,0.0,0.0,0.0,0.0,0.0,0.0,0.0,0.0,0.0,0.0,0.0,0.0,-3.5134,-3.74,-4.0352,-4.263,-4.4058,-4.46,-4.5615,-4.7148,-4.8191,-4.8686,-4.8731,-4.9318,-4.919,-4.8501,-4.8581,-4.8543,-4.8443,-4.8452,-4.7407,-4.5552,-4.3233,-4.0707,-3.8091,-3.5483,-3.3265,0.0,0.0,0.0,0.0,0.0,-2.7354,-2.7707,-2.8526,-2.924,-3.0295,-3.3109,-3.5542,-3.7941,-4.0665,-4.3087,-4.5547,-4.8488,-4.9894,-5.1129,-5.3395,-5.3951,-5.3659,-5.2464,-5.1812,-5.132,-5.0881,-5.1288,-5.2462,-5.468,-5.5996,-5.7116,-5.8167,-5.7269,-5.6522,-5.6616,-5.6455,-5.6659,0.0,0.0,0.0,-6.0831,-6.1776,-6.2459,-6.295,-6.3236,-6.367,-6.4308,-6.3744,-6.3629,-6.393,-6.3116,-6.2567,-6.2284,-6.1969,-6.1424,-6.0694,-6.0418,-6.0285,-6.0285,-6.0245,-6.0216,-6.0216,-6.0118,-6.0026,-5.9994,-5.9963,-5.995,-5.9885,-5.9885,-5.995,-5.9779,0.0,0.0,0.0,0.0,0.0,0.0,0.0,0.0,0.0,0.0,0.0,0.0,0.0,0.0,0.0,0.0,0.0,0.0,0.0,0.0,0.0,-3.302,-3.5425,-3.751,-3.9244,-3.9917,-4.1107,-4.2939,-4.3846,-4.4785,-4.5659,-4.6858,-4.6983,-4.6197,-4.6081,-4.5884,-4.5564,-4.4382,-4.2997,-4.1433,-3.9006,-3.6439,-3.3709,-3.0992,0.0,0.0,0.0,0.0,0.0,0.0,0.0,0.0,-2.6146,-2.8685,-3.201,-3.5323,-3.7454,-3.9525,-4.2912,-4.4957,-4.665,-4.8744,-4.9861,-5.0745,-5.1782,-5.2069,-5.163,-4.9784,-4.9322,-4.9001,0.0,-4.7999,-4.9194,-5.2585,-5.3236,-5.4443,-5.7651,-5.6716,-5.627,0.0,0.0,0.0,0.0,0.0,0.0,-6.0529,0.0,-6.192,-6.1862,-6.2729,-6.3199,-6.3158,-6.3313,-6.3766,-6.4502,-6.3709,-6.2879,-6.2087,-6.2284,-6.1985,-6.1159,-6.0437,-6.0099,-6.0099,-6.0099,-6.0099,-6.0068,-6.0026,-5.9994,-5.9994,-5.9918,-5.9885,-5.9885,-5.9885,-5.995,-5.9766,0.0,0.0,0.0,0.0,0.0,0.0,0.0,0.0,0.0,0.0,0.0,0.0,0.0,0.0,0.0,0.0,0.0,0.0,0.0,0.0,0.0,0.0,0.0,0.0,0.0,0.0,0.0,-3.7584,-3.8345,-3.8982,-3.9509,-4.0435,-4.048,-3.9689,-3.9727,-3.9539,-3.9173,-3.836,-3.6948,-3.4912,0.0,-2.9517,-2.7268,0.0,0.0,0.0,0.0,0.0,0.0,0.0,0.0,0.0,0.0,-3.2405,-3.5253,-3.7922,-4.0519,-4.2987,-4.5004,-4.6829,-4.8449,-4.9591,-5.0035,-5.0344,-5.0922,-5.0597,-4.9469,-4.7172,-4.5707,-4.4712,-4.4322,-4.5316,-4.7285,-5.067,-5.3343,0.0,-5.6687,-5.6985,0.0,-5.7595,0.0,-5.7234,-5.8516,-5.9107,0.0,0.0,-6.1061,-6.189,-6.2448,-6.3252,-6.3742,-6.3844,-6.3803,-6.3638,-6.3324,-6.316,-6.2692,-6.1958,-6.214,-6.1864,-6.1112,-6.0329,-5.9982,-6.0026,-5.9963,-5.9963,-6.0026,-5.995,-5.9918,-5.9918,-5.9885,-5.9885,-5.9885,-5.9885,-5.9918,-5.9766,0.0,0.0,0.0,0.0,0.0,0.0,0.0,0.0,0.0,0.0,0.0,0.0,0.0,0.0,0.0,0.0,0.0,0.0,0.0,0.0,0.0,0.0,0.0,0.0,0.0,0.0,0.0,0.0,0.0,0.0,-3.3843,-3.4707,-3.508,-3.4974,-3.49,-3.4696,-3.4263,-3.3342,0.0,0.0,0.0,0.0,0.0,0.0,0.0,0.0,0.0,0.0,0.0,0.0,0.0,-3.0912,-3.2991,-3.5434,-3.8041,-4.0477,0.0,-4.5033,-4.6672,-4.7868,-4.877,-4.9429,-4.9315,-4.9049,-4.904,-4.7766,-4.5881,-4.3352,-4.1465,-4.0225,-4.0065,-4.1739,-4.4358,0.0,0.0,0.0,-5.6029,-5.64,-5.6825,0.0,-5.7529,0.0,-5.8586,-5.9004,-5.9387,0.0,-6.1172,-6.2193,-6.2617,-6.3443,-6.3915,-6.4019,-6.4019,-6.3626,-6.2844,-6.3263,-6.2872,-6.1632,-6.1883,-6.1617,-6.0877,-6.0097,-5.982,-5.9904,-5.9872,-5.9904,-5.995,-5.9918,-5.9885,-5.9885,-5.9885,-5.9885,-5.9885,-5.9885,-5.9885,-5.9804,0.0,0.0,0.0,0.0,0.0,0.0,0.0,0.0,0.0,0.0,0.0,0.0,0.0,0.0,0.0,0.0,0.0,0.0,0.0,0.0,0.0,0.0,0.0,0.0,0.0,0.0,0.0,0.0,0.0,0.0,0.0,0.0,0.0,0.0,0.0,0.0,0.0,0.0,0.0,0.0,0.0,0.0,0.0,0.0,0.0,0.0,0.0,0.0,0.0,0.0,-3.1066,-3.296,-3.5652,-3.8132,-4.0539,-4.2959,-4.4692,-4.621,-4.7902,-4.8344,-4.8421,-4.8742,-4.8163,-4.7307,-4.6551,-4.4341,-4.1725,-3.9063,0.0,-3.5816,-3.5717,-3.7874,-4.0979,-4.5004,0.0,-5.1417,-5.5405,-5.5554,-5.6088,-5.8357,-5.7974,-5.7807,-5.8499,-5.8485,-5.8718,-5.9571,-6.136,-6.242,-6.2526,-6.3357,-6.3873,-6.3873,-6.3977,-6.3621,-6.2809,-6.3645,-6.3192,-6.1493,-6.1686,-6.1354,-6.0586,-5.9905,-5.9669,-5.9776,-5.9776,-5.9824,-5.9904,-5.9904,-5.9885,-5.9885,-5.9885,-5.9885,-5.9885,-5.9885,-5.9885,-5.9823,0.0,0.0,0.0,0.0,0.0,0.0,0.0,0.0,0.0,0.0,-1.3845,-1.3119,0.0,0.0,0.0,0.0,0.0,0.0,0.0,0.0,0.0,0.0,0.0,0.0,0.0,0.0,0.0,0.0,0.0,0.0,0.0,0.0,0.0,0.0,0.0,0.0,0.0,0.0,0.0,0.0,0.0,0.0,0.0,0.0,0.0,0.0,0.0,0.0,0.0,0.0,-3.258,-3.6061,-3.9126,-4.1191,-4.2996,-4.5457,-4.656,-4.7279,-4.8402,-4.8605,-4.8439,-4.7953,-4.7141,-4.5956,-4.4035,-4.1651,0.0,0.0,-3.3642,-3.2391,-3.2151,-3.4724,-3.8224,-4.2231,0.0,0.0,0.0,0.0,-5.7184,0.0,-5.8364,-5.8088,-5.8989,-5.8969,0.0,0.0,-6.0175,-6.1209,-6.2205,-6.3156,-6.3647,-6.3647,-6.3691,-6.3617,-6.3442,-6.3724,-6.3382,-6.2435,-6.1908,-6.1297,-6.0586,-5.9852,-5.9529,-5.9583,-5.9741,-5.9809,-5.9824,-5.9872,-5.9885,-5.9885,-5.9885,-5.9885,-5.9885,-5.9885,-5.9885,-5.9866,0.0,0.0,0.0,0.0,0.0,0.0,0.0,-1.402,-1.4713,-1.5517,-1.5053,-1.441,-1.3691,-1.3609,-1.3425,0.0,0.0,0.0,0.0,0.0,0.0,0.0,0.0,0.0,0.0,0.0,-1.886,-1.9269,0.0,0.0,0.0,-2.062,-2.0746,0.0,0.0,0.0,0.0,0.0,0.0,0.0,0.0,0.0,0.0,0.0,0.0,0.0,0.0,0.0,0.0,0.0,-3.16,-3.5705,-3.9661,-4.2212,-4.4034,-4.5333,-4.6452,-4.7408,-4.7776,-4.8328,-4.8546,-4.7662,-4.6638,-4.5064,-4.2117,0.0,0.0,0.0,-3.0717,-2.9545,-2.9792,-3.2483,0.0,-3.9465,0.0,0.0,0.0,0.0,0.0,0.0,-5.7547,-5.7528,0.0,-5.8454,-5.8359,-5.8359,-5.9252,-6.0433,-6.192,-6.2956,-6.3511,-6.3511,-6.3175,-6.3201,-6.3602,-6.2941,-6.2393,-6.1983,-6.1307,-6.0602,-5.991,-5.9553,-5.9438,-5.9564,-5.9618,-5.9688,-5.9809,-5.9824,-5.9857,-5.9857,-5.9857,-5.9805,-5.9753,-5.9753,-5.9503,-5.9176,0.0,0.0,0.0,0.0,0.0,0.0,0.0,-1.4198,-1.5295,-1.6257,-1.6483,-1.6059,-1.4798,-1.432,-1.3812,0.0,0.0,0.0,0.0,0.0,0.0,0.0,0.0,0.0,0.0,0.0,0.0,-1.7635,-1.7749,0.0,0.0,0.0,0.0,0.0,-1.8286,-1.7646,0.0,0.0,0.0,0.0,0.0,-1.387,0.0,0.0,0.0,0.0,0.0,0.0,0.0,0.0,-2.9532,-3.3321,-3.7739,-4.1176,-4.3652,-4.4199,-4.559,-4.7022,-4.7151,-4.7996,-4.8544,-4.7369,-4.5968,-4.3949,-4.0415,-3.6998,0.0,0.0,-2.8273,-2.7139,-2.7676,0.0,-3.3286,0.0,-3.9912,-4.3884,0.0,0.0,0.0,0.0,0.0,0.0,-5.7528,-5.7635,0.0,-5.7697,-5.8589,-5.9861,-6.1437,-6.2327,-6.2845,-6.303,-6.248,-6.2487,-6.3297,-6.2066,-6.133,-6.1102,-6.0594,-6.0002,-5.929,-5.9346,-5.9419,-5.9545,-5.9529,-5.9599,-5.9741,-5.9757,-5.9757,-5.9757,-5.9757,-5.9704,-5.9578,-5.9443,-5.9099,-5.8732,0.0,0.0,0.0,0.0,0.0,0.0,0.0,-1.4372,-1.5965,-1.7427,-1.7808,-1.7581,-1.6648,-1.4972,-1.3852,0.0,0.0,0.0,0.0,0.0,0.0,0.0,0.0,0.0,0.0,0.0,0.0,-1.7789,-1.7839,0.0,0.0,0.0,0.0,0.0,0.0,-1.5757,-1.4782,-1.4362,0.0,0.0,0.0,0.0,0.0,0.0,0.0,0.0,0.0,0.0,0.0,0.0,0.0,-2.9077,-3.2691,-3.7009,-4.1107,-4.2759,0.0,0.0,-4.7131,-4.7978,-4.8254,-4.6771,-4.4624,-4.2001,-3.8748,0.0,0.0,-2.8471,-2.654,-2.5294,-2.5188,-2.7133,-2.9825,-3.3032,0.0,-4.1103,0.0,0.0,0.0,0.0,0.0,0.0,-5.6346,-5.6921,-5.7307,-5.7455,-5.8397,-5.948,-6.0485,-6.0596,-6.1077,-6.1908,-6.1311,-6.1384,-6.2308,-6.1589,-6.0943,-6.0404,-6.0255,-5.9906,-5.929,-5.9438,-5.9438,-5.9346,-5.9491,-5.9545,-5.9529,-5.9581,-5.9616,-5.9616,-5.9616,-5.9616,-5.9521,-5.885,-5.8967,-5.9389,0.0,0.0,0.0,0.0,0.0,0.0,-1.2317,-1.4076,-1.5721,-1.7352,-1.7694,-1.7507,-1.6765,-1.5169,-1.3974,-1.3595,0.0,0.0,0.0,0.0,0.0,0.0,0.0,0.0,0.0,0.0,-1.7856,-1.7966,-1.8057,0.0,0.0,0.0,0.0,0.0,0.0,-1.4373,-1.3733,0.0,0.0,0.0,0.0,0.0,0.0,0.0,0.0,0.0,0.0,0.0,0.0,0.0,0.0,0.0,-2.7804,-3.0856,0.0,0.0,-4.214,-4.4051,-4.581,-4.6745,-4.698,-4.6229,-4.3952,-4.0873,-3.7007,0.0,-2.995,-2.679,-2.5183,-2.4396,-2.47,-2.6229,-2.8182,-3.0469,-3.3244,0.0,-4.189,0.0,0.0,0.0,0.0,0.0,0.0,0.0,-5.6861,-5.7449,-5.7911,-5.8318,-5.8659,-5.985,-6.0672,-6.1051,-6.0552,-6.0622,-6.1365,-6.0308,-5.992,-6.0151,-5.9692,-5.9477,-5.9401,-5.9401,-5.9346,-5.929,-5.9364,-5.9419,-5.9401,-5.9545,-5.9616,-5.9616,-5.9704,-5.9314,-5.8792,-5.9015,-5.8355,-5.7484,0.0,0.0,0.0,0.0,0.0,-0.9633,-1.152,-1.3306,-1.4965,-1.6409,-1.6732,-1.6671,-1.6186,-1.4596,-1.3397,-1.2935,-1.2457,0.0,0.0,0.0,0.0,0.0,0.0,0.0,0.0,0.0,-1.7808,-1.8197,-1.8246,-1.8284,0.0,0.0,-1.68,-1.5977,0.0,0.0,0.0,0.0,0.0,0.0,0.0,0.0,0.0,0.0,0.0,0.0,0.0,0.0,0.0,0.0,0.0,0.0,0.0,0.0,0.0,0.0,-3.9059,-4.1411,-4.3834,-4.5113,-4.5639,-4.5223,-4.2861,-3.9586,0.0,0.0,-2.8682,-2.5677,-2.4389,-2.388,-2.4207,-2.5522,-2.6987,-2.8347,-3.0667,-3.3875,-3.8365,-4.0336,0.0,0.0,0.0,-5.2335,0.0,-5.5964,-5.6582,-5.7528,-5.743,-5.7441,-5.7679,-5.9061,-5.9936,-6.0129,-5.9675,-5.9726,-6.0424,-5.938,-5.9157,-5.9756,-5.9222,-5.9081,-5.9328,-5.9272,-5.9215,-5.9215,-5.9215,-5.9272,-5.929,-5.9455,-5.9526,-5.9616,-5.9634,-5.9072,-5.8269,-5.8874,-5.806,-5.6805,0.0,0.0,0.0,0.0,0.0,0.0,-0.9982,-1.1995,-1.3715,-1.4609,-1.497,-1.5102,-1.5008,-1.3182,-1.1878,-1.1741,-1.182,0.0,0.0,0.0,0.0,0.0,0.0,0.0,0.0,0.0,-1.7417,-1.8385,-1.8465,-1.8485,-1.8485,-1.8138,-1.708,-1.5385,0.0,0.0,0.0,0.0,0.0,0.0,0.0,0.0,0.0,0.0,0.0,0.0,0.0,0.0,0.0,0.0,0.0,0.0,0.0,0.0,0.0,0.0,-3.5267,-3.842,-4.1107,-4.325,-4.447,-4.3469,-4.1075,-3.7993,0.0,0.0,-2.7035,-2.5344,-2.432,-2.3611,-2.336,-2.463,-2.5949,-2.6712,-2.9526,0.0,-3.5989,-3.9372,0.0,0.0,0.0,-5.1937,-5.3566,-5.525,-5.6582,-5.7528,-5.6995,0.0,-5.796,-5.8015,-5.8335,-5.8999,-5.8483,-5.8692,-5.9593,-5.8998,-5.8758,-5.8918,-5.8899,-5.8921,-5.8984,-5.8984,-5.8984,-5.8984,-5.8984,-5.9101,-5.929,-5.929,-5.9419,-5.9581,-5.9383,-5.8856,-5.8194,-5.8144,-5.8215,-5.8404,0.0,0.0,0.0,0.0,0.0,0.0,0.0,-1.0779,-1.2144,-1.3015,-1.3642,-1.3674,-1.2775,-1.2052,-1.1219,-1.0227,-1.0205,0.0,0.0,0.0,0.0,0.0,0.0,0.0,0.0,0.0,-1.7743,-1.9359,-1.9418,-1.9741,-2.0256,-1.8857,-1.7525,-1.6231,-1.4696,0.0,0.0,0.0,0.0,0.0,0.0,0.0,0.0,0.0,0.0,0.0,0.0,0.0,0.0,0.0,0.0,0.0,0.0,0.0,0.0,0.0,0.0,0.0,-3.6712,-3.7959,-3.8594,-3.9035,-3.6668,-3.3723,-3.167,0.0,-2.6126,-2.4446,-2.3876,-2.3585,-2.3407,-2.4662,-2.5958,-2.6748,-2.9538,-3.2766,0.0,0.0,0.0,0.0,-5.048,-5.3237,0.0,0.0,-5.6582,-5.7528,-5.7554,-5.7675,-5.7978,-5.7997,-5.8125,-5.8317,-5.8235,-5.8005,-5.7538,-5.8076,-5.8079,-5.7629,-5.8312,-5.8739,-5.8921,-5.9061,-5.9061,-5.8921,-5.9061,-5.91,-5.9003,-5.8653,-5.8839,-5.9363,-5.8779,-5.8368,-5.82,-5.8727,-5.7916,-5.6662,0.0,0.0,0.0,0.0,0.0,0.0,0.0,-0.9619,-1.0501,-1.1085,-1.1601,-1.1603,-1.0813,-1.0488,-0.9945,-0.9039,-0.8759,0.0,0.0,0.0,0.0,0.0,0.0,0.0,0.0,-1.6121,-1.7631,-1.983,-1.9907,-2.0356,-2.109,-1.9506,-1.8184,-1.7059,-1.508,-1.3621,0.0,0.0,0.0,0.0,0.0,0.0,-1.2757,0.0,0.0,0.0,0.0,0.0,0.0,0.0,0.0,0.0,0.0,0.0,0.0,0.0,-2.4363,-2.8547,0.0,-3.3598,-3.4362,-3.5005,-3.3176,0.0,0.0,0.0,-2.4838,-2.3458,-2.3141,-2.3164,-2.333,-2.4668,-2.6009,-2.6845,-2.9643,-3.2862,0.0,0.0,0.0,-4.7854,0.0,0.0,0.0,-5.4786,-5.5722,-5.7054,-5.7013,-5.7244,-5.796,-5.7767,-5.7602,-5.7602,-5.7781,-5.7671,-5.7198,-5.7696,-5.7636,-5.7026,-5.814,-5.8549,-5.8312,-5.8872,-5.904,-5.8899,-5.904,-5.904,0.0,-5.8297,-5.8577,-5.9307,-5.8407,-5.8106,-5.8219,-5.8972,-5.8215,-5.6894,0.0,0.0,0.0,0.0,0.0,0.0,0.0,-0.8512,-0.8953,-0.9012,-0.9172,-0.9264,-0.9222,-0.8719,-0.8303,-0.8146,0.0,0.0,0.0,0.0,0.0,0.0,0.0,0.0,0.0,-1.5552,-1.716,-1.9959,-2.0053,-2.0503,-2.133,-2.0199,-1.9074,-1.7888,-1.5951,-1.4438,-1.3286,-1.2536,-1.2334,-1.2514,-1.2574,-1.2675,0.0,0.0,0.0,0.0,0.0,0.0,0.0,0.0,0.0,0.0,0.0,0.0,0.0,0.0,0.0,0.0,0.0,-2.9864,0.0,0.0,0.0,0.0,0.0,0.0,0.0,-2.2468,-2.2285,-2.2509,-2.3265,-2.4757,-2.6175,-2.712,-3.0019,-3.3221,0.0,-3.9842,0.0,0.0,-5.1261,0.0,-5.3394,-5.3532,-5.4291,-5.6132,-5.5614,-5.598,-5.7813,-5.7242,-5.6945,-5.7,-5.7088,-5.7383,-5.7921,-5.765,-5.726,-5.6816,-5.8118,-5.8182,-5.7256,-5.8343,-5.8814,-5.8732,-5.8732,-5.8793,-5.876,-5.8109,-5.8446,-5.9287,-5.8297,-5.8052,-5.8382,-5.8934,-5.8869,-5.8515,0.0,0.0,0.0,0.0,0.0,0.0,0.0,0.0,0.0,0.0,-0.8759,-0.8902,-0.8503,-0.8277,-0.7969,0.0,0.0,0.0,0.0,0.0,0.0,0.0,0.0,0.0,0.0,-1.5126,-1.7225,-2.059,-2.0714,-2.1466,-2.2774,-2.1727,-2.035,-1.8671,-1.6758,-1.4697,-1.2618,-1.2497,-1.2495,-1.2574,-1.2639,-1.2662,0.0,0.0,0.0,0.0,-1.4546,-1.5112,0.0,0.0,0.0,0.0,0.0,0.0,0.0,0.0,-1.8801,-1.9962,-2.1246,0.0,-2.6056,-2.6162,-2.593,-2.5387,0.0,0.0,0.0,0.0,0.0,0.0,0.0,-2.5625,-2.7201,-2.8694,-3.2127,-3.5495,-3.8185,0.0,0.0,-5.0624,-5.1772,-5.2694,-5.346,-5.3562,-5.4121,-5.5254,-5.5257,-5.5724,-5.6868,-5.6308,-5.6206,-5.683,-5.5955,-5.5401,-5.5287,-5.595,-5.5858,-5.5012,-5.6205,-5.6648,-5.6466,-5.6945,-5.7173,-5.7134,-5.7192,-5.7192,-5.7135,-5.6986,-5.751,-5.837,-5.8035,-5.8445,-5.9222,-5.8629,-5.8121,-5.7578,0.0,0.0,0.0,0.0,0.0,0.0,0.0,0.0,0.0,0.0,0.0,0.0,0.0,0.0,0.0,0.0,0.0,0.0,0.0,0.0,0.0,0.0,0.0,0.0,-1.3795,-1.4888,-1.713,-2.0655,-2.1158,-2.1995,-2.3199,-2.2534,-2.1238,-1.9324,-1.671,-1.4627,-1.3018,-1.2705,-1.262,-1.2748,-1.2738,0.0,0.0,0.0,0.0,0.0,-1.4336,-1.4859,0.0,-1.6565,-1.7075,-1.7141,0.0,0.0,0.0,0.0,-1.8104,-1.8648,-1.9104,-2.1077,-2.31,-2.3232,-2.352,-2.3615,0.0,0.0,0.0,0.0,0.0,0.0,0.0,0.0,0.0,-3.0363,-3.3984,0.0,0.0,0.0,-4.9934,-5.1149,-5.1973,-5.2596,0.0,-5.3114,-5.3552,-5.4565,-5.4711,-5.5149,-5.609,-5.5489,-5.5172,-5.5331,-5.4751,-5.4637,-5.4932,-5.5327,-5.5143,-5.4418,-5.5714,-5.61,-5.5652,-5.6388,-5.6706,-5.665,-5.6668,-5.6687,-5.6631,-5.6275,-5.6928,-5.8087,-5.7674,-5.8173,-5.9027,-5.8555,-5.797,-5.7336,0.0,0.0,0.0,0.0,0.0,0.0,0.0,0.0,0.0,0.0,0.0,0.0,0.0,0.0,0.0,0.0,0.0,0.0,0.0,0.0,0.0,0.0,0.0,-1.1107,-1.3629,-1.4842,-1.7079,-2.0431,-2.1409,-2.2359,-2.3152,-2.292,-2.1729,-1.9597,-1.6285,-1.4427,-1.3762,-1.2951,-1.2738,-1.2883,-1.2829,0.0,0.0,0.0,0.0,0.0,0.0,0.0,0.0,-1.6246,-1.6825,-1.6998,-1.7124,0.0,0.0,0.0,0.0,0.0,-1.8847,-2.047,-2.1927,-2.1948,-2.2673,-2.321,-2.2428,0.0,0.0,0.0,0.0,0.0,0.0,0.0,0.0,0.0,0.0,0.0,-4.6339,-4.8908,-5.0532,-5.1336,-5.2,0.0,-5.259,-5.2554,-5.2936,-5.3924,-5.3979,-5.4371,-5.5328,-5.4687,-5.4082,-5.3561,-5.3645,-5.4107,-5.4926,-5.488,-5.4603,-5.416,-5.5542,-5.5753,-5.495,-5.5995,-5.6457,-5.6367,-5.6498,-5.6498,-5.6367,-5.6117,-5.6842,-5.8057,-5.7654,-5.7942,-5.8551,-5.8483,-5.7989,-5.7272,0.0,0.0,0.0,0.0,0.0,0.0,0.0,0.0,0.0,0.0,0.0,0.0,0.0,0.0,0.0,0.0,0.0,0.0,0.0,0.0,0.0,0.0,-0.957,-1.1141,-1.3641,-1.525,-1.7402,-2.0169,-2.1669,-2.2784,-2.3522,-2.3409,-2.168,-1.8524,-1.5964,-1.4417,-1.3762,-1.3061,-1.2776,-1.2829,-1.2883,0.0,0.0,0.0,0.0,0.0,0.0,0.0,0.0,-1.5534,-1.6292,-1.6946,-1.6998,0.0,0.0,0.0,0.0,0.0,-1.8701,-2.094,-2.2971,-2.2642,-2.369,-2.4632,-2.4059,0.0,0.0,0.0,0.0,0.0,0.0,-3.0838,-3.3324,0.0,0.0,-4.5397,0.0,0.0,-5.156,-5.1706,0.0,-5.2717,-5.2761,-5.2654,-5.2708,-5.2988,-5.288,-5.329,-5.4352,-5.3818,-5.3429,-5.3359,-5.2973,-5.2493,-5.1896,-5.3461,-5.3814,-5.2958,-5.3926,-5.4409,-5.4406,-5.4608,-5.475,-5.4886,-5.5619,-5.5559,-5.5155,-5.7092,-5.7758,-5.7643,-5.8906,-5.9203,-5.8815,-5.7992,-5.7368,-5.6767,0.0,0.0,0.0,0.0,0.0,0.0,0.0,0.0,0.0,0.0,0.0,0.0,0.0,0.0,0.0,0.0,0.0,0.0,0.0,0.0,0.0,-0.9982,-1.0813,-1.2191,-1.4256,-1.5866,-1.8128,-2.1065,-2.2316,-2.3287,-2.3964,-2.2572,-2.0844,-1.8751,-1.607,-1.4707,-1.4395,-1.3316,-1.2867,-1.2922,0.0,0.0,0.0,0.0,0.0,0.0,0.0,0.0,0.0,0.0,-1.5851,-1.6342,-1.6843,0.0,0.0,0.0,0.0,0.0,-1.9018,-2.0904,-2.2908,-2.4462,-2.6207,-2.7386,-2.6842,0.0,0.0,0.0,0.0,0.0,0.0,0.0,-3.7088,-4.1378,0.0,-4.7667,-4.9841,-5.1183,-5.1917,0.0,0.0,-5.2358,-5.2358,-5.2193,-5.2149,-5.2358,-5.2254,-5.24,-5.3041,-5.2434,-5.1948,-5.1695,-5.1971,-5.1519,-5.0288,-5.2529,-5.3356,-5.2697,-5.3717,-5.4271,-5.4359,-5.4409,-5.4491,-5.4608,-5.5037,-5.5276,-5.5435,-5.6134,-5.6784,-5.7422,-5.7787,-5.7783,-5.7424,-5.6491,-5.6007,-5.5763,0.0,0.0,0.0,0.0,0.0,0.0,0.0,0.0,0.0,0.0,0.0,0.0,0.0,0.0,0.0,0.0,0.0,0.0,0.0,0.0,-0.9504,-1.118,-1.2375,-1.3735,-1.5268,-1.6832,-1.9038,-2.1869,-2.312,-2.3919,-2.4175,-2.1702,-2.0099,-1.9174,-1.641,-1.5091,-1.4908,-1.3665,-1.3069,-1.2977,0.0,0.0,0.0,0.0,0.0,0.0,0.0,0.0,0.0,0.0,0.0,0.0,0.0,0.0,0.0,-1.7289,-1.7321,-1.7691,-1.9214,-2.0976,-2.3062,-2.5916,0.0,-2.9625,-2.9819,0.0,0.0,0.0,0.0,0.0,0.0,-3.705,0.0,-4.6099,-4.7937,-4.9288,-5.0897,-5.1614,-5.1985,-5.1885,-5.1805,-5.1742,-5.1783,-5.16,-5.154,-5.1783,-5.166,-5.1683,-5.1845,-5.1337,-5.0787,-5.0261,-5.1009,-5.0769,-4.9427,-5.1587,-5.2648,-5.2561,-5.3834,-5.4424,-5.4424,-5.4524,-5.459,-5.4692,-5.4912,-5.5297,-5.5737,-5.5541,-5.6102,-5.7123,-5.6795,-5.6521,-5.6235,-5.5389,-5.5066,-5.5038,0.0,0.0,0.0,0.0,0.0,0.0,0.0,0.0,0.0,0.0,0.0,0.0,0.0,0.0,0.0,0.0,0.0,0.0,0.0,0.0,-1.0196,-1.1953,-1.4039,-1.5672,-1.6722,-1.8361,-2.0085,-2.1827,-2.3997,-2.473,-2.3983,-2.1552,-2.0013,-1.9191,-1.6929,-1.5538,-1.4842,-1.4149,-1.3472,-1.292,-1.2977,0.0,0.0,0.0,0.0,0.0,0.0,0.0,0.0,0.0,0.0,0.0,0.0,0.0,-1.7199,-1.7199,-1.7257,-1.7617,-1.9044,-2.1546,-2.4199,-2.5998,-2.7929,0.0,-3.2423,-3.3283,0.0,-3.4769,0.0,0.0,0.0,-4.1283,-4.4967,-4.7636,-4.9475,-5.0857,-5.186,0.0,-5.1845,-5.1245,-5.1056,-5.1017,-5.1152,-5.1017,-5.1017,-5.1152,-5.1056,-5.1017,-5.1134,-5.1175,-5.0824,-5.0046,-5.0331,-5.009,-4.923,-5.0327,-5.1305,-5.2159,-5.3752,-5.4505,-5.4505,-5.4641,-5.4673,-5.4761,-5.5561,-5.5548,-5.511,-5.6649,-5.6985,-5.6559,-5.7387,-5.7205,-5.6404,-5.5658,-5.5288,-5.521,0.0,0.0,0.0,0.0,0.0,0.0,0.0,0.0,0.0,0.0,0.0,0.0,0.0,0.0,0.0,0.0,0.0,0.0,0.0,0.0,-1.1042,-1.2814,-1.4232,-1.603,-1.834,-1.9915,-2.1442,-2.298,-2.4297,-2.4296,-2.3047,-2.1248,-1.974,-1.847,-1.6759,-1.5852,-1.5512,-1.4393,-1.3802,-1.3618,-1.3214,-1.3031,0.0,0.0,0.0,0.0,0.0,0.0,0.0,0.0,-1.3953,-1.4979,-1.5551,-1.6353,-1.7074,-1.7124,-1.7467,-1.8127,-1.9621,-2.2491,-2.5461,-2.7328,-3.02,0.0,0.0,-3.6249,-3.763,-3.7755,-3.9352,0.0,0.0,0.0,-4.656,-4.8027,-4.9761,-5.1095,-5.1486,-5.1523,-5.1451,-5.1193,-5.0675,-5.0342,-5.0304,-5.019,-5.0247,-5.0417,-5.017,-5.0151,-5.0417,-4.9991,-4.9618,-4.9373,-4.9594,-4.9594,-4.9396,-5.031,-5.0936,-5.1306,-5.3025,-5.4113,-5.4641,-5.4705,-5.4767,-5.4786,-5.5151,-5.5477,-5.5716,-5.5822,-5.6053,-5.633,-5.6215,-5.5965,-5.5668,-5.5422,-5.5229,-5.5094,0.0,0.0,0.0,0.0,0.0,0.0,0.0,0.0,0.0,0.0,0.0,0.0,0.0,0.0,0.0,0.0,0.0,0.0,0.0,-1.0209,-1.1693,-1.3691,-1.459,-1.6273,-1.8931,-2.0675,-2.2162,-2.3408,-2.3849,-2.3389,-2.2118,-2.0641,-1.9297,-1.8028,-1.6822,-1.6224,-1.598,-1.5016,-1.4435,-1.4109,-1.3671,-1.3356,0.0,0.0,0.0,0.0,0.0,0.0,0.0,0.0,-1.3497,-1.4507,-1.5169,-1.6127,-1.7046,-1.7307,-1.8054,-1.9146,-2.0594,-2.3339,-2.6344,0.0,0.0,0.0,-3.629,-3.8448,-4.0232,-4.0522,-4.2159,0.0,0.0,0.0,0.0,0.0,-4.9674,-5.0749,-5.073,-5.073,-5.0619,-5.0379,-5.0065,-4.988,-4.9824,-4.9805,-4.9861,-4.9991,-4.9621,-4.9473,-4.9711,-4.9189,-4.8978,-4.9061,-4.9225,-4.934,-4.9459,-5.0065,-5.0522,-5.0816,-5.2008,-5.317,-5.4277,-5.4371,-5.4553,-5.4799,-5.486,-5.5212,-5.5735,-5.5148,-5.5331,-5.5903,-5.545,-5.5255,-5.5281,-5.5307,-5.5281,-5.5229,0.0,0.0,0.0,0.0,0.0,0.0,0.0,0.0,0.0,0.0,0.0,0.0,0.0,0.0,0.0,0.0,0.0,0.0,-1.0649,-1.0896,-1.2092,-1.4504,-1.5368,-1.6564,-1.8264,-2.0529,-2.204,-2.2781,-2.2525,-2.2054,-2.1339,-1.9736,-1.8635,-1.7952,-1.7319,-1.6686,-1.6115,-1.6177,-1.5435,-1.4222,-1.4368,-1.3933,-1.3209,0.0,0.0,0.0,0.0,0.0,0.0,0.0,-1.3067,-1.4429,-1.4638,-1.5743,-1.7142,-1.7818,-1.9123,-2.0684,-2.1956,-2.4102,-2.6751,0.0,0.0,0.0,-3.7998,-3.9669,-4.1262,-4.3209,0.0,-4.4636,-4.5455,-4.592,0.0,-4.8069,-4.9233,-4.9936,-4.9729,-4.9691,-4.9397,-4.8605,-4.9212,-4.9711,-4.9787,-4.9936,-4.9991,-5.0009,-4.9464,-4.912,-4.9101,-4.9164,-4.9197,-4.9197,-4.9276,-4.9308,-4.9308,-4.944,-4.9915,-5.0798,-5.0798,-5.1694,-5.339,-5.3464,-5.3967,-5.4799,-5.4799,-5.4829,-5.4901,-5.4901,-5.5028,-5.5229,-5.5358,-5.5415,-5.5408,-5.5408,-5.548,-5.5596,0.0,0.0,0.0,0.0,0.0,0.0,0.0,0.0,0.0,0.0,0.0,0.0,0.0,0.0,0.0,0.0,0.0,0.0,-1.1157,-1.1737,-1.2887,-1.4728,-1.5129,-1.6268,-1.8325,-1.9498,-2.0931,-2.2734,-2.1988,-2.1017,-1.9832,-1.9353,-1.8744,-1.8092,-1.8399,-1.8194,-1.7557,-1.7109,-1.6456,-1.5721,-1.5339,-1.4687,-1.3961,0.0,0.0,0.0,0.0,0.0,0.0,0.0,0.0,0.0,-1.5049,-1.5921,-1.6886,-1.7684,-1.8968,-2.0508,-2.2369,-2.5271,0.0,-3.0245,0.0,0.0,0.0,-3.9829,0.0,0.0,-4.5111,-4.5301,-4.6275,-4.6727,0.0,-4.7349,-4.831,-4.8938,-4.875,-4.8616,-4.8524,-4.8381,-4.8449,-4.8815,-4.9636,-4.9673,-4.9787,-5.0189,-4.9913,-4.9594,-4.9202,-4.9113,-4.9094,-4.9197,-4.9276,-4.9358,-4.944,-4.949,-4.9621,-4.9878,-5.0503,-5.1725,-5.3464,-5.3592,-5.4105,-5.4941,-5.5,-5.5028,-5.5057,-5.5149,-5.5203,-5.5281,-5.5476,-5.5523,-5.548,-5.5573,-5.5189,-5.4649,0.0,0.0,0.0,0.0,0.0,0.0,0.0,0.0,0.0,0.0,0.0,0.0,0.0,0.0,0.0,0.0,0.0,0.0,0.0,0.0,-1.3367,-1.4957,-1.5103,-1.6147,-1.8334,-1.8739,-1.9596,-2.095,-2.0624,-1.9884,-1.8778,-1.907,-1.8827,-1.8119,-1.8875,-1.8838,-1.8166,-1.7787,-1.7164,-1.6365,-1.5996,-1.5399,-1.4677,0.0,0.0,0.0,0.0,0.0,0.0,0.0,0.0,0.0,-1.5086,-1.5915,-1.6815,-1.8324,-1.9704,-2.1291,-2.3721,-2.6493,0.0,-3.0862,-3.3648,-3.6368,-3.8048,0.0,0.0,0.0,0.0,-4.5974,-4.6894,-4.7104,0.0,-4.7478,-4.807,-4.8439,-4.8306,-4.8172,-4.8093,-4.813,-4.8302,-4.8853,-4.9939,-4.9994,-5.028,-5.0954,-5.0676,-5.0248,-4.9672,-4.9598,-4.9448,-4.9262,-4.9276,-4.934,-4.9409,-4.9409,-4.9459,-4.9509,-5.004,-5.1035,-5.25,-5.3289,-5.3935,-5.4515,-5.4933,-5.5094,-5.5094,-5.5229,-5.5281,-5.5358,-5.548,-5.5504,-5.5489,-5.5297,-5.4836,-5.4293,0.0,0.0,0.0,0.0,0.0,0.0,0.0,0.0,0.0,0.0,0.0,0.0,0.0,0.0,0.0,0.0,0.0,0.0,0.0,0.0,-1.3544,-1.5018,-1.5216,-1.6209,-1.8153,-1.8065,-1.8055,-1.8117,-1.8773,-1.8767,-1.8146,-1.8887,-1.8892,-1.8356,-1.907,-1.9,-1.8296,-1.8359,-1.765,-1.6476,-1.6476,-1.6015,-1.5254,-1.4333,0.0,0.0,0.0,0.0,0.0,0.0,0.0,0.0,-1.499,-1.5741,-1.6812,-1.9201,-2.0767,-2.2342,-2.5268,0.0,0.0,0.0,-3.4298,0.0,-3.9934,-4.214,-4.3793,-4.473,0.0,-4.6537,-4.7216,-4.7057,-4.7101,-4.8062,-4.8174,-4.8194,-4.8229,-4.8072,-4.7929,-4.7902,-4.8496,-4.9325,-5.036,-5.0538,-5.0952,-5.1827,-5.1396,-5.086,-5.0238,-5.0284,-4.9996,-4.9327,-4.9308,-4.9308,-4.9308,-4.9308,-4.939,-4.9509,-4.9565,-5.0071,-5.0937,-5.2632,-5.3583,-5.3898,-5.4761,-5.5121,-5.5149,-5.5203,-5.5307,-5.5413,-5.5336,-5.5341,-5.5339,-5.4647,-5.44,-5.4304,0.0,0.0,0.0,0.0,0.0,0.0,0.0,0.0,0.0,0.0,0.0,0.0,0.0,0.0,0.0,0.0,0.0,0.0,0.0,0.0,-1.3371,-1.4222,-1.537,-1.619,-1.6649,-1.6579,-1.6579,-1.6642,-1.7895,-1.8477,-1.844,-1.911,-1.964,-1.9992,-2.0635,-2.0231,-1.9044,-1.9072,-1.8277,-1.7034,-1.7034,-1.6216,-1.4973,-1.4697,-1.3823,0.0,0.0,0.0,0.0,0.0,0.0,0.0,-1.5212,-1.5719,-1.6185,-1.78,-1.9314,-2.0956,-2.3546,-2.5983,0.0,0.0,-3.3501,-3.6578,-3.8606,-4.0679,-4.2337,-4.2775,-4.4698,-4.6314,-4.6342,-4.647,-4.6821,-4.7536,-4.732,-4.7219,-4.7775,-4.7723,-4.7681,-4.7861,-4.7759,-4.8139,-4.9378,-4.9537,-4.9832,-5.0305,-5.0505,-5.0303,-4.9696,-4.969,-4.9615,-4.9459,-4.9459,-4.9459,-4.9459,-4.9459,-4.9459,-4.9509,-5.019,-5.0659,-5.0919,-5.2105,-5.3499,-5.5057,-5.5255,-5.5371,-5.5408,-5.5383,-5.5432,-5.5474,-5.4847,-5.4622,-5.4547,-5.3803,-5.3625,-5.3591,0.0,0.0,0.0,0.0,0.0,0.0,0.0,0.0,0.0,0.0,0.0,0.0,0.0,0.0,0.0,0.0,0.0,0.0,0.0,0.0,0.0,-1.3969,-1.5048,-1.5615,-1.5576,-1.5509,-1.5671,-1.6098,-1.6904,-1.7716,0.0,0.0,-1.9926,-2.0566,-2.0809,-2.031,-1.9228,-1.8831,-1.8081,-1.7117,-1.6711,-1.6063,-1.5266,-1.4457,-1.3664,-1.2874,-1.2381,0.0,0.0,0.0,0.0,0.0,0.0,0.0,-1.5681,-1.7324,-1.8431,-1.9834,0.0,0.0,0.0,0.0,0.0,0.0,-3.7719,-3.9796,-4.1246,-4.1257,-4.3597,-4.56,-4.5466,-4.5594,-4.6013,-4.6933,-4.6757,-4.6799,-4.7697,-4.7741,-4.7759,-4.7861,-4.7723,-4.8055,-4.9081,-4.934,-4.9627,-5.0247,-5.0583,-5.0517,-4.9936,-4.988,-4.9725,-4.9364,-4.9332,-4.93,-4.93,-4.9345,-4.9377,-4.9409,-5.0402,-5.1196,-5.1847,-5.2756,-5.3941,-5.5313,-5.5371,-5.5421,-5.5446,-5.5451,-5.548,-5.5431,-5.472,-5.4687,-5.488,-5.3814,-5.3468,-5.3393,0.0,0.0,0.0,0.0,0.0,0.0,0.0,0.0,0.0,0.0,0.0,0.0,0.0,0.0,0.0,0.0,0.0,0.0,0.0,0.0,0.0,-1.3941,-1.4491,-1.4762,-1.4702,-1.4653,-1.5008,-1.5794,-1.5925,0.0,0.0,0.0,0.0,-2.0743,-2.0495,-1.9939,-1.9111,-1.8317,-1.7609,-1.6968,-1.6232,-1.5838,-1.5551,-1.4247,-1.3555,-1.323,-1.2559,-1.2195,-1.2171,-1.3153,0.0,0.0,0.0,0.0,-1.5032,-1.6604,-1.7426,-1.8542,0.0,0.0,0.0,0.0,0.0,0.0,-3.681,-3.8997,-4.0466,-4.0234,-4.2615,-4.4689,-4.4599,-4.4557,-4.4935,-4.62,-4.6205,-4.6476,-4.7543,-4.7793,-4.7861,-4.792,-4.7947,-4.8265,-4.894,-4.9218,-4.9632,-5.0312,-5.0712,-5.0691,-5.0179,-5.0176,-4.9892,-4.9281,-4.9183,-4.9168,-4.9168,-4.9197,-4.9295,-4.9371,-5.0444,-5.1499,-5.252,-5.3576,-5.4397,-5.5045,-5.5301,-5.5421,-5.544,-5.5298,-5.5346,-5.5384,-5.4608,-5.4786,-5.5345,-5.3936,-5.3463,-5.3424,0.0,0.0,0.0,0.0,0.0,0.0,0.0,0.0,0.0,0.0,0.0,0.0,0.0,0.0,0.0,0.0,0.0,0.0,-1.2904,0.0,0.0,-1.3799,-1.3912,-1.396,-1.3939,-1.3881,-1.4218,-1.4953,0.0,0.0,0.0,0.0,0.0,-2.1439,0.0,-1.9838,-1.8972,-1.8235,-1.7487,-1.6795,-1.6512,-1.5936,-1.5227,-1.4914,-1.4044,-1.294,-1.2848,-1.2719,-1.2668,-1.3173,-1.3388,0.0,0.0,0.0,-1.3618,-1.4048,-1.5089,-1.6602,0.0,0.0,0.0,0.0,0.0,0.0,0.0,0.0,-3.9817,0.0,-4.2238,-4.3962,-4.371,-4.3583,-4.3875,-4.5018,-4.5204,-4.5498,-4.6398,-4.7205,-4.7759,-4.7879,-4.7902,-4.7961,-4.8138,-4.8549,-4.8844,-4.8955,-4.9448,-4.9677,-4.9596,-4.9596,-4.954,-4.9459,-4.9459,-4.9446,-4.9446,-4.9459,-4.9471,-4.9563,-5.0714,-5.1288,-5.1402,-5.329,-5.4259,-5.446,-5.5109,-5.5514,-5.558,-5.4685,-5.4871,-5.5572,-5.4053,-5.3974,-5.4564,-5.3111,-5.3079,-5.3524,0.0,0.0,0.0,0.0,0.0,0.0,0.0,0.0,0.0,0.0,0.0,0.0,0.0,0.0,0.0,-1.2993,-1.2904,-1.2811,-1.2748,-1.2652,-1.2776,-1.3099,-1.3119,-1.3119,-1.3075,-1.3039,-1.3372,-1.4072,0.0,0.0,0.0,-1.9077,-2.0082,0.0,0.0,0.0,0.0,-1.7764,-1.7056,-1.6633,-1.6067,-1.5856,-1.5784,-1.5009,-1.4483,-1.4085,-1.3826,-1.3407,-1.302,-1.3304,-1.3222,-1.2984,-1.2917,0.0,0.0,0.0,-1.384,0.0,-1.9379,0.0,0.0,0.0,0.0,0.0,-3.4386,0.0,-3.8703,-3.9665,-4.1209,-4.2505,-4.2703,-4.2679,-4.297,-4.405,-4.4276,-4.4808,-4.6056,-4.6711,-4.7234,-4.7806,-4.8024,-4.8087,-4.809,-4.8495,-4.875,-4.875,-4.9146,-4.939,-4.939,-4.939,-4.939,-4.939,-4.9345,-4.9377,-4.9452,-4.939,-4.9739,-5.044,-5.0959,-5.1273,-5.1514,-5.3326,-5.4178,-5.4269,-5.458,-5.5078,-5.5583,-5.4649,-5.485,-5.5691,-5.4619,-5.4735,-5.5317,-5.3794,-5.3478,-5.3624,0.0,0.0,0.0,0.0,0.0,0.0,0.0,0.0,0.0,0.0,0.0,0.0,0.0,0.0,0.0,0.0,-1.2792,-1.2678,-1.2554,-1.2554,-1.2554,-1.2554,-1.2558,-1.2538,-1.2479,-1.2459,-1.2785,0.0,0.0,0.0,-1.7663,-1.8571,-1.9675,0.0,-1.9695,0.0,0.0,0.0,0.0,-1.6448,-1.5979,-1.6054,-1.6437,-1.5937,-1.5857,-1.5981,-1.5394,-1.4831,-1.4225,-1.3659,-1.3147,-1.2685,-1.2336,-1.2118,0.0,0.0,0.0,0.0,0.0,0.0,0.0,0.0,0.0,0.0,0.0,0.0,-3.7138,0.0,-3.9525,-4.0446,-4.1374,-4.1835,-4.2365,-4.3266,-4.3692,-4.4291,-4.5562,-4.6191,-4.6731,-4.7189,-4.7751,-4.8075,-4.7895,-4.8421,-4.8804,-4.8892,-4.9179,-4.9358,-4.9358,-4.9358,-4.9358,-4.9358,-4.9358,-4.934,-4.9434,-4.9434,-4.9868,-5.0733,-5.0844,-5.1028,-5.135,-5.2834,-5.3527,-5.3617,-5.3991,-5.4599,-5.5256,-5.4432,-5.4764,-5.577,-5.4894,-5.5242,-5.5986,-5.4216,-5.3677,-5.3699,0.0,0.0,0.0,0.0,0.0,0.0,0.0,0.0,0.0,0.0,0.0,0.0,0.0,-1.2848,-1.2776,-1.2719,-1.2642,-1.2562,-1.2419,-1.2419,-1.2419,-1.2419,-1.2419,0.0,-1.2419,-1.2343,0.0,0.0,0.0,0.0,-1.6696,-1.8092,-1.9057,-1.9688,-1.972,-1.9341,-1.8573,0.0,0.0,0.0,0.0,-1.6973,0.0,0.0,-1.8938,0.0,0.0,-1.736,-1.6872,-1.4277,-1.3293,-1.2996,-1.1906,-1.1258,-1.0874,0.0,0.0,0.0,0.0,0.0,0.0,0.0,0.0,0.0,0.0,0.0,-3.5027,-3.6168,-3.6795,-3.7734,-3.9662,-4.1068,-4.2145,-4.2822,-4.3588,-4.417,-4.4356,-4.5721,-4.639,-4.5566,-4.6916,-4.7656,-4.7035,-4.8016,-4.8837,-4.9164,-4.9377,-4.949,-4.949,-4.949,-4.949,-4.949,-4.9623,-4.9623,-4.949,-4.9663,-4.9769,-4.9778,-5.0095,-5.0239,-5.0228,-5.1314,-5.1858,-5.2003,-5.3451,-5.4296,-5.4476,-5.3567,-5.4284,-5.5838,-5.4278,-5.4724,-5.5905,-5.3541,-5.3182,-5.3752,0.0,0.0,0.0,0.0,0.0,0.0,0.0,0.0,0.0,0.0,0.0,0.0,0.0,-1.2811,-1.2773,-1.2642,-1.2616,-1.2574,-1.2459,-1.2419,-1.2383,-1.2343,-1.2343,-1.2323,-1.2266,-1.2246,0.0,0.0,0.0,-1.4484,-1.5899,-1.6869,-1.7851,-1.8905,-1.8951,-1.8764,-1.833,-1.7009,0.0,0.0,0.0,0.0,0.0,0.0,0.0,0.0,0.0,0.0,0.0,0.0,0.0,0.0,0.0,0.0,0.0,0.0,0.0,0.0,0.0,0.0,0.0,0.0,0.0,-2.6451,-2.8609,-3.1187,-3.3528,-3.5122,-3.673,-3.8187,-3.9311,-4.0075,-4.1014,-4.2364,-4.2961,-4.3457,-4.3984,-4.4681,-4.5231,-4.5488,-4.615,-4.6598,-4.6576,-4.7107,-4.7554,-4.7728,-4.8345,-4.8602,-4.8348,-4.9014,-4.9308,-4.9179,-4.9421,-4.9593,-4.9623,-4.9807,-4.9898,-4.9952,-5.0082,-5.0182,-5.025,-5.1247,-5.1437,-5.1045,-5.2173,-5.3124,-5.3783,-5.2897,-5.3642,-5.5258,-5.4211,-5.4485,-5.5325,-5.3935,-5.3253,-5.2942,0.0,0.0,0.0,0.0,0.0,0.0,0.0,0.0,0.0,0.0,0.0,0.0,0.0,0.0,-1.3148,-1.305,-1.2783,-1.2577,-1.2459,-1.2403,-1.2343,-1.2262,-1.2241,-1.2221,-1.2164,-1.2164,-1.2164,0.0,0.0,0.0,0.0,-1.5941,-1.6921,-1.7739,-1.7852,-1.7869,0.0,0.0,0.0,-1.6346,0.0,0.0,-1.9576,0.0,0.0,0.0,0.0,0.0,0.0,0.0,0.0,0.0,0.0,0.0,0.0,0.0,0.0,0.0,-1.4845,0.0,0.0,0.0,0.0,-2.4311,-2.6761,0.0,-3.1735,-3.3702,-3.5435,-3.6967,-3.8184,-3.8511,-3.9361,-4.1837,-4.2552,-4.2928,-4.3394,-4.3914,-4.4414,-4.4669,-4.5293,-4.5755,-4.5848,-4.6252,-4.6645,-4.6896,-4.7432,-4.7721,-4.7567,-4.8215,-4.8589,-4.8521,-4.8698,-4.8881,-4.8983,-4.9091,-4.915,-4.927,-4.9319,-4.9415,-4.957,-5.0495,-5.064,-5.024,-5.1163,-5.2124,-5.3041,-5.2749,-5.3391,-5.4516,-5.4056,-5.4181,-5.4538,-5.3429,-5.2816,-5.2524,0.0,0.0,0.0,0.0,0.0,0.0,0.0,0.0,0.0,0.0,0.0,0.0,0.0,0.0,0.0,-1.3901,-1.3193,-1.2639,-1.2423,-1.2343,-1.2262,-1.2195,-1.2133,-1.2112,-1.2112,-1.2112,-1.2112,0.0,0.0,0.0,0.0,0.0,-1.6239,-1.6163,-1.6458,-1.6637,-1.6697,0.0,-1.6134,-1.6085,0.0,-1.8777,-1.8631,0.0,0.0,0.0,-2.1173,-2.0296,0.0,-1.7025,0.0,0.0,0.0,0.0,0.0,0.0,0.0,0.0,0.0,0.0,0.0,0.0,0.0,0.0,-2.5336,0.0,-2.9717,-3.186,-3.2615,-3.3662,-3.6189,-3.637,-3.739,-4.119,-4.2284,-4.258,-4.2501,-4.3478,-4.3904,-4.2956,-4.4261,-4.5089,-4.4794,-4.5473,-4.6197,-4.6787,-4.6719,-4.684,-4.7219,-4.7183,-4.7311,-4.7591,-4.7467,-4.7467,-4.7596,-4.7596,-4.7596,-4.7596,-4.7799,-4.7928,-4.8029,-4.8894,-4.9392,-4.9633,-5.0484,-5.1347,-5.224,-5.3092,-5.3519,-5.3669,-5.3708,-5.3744,-5.3565,-5.195,-5.1841,-5.2547,0.0,0.0,0.0,0.0,0.0,0.0,-1.2904,-1.2901,0.0,0.0,0.0,0.0,0.0,0.0,-1.4697,-1.4097,-1.3802,-1.3323,-1.26,-1.2427,-1.2323,-1.2221,-1.2195,-1.2153,-1.2112,-1.2112,-1.2133,0.0,0.0,0.0,0.0,-1.3876,0.0,0.0,-1.4406,-1.4484,-1.4774,-1.5051,0.0,-1.6192,-1.717,-1.863,0.0,0.0,0.0,0.0,0.0,-1.9646,-1.8032,0.0,-1.3857,-1.2517,0.0,0.0,0.0,0.0,0.0,0.0,-1.2127,0.0,0.0,0.0,0.0,0.0,0.0,0.0,-2.7145,-2.95,-3.165,-3.368,-3.5432,-3.6586,-3.7733,-3.9122,-4.0468,-4.1337,-4.1457,-4.2195,-4.239,-4.148,-4.268,-4.3608,-4.3708,-4.4445,-4.498,0.0,-4.5745,-4.5948,-4.5786,-4.6461,-4.7033,-4.7441,-4.7416,-4.7467,-4.7596,-4.7547,-4.7638,-4.7818,-4.7821,-4.7907,-4.8087,-4.8355,-4.8871,-4.9534,-4.9779,-5.0426,-5.1368,-5.169,-5.2227,-5.2776,-5.2219,-5.2347,-5.2794,-5.2338,-5.193,-5.1658,0.0,0.0,0.0,0.0,0.0,-1.3533,-1.3789,-1.3818,-1.3985,0.0,0.0,0.0,0.0,0.0,-1.5745,-1.5175,-1.449,-1.3822,-1.317,-1.2721,-1.2419,-1.2287,-1.2236,-1.2153,-1.2112,-1.2054,-1.2054,-1.2054,-1.2133,-1.2395,-1.2867,-1.3051,-1.3252,0.0,0.0,0.0,0.0,0.0,0.0,0.0,-1.7431,0.0,0.0,-2.0694,-2.1018,0.0,0.0,0.0,-1.7879,-1.5713,-1.3367,0.0,0.0,0.0,0.0,0.0,0.0,0.0,0.0,0.0,0.0,0.0,0.0,0.0,-2.0161,-2.2681,-2.5158,0.0,-3.0,-3.216,-3.3387,-3.4605,-3.5887,-3.7261,-3.8277,-3.9206,-4.0223,-4.0942,-4.119,-4.075,-4.158,-4.2459,-4.3072,-4.3578,-4.4008,-4.4449,-4.4918,-4.5152,-4.5086,-4.576,-4.6278,-4.6568,-4.6544,-4.6572,-4.6666,-4.6641,-4.6686,-4.6854,-4.6896,-4.6973,-4.7099,-4.7568,-4.8269,-4.9096,-4.9424,-5.0113,-5.0971,-5.1102,-5.1474,-5.1944,-5.1841,-5.1871,-5.1968,-5.1998,-5.1687,-5.1326,0.0,0.0,-1.3409,-1.4081,-1.4211,-1.442,-1.5009,-1.5124,-1.5216,0.0,0.0,0.0,0.0,0.0,0.0,0.0,-1.5456,-1.4427,-1.3958,-1.3179,-1.2653,-1.2423,-1.2298,-1.2195,-1.2096,-1.2033,-1.1924,-1.1785,-1.1982,-1.2024,-1.1963,-1.259,-1.2795,-1.2701,0.0,0.0,0.0,0.0,0.0,-1.622,-1.8291,-1.893,0.0,0.0,-2.0857,-1.954,-1.982,-1.93,-1.836,-1.6811,-1.3216,0.0,0.0,0.0,0.0,0.0,-1.0321,0.0,0.0,0.0,0.0,0.0,0.0,0.0,-1.8605,-2.0975,-2.3259,0.0,-2.7747,-2.9517,-3.0624,-3.1466,-3.279,-3.5309,-3.5769,-3.6617,-3.8835,-3.9756,-4.0203,-4.0235,-4.0827,-4.1586,-4.2534,-4.2731,-4.3114,-4.3949,-4.4128,-4.4402,-4.4895,-4.5197,-4.5361,-4.5378,-4.5317,-4.5319,-4.5381,-4.536,-4.538,-4.5438,-4.5599,-4.5692,-4.5766,-4.6661,-4.7579,-4.8528,-4.9243,-5.0008,-5.0735,-5.0874,-5.1023,-5.1256,-5.2064,-5.1891,-5.122,-5.1287,-5.1304,-5.1308,0.0,0.0,-1.3427,-1.4143,-1.4233,-1.442,-1.5068,-1.5246,-1.5707,0.0,0.0,0.0,0.0,0.0,0.0,0.0,-1.7416,-1.6311,-1.4258,-1.3874,-1.3375,-1.2604,-1.2483,-1.2359,-1.2185,-1.2075,-1.1697,-1.1107,-1.1557,-1.1536,-1.1067,-1.1728,-1.1999,-1.1926,0.0,0.0,0.0,0.0,0.0,-1.6913,-1.7245,0.0,-1.9278,-2.0423,-2.068,-2.037,-2.0449,-1.9837,-1.8657,-1.5993,-1.2053,-0.8449,0.0,0.0,0.0,-0.9526,0.0,0.0,0.0,0.0,0.0,0.0,0.0,0.0,-1.6209,-1.7834,-1.9768,0.0,-2.4474,-2.6204,-2.8694,-2.9699,-3.0654,-3.2303,-3.3089,-3.457,-3.7755,-3.8936,-3.9309,-3.8806,-3.9863,-4.0728,-4.0868,-4.1614,-4.2155,-4.2277,-4.3034,-4.3988,-4.5087,-4.5106,-4.5106,-4.5148,-4.5192,-4.5235,-4.5256,-4.5192,-4.5301,-4.5632,-4.5632,-4.5718,-4.5953,-4.615,-4.7003,-4.8348,-4.8556,-4.9073,-4.9768,-4.9869,-5.038,-5.1152,-5.1434,-5.1433,-5.1287,-5.1308,-5.1296,-5.1308,0.0,0.0,-1.4014,-1.4677,-1.5067,-1.5674,-1.6785,-1.7003,0.0,0.0,0.0,0.0,0.0,0.0,0.0,0.0,0.0,0.0,0.0,-1.5252,-1.436,-1.3497,-1.297,-1.2604,-1.2356,-1.2149,-1.1663,-1.0837,-1.1064,-1.0988,-1.0657,-1.1023,-1.1926,-1.3173,0.0,0.0,0.0,0.0,-1.4965,-1.6415,-1.7138,0.0,-1.9534,-2.025,-2.0336,-2.0073,-2.0153,-1.8865,-1.6514,-1.2797,-1.0165,0.0,-0.7686,-0.8384,-0.967,0.0,-1.084,-1.1214,0.0,0.0,0.0,-1.2053,0.0,0.0,0.0,-1.5093,-1.6166,-1.9726,-2.2047,-2.4004,-2.5805,-2.7091,-2.831,-2.9638,-3.0881,-3.2377,-3.4388,-3.6254,-3.7235,-3.6754,-3.7827,-3.892,-3.9722,-4.0333,-4.1012,-4.1871,-4.2957,-4.3862,-4.4481,-4.4965,-4.5216,-4.5192,-4.5258,-4.53,-4.53,-4.53,-4.5419,-4.5635,-4.5645,-4.5766,-4.596,-4.6026,-4.6907,-4.8377,-4.7992,-4.845,-4.9465,-4.909,-4.9247,-4.9755,-5.0362,-5.087,-5.1258,-5.1296,-5.1317,-5.1343,-1.3261,0.0,-1.4398,-1.5151,-1.5778,-1.6747,-1.8443,-1.8775,0.0,0.0,0.0,0.0,0.0,0.0,0.0,0.0,0.0,0.0,0.0,-1.7291,-1.5914,-1.5165,-1.3911,-1.3193,-1.3111,-1.249,-1.1647,-1.0638,-1.0618,-1.0483,-1.0305,-1.0497,-1.1888,0.0,0.0,0.0,0.0,0.0,0.0,-1.6323,0.0,-1.8528,-1.9567,-2.0213,-2.0049,-1.9514,-1.9223,-1.7393,-1.4464,-1.0589,-0.9296,-0.8997,-0.7312,-0.8347,0.0,0.0,0.0,0.0,0.0,0.0,0.0,0.0,0.0,-0.889,0.0,0.0,0.0,-1.5589,-1.8759,-2.119,0.0,0.0,0.0,-2.7182,0.0,0.0,0.0,-3.2603,0.0,-3.4727,-3.5674,-3.6785,-3.809,-3.8515,-3.9455,-4.1299,-4.2412,-4.3197,-4.3605,-4.4513,-4.5129,-4.5297,-4.5361,-4.5381,-4.5419,-4.5475,-4.5565,-4.5684,-4.5723,-4.5808,-4.5925,-4.6026,-4.684,-4.8172,-4.752,-4.7912,-4.8985,-4.8523,-4.8338,-4.843,-4.947,-5.0305,-5.0958,-5.1203,-5.133,-5.1377,-1.3085,-1.3186,0.0,-1.4978,-1.5317,-1.6165,-1.8351,-1.8903,0.0,0.0,0.0,0.0,0.0,0.0,0.0,0.0,0.0,0.0,-2.2723,0.0,-1.8788,-1.8215,-1.5749,-1.471,-1.5314,-1.3383,-1.1594,-0.9986,-1.0392,-1.0233,-0.9528,-1.0187,-1.1278,0.0,-1.3979,0.0,0.0,0.0,-1.7222,0.0,-1.7867,-1.8274,0.0,-1.9998,-2.0019,-1.9556,-1.7733,-1.627,-1.4895,0.0,-1.192,-1.098,0.0,-1.0947,-1.1193,-1.1016,0.0,0.0,0.0,0.0,0.0,0.0,-0.7766,0.0,-0.5487,0.0,-0.6961,-0.8781,0.0,-1.5721,0.0,0.0,0.0,0.0,0.0,0.0,-2.7058,-2.8352,-3.036,-3.3255,-3.4327,-3.4811,-3.4681,-3.5617,-3.698,-3.8852,-3.9519,-4.0726,-4.2812,-4.3466,-4.4243,-4.5173,-4.5281,-4.5362,-4.5491,-4.5509,-4.565,-4.5958,-4.591,-4.5922,-4.5978,-4.5944,-4.6371,-4.7167,-4.7248,-4.7295,-4.7359,-4.8153,-4.8438,-4.847,-4.9446,-4.987,-5.007,-5.0964,-5.1297,-5.1327,-1.2867,-1.3268,0.0,0.0,-1.5468,-1.663,-1.9035,-2.0982,0.0,0.0,0.0,0.0,0.0,0.0,0.0,0.0,0.0,-2.6605,0.0,0.0,0.0,-1.9451,-1.731,-1.5973,-1.5605,-1.3999,-1.2317,-1.0598,-1.0252,-1.004,-0.9968,-0.9902,-1.1347,0.0,-1.4443,0.0,-1.6617,0.0,-1.7626,0.0,0.0,0.0,0.0,-1.9883,-1.9896,-1.9607,-1.7677,-1.6401,-1.527,0.0,-1.1617,0.0,0.0,0.0,0.0,-1.2248,0.0,0.0,0.0,0.0,0.0,0.0,0.0,0.0,-0.3935,0.0,-0.3821,0.0,0.0,0.0,0.0,0.0,0.0,0.0,-2.3953,-2.4785,0.0,0.0,-2.705,-2.9866,0.0,0.0,-3.311,-3.4441,-3.5698,-3.6829,-3.7335,-3.8515,-4.0532,-4.1839,-4.3158,-4.4576,-4.4725,-4.5045,-4.556,-4.5677,-4.5747,-4.5822,-4.5879,-4.5914,-4.5938,-4.5998,-4.6464,-4.7201,-4.6795,-4.7104,-4.7921,-4.7798,-4.8018,-4.8554,-4.9489,-5.0167,-5.0675,-5.1171,-5.1362,-5.1359,-1.2565,0.0,0.0,0.0,-1.5446,-1.6851,-1.9704,-2.2586,0.0,0.0,0.0,0.0,-3.0438,-3.1528,0.0,0.0,-3.0606,-2.9247,0.0,0.0,-2.3697,-2.2404,-1.9745,-1.7953,-1.7225,-1.5143,-1.3186,-1.1396,-1.0443,-1.0123,-1.0362,-0.9816,-1.1338,-1.4483,0.0,-1.5645,-1.757,0.0,-1.8092,-1.8431,-1.8685,-1.9145,-1.9708,-1.9811,-1.9821,-1.9498,-1.7491,-1.6341,-1.5324,-1.2063,-1.1307,-1.1598,-1.0961,-1.1566,-1.2511,0.0,0.0,0.0,-1.2566,0.0,0.0,0.0,0.0,0.0,0.0,0.0,0.0,0.0,0.0,0.0,0.0,0.0,0.0,0.0,0.0,-2.2868,0.0,-2.2792,0.0,0.0,0.0,0.0,0.0,-3.2571,-3.3518,-3.4398,-3.4965,-3.62,-3.8324,-3.9994,-4.1831,-4.3894,-4.4268,-4.4853,-4.5728,-4.5602,-4.5512,-4.548,-4.5522,-4.5556,-4.5587,-4.5901,-4.6385,-4.6949,-4.636,-4.6928,-4.8204,-4.7777,-4.8117,-4.9002,-4.9925,-5.0677,-5.1265,-5.1339,-5.1361,-5.1382,-1.2195,-1.245,0.0,0.0,0.0,-1.639,-2.0095,0.0,0.0,0.0,0.0,0.0,0.0,0.0,0.0,0.0,0.0,-3.2494,-3.3442,0.0,-2.7225,0.0,0.0,-2.1008,-2.1485,-1.7202,-1.4042,-1.2164,-1.1167,-1.055,-1.03,-1.0073,-1.0938,-1.2732,-1.3949,-1.5323,-1.6803,-1.8042,-1.8955,-1.9599,-1.9239,-1.9226,-1.9473,0.0,-1.9703,-1.9055,-1.6801,0.0,-1.4875,-1.2765,-1.1903,-1.1603,-1.0849,-1.1269,0.0,0.0,0.0,0.0,0.0,0.0,0.0,-0.6457,0.0,0.0,0.0,0.0,0.33,0.0,0.0,0.0,0.0,0.0,0.0,0.0,0.0,0.0,0.0,0.0,0.0,0.0,0.0,0.0,0.0,-2.9126,-2.9644,-3.1235,-3.2017,-3.3697,-3.6612,-3.8053,-4.0202,-4.323,-4.4079,-4.5006,-4.608,-4.5113,-4.4754,-4.4912,-4.4725,-4.4674,-4.4773,-4.555,-4.5925,-4.5951,-4.6064,-4.6578,-4.7407,-4.8279,-4.9163,-5.0044,-5.091,-5.132,-5.1386,-5.133,-5.1305,-5.1313,0.0,0.0,0.0,0.0,0.0,0.0,0.0,-2.3678,0.0,0.0,-3.0029,0.0,0.0,-3.3882,-3.4835,0.0,0.0,-3.4114,-3.3753,-3.1536,0.0,0.0,0.0,-2.3206,0.0,-1.8659,-1.5684,-1.3335,-1.1822,-1.0964,-1.0671,-0.9995,-1.0487,-1.2076,0.0,-1.4784,0.0,0.0,0.0,0.0,0.0,-1.9341,-1.9565,0.0,-1.9171,-1.8408,-1.7369,-1.6131,-1.4797,-1.3957,-1.2832,-1.1962,-1.2122,-1.2073,-1.2012,-1.1993,-1.1916,-1.1828,-1.1811,-1.2106,-1.1124,-0.5411,-0.4477,-0.3472,0.2422,0.0,0.0,0.0,0.0,0.0,0.0,0.0,0.0,0.0,0.0,0.0,0.0,0.0,-2.0535,0.0,0.0,0.0,0.0,-2.6413,-2.7493,-2.9155,-2.9715,-3.1484,-3.4936,-3.6581,-3.8717,-4.1567,-4.2466,-4.3338,-4.4225,-4.3945,-4.3818,-4.3835,-4.382,-4.4101,-4.4638,-4.4958,-4.5465,-4.6091,-4.6142,-4.664,-4.7518,-4.8457,-4.9311,-5.0156,-5.102,-5.1381,-5.138,-5.1327,-5.1278,-5.1132,-1.4326,0.0,0.0,0.0,0.0,0.0,0.0,0.0,0.0,0.0,-3.0311,0.0,-3.3176,0.0,-3.4658,0.0,-3.5385,-3.508,-3.4863,-3.3185,0.0,-3.1076,-2.7863,-2.5537,0.0,0.0,0.0,-1.5071,-1.2765,-1.1355,-1.0801,-0.9973,-1.0236,-1.1479,0.0,-1.4117,-1.5406,-1.7008,-1.7842,0.0,0.0,-1.927,0.0,0.0,-1.8294,-1.7421,-1.714,-1.5683,-1.3924,-1.3884,-1.2881,-1.1757,-1.2015,-1.1671,-1.1295,-1.1387,-1.0995,-1.0658,-1.1117,-1.2128,-1.1846,-0.6776,-0.6237,-0.53,0.0679,0.2374,0.2442,0.0,0.0,0.0,0.0,0.0,0.0,0.0,0.0,0.0,0.0,-1.9368,0.0,-2.0211,0.0,0.0,0.0,-2.4522,-2.5887,-2.7926,-2.8374,-2.9985,-3.3269,-3.5321,-3.7492,-3.9836,-4.1334,-4.2521,-4.335,-4.3059,-4.2881,-4.2865,-4.2925,-4.3227,-4.3776,-4.4452,-4.5128,-4.5757,-4.6097,-4.6734,-4.7598,-4.8496,-4.9351,-5.0195,-5.1057,-5.1359,-5.1287,-5.0938,-5.0761,-5.0499,-1.4751,0.0,0.0,0.0,-1.8589,0.0,0.0,0.0,-2.7278,0.0,-3.0523,-3.1828,-3.3454,-3.4049,-3.4954,-3.6397,-3.5545,-3.5505,-3.6801,-3.4265,0.0,0.0,-3.018,-2.7984,-2.785,0.0,0.0,0.0,0.0,0.0,-1.0631,-0.996,-1.0084,0.0,-1.185,0.0,-1.5153,-1.6493,-1.7517,-1.8292,-1.8881,-1.9034,-1.8881,-1.8182,-1.7108,-1.605,-1.6048,-1.4513,-1.2399,-1.2744,-1.2176,-1.1289,-1.0605,-1.0173,-0.9913,-0.9392,-0.8169,-0.7737,-1.1087,-1.2698,-1.2803,-1.0205,-0.9985,-0.8636,-0.1996,0.0763,0.1526,0.0268,-0.0385,0.0,0.0,0.0,0.0,0.0,0.0,0.0,0.0,0.0,-1.9592,-1.9523,-2.0159,0.0,0.0,-2.3398,-2.4725,-2.7304,-2.7826,-2.9135,-3.169,-3.4211,-3.6385,-3.8183,-4.0664,-4.2421,-4.3363,-4.243,-4.1959,-4.2033,-4.202,-4.207,-4.2238,-4.4013,-4.4836,-4.4957,-4.5898,-4.6772,-4.7601,-4.8406,-4.9223,-5.0061,-5.0927,-5.1145,-5.0899,-5.0206,-4.9873,-4.9528,-1.7051,-1.7792,-1.8847,0.0,-2.1214,-2.2358,0.0,0.0,0.0,0.0,-3.1725,-3.2389,-3.3742,-3.4022,-3.4496,-3.5462,-3.5599,0.0,0.0,0.0,0.0,-3.4066,-3.1457,-2.8958,-2.6838,-2.3046,-1.9426,-1.5957,0.0,0.0,-0.995,0.0,0.0,0.0,0.0,0.0,-1.4516,-1.5519,-1.69,-1.841,-1.7981,-1.8039,-1.8132,0.0,-1.5935,-1.5016,-1.5352,-1.4096,-1.238,-1.3174,-1.3,-1.2251,-1.1618,-1.1297,-1.0919,-1.0154,-0.9691,-0.9271,-0.8867,-1.0083,-1.122,-1.0269,-0.8103,-0.5798,-0.4485,-0.0996,0.1722,0.071,-0.0981,-0.3946,-0.9336,-1.2613,0.0,0.0,0.0,0.0,0.0,0.0,0.0,-1.9738,0.0,0.0,-2.0624,-2.194,-2.3359,-2.4703,-2.6157,-2.8127,-3.0728,-3.2717,-3.4917,-3.7407,-3.9288,-4.0643,-4.1471,-4.1234,-4.1048,-4.0916,-4.0853,-4.1215,-4.1936,-4.3104,-4.4063,-4.4883,-4.5816,-4.6386,-4.6708,-4.7499,-4.7967,-4.8244,-4.9075,-4.8778,-4.8159,-5.0034,-5.0267,-4.9572,-1.8648,-1.9651,0.0,-2.1766,0.0,0.0,-2.5663,-2.738,0.0,-3.1686,-3.2008,0.0,-3.3537,-3.3391,-3.3521,-3.4355,-3.4659,0.0,-3.5348,0.0,0.0,-3.303,-3.11,-2.8813,-2.636,-2.2916,0.0,-1.6093,0.0,0.0,-0.9413,0.0,0.0,0.0,0.0,-1.1787,-1.3369,-1.4419,-1.5904,-1.7406,-1.6898,-1.7037,0.0,-1.6405,-1.5468,-1.4816,-1.5339,-1.4464,-1.3101,-1.386,-1.3747,-1.3113,-1.2263,-1.1632,-1.1014,-1.0023,-0.9377,-0.8772,-0.8029,-0.883,-0.9782,-0.9315,-0.693,-0.4566,-0.3847,-0.0669,0.18,0.0671,-0.2233,-0.609,-1.1063,-1.5169,0.0,0.0,0.0,0.0,0.0,0.0,0.0,0.0,-2.0827,-2.0777,-1.9952,-2.1866,-2.3372,-2.3927,-2.5696,-2.7538,-2.9391,-3.1864,-3.4251,-3.6477,-3.8565,-4.0023,-4.0839,-4.0804,-4.0713,-4.0545,-4.0511,-4.0761,-4.1306,-4.2223,-4.3237,-4.4328,-4.5213,-4.5834,-4.6277,-4.7119,-4.7437,-4.7489,-4.8301,-4.7887,-4.7089,-4.9137,-4.9208,-4.8179,-1.9855,0.0,0.0,0.0,0.0,0.0,0.0,-2.8817,0.0,-3.1566,0.0,-3.2343,-3.3187,-3.2648,-3.2594,-3.3398,-3.3393,-3.3361,-3.3567,-3.3494,-3.276,-3.1263,-2.9868,-2.8076,-2.5764,-2.215,-1.9036,0.0,0.0,0.0,0.0,0.0,0.0,0.0,0.0,0.0,0.0,-1.3532,-1.4763,-1.5864,-1.565,-1.5851,-1.6322,-1.577,-1.5399,-1.5137,-1.5521,-1.4977,-1.426,-1.4698,-1.4569,-1.4033,-1.2895,-1.1872,-1.0863,-0.9604,-0.8338,-0.7418,-0.7844,-0.7986,-0.8143,-0.8177,-0.615,-0.3703,-0.1982,0.0386,0.1717,0.0232,-0.3826,-0.8589,-1.3316,-1.7962,0.0,0.0,0.0,0.0,0.0,0.0,0.0,0.0,0.0,0.0,-2.0355,-2.2346,-2.3731,-2.3856,-2.5547,-2.6997,-2.7955,-3.1101,-3.3691,-3.5504,-3.8015,-3.9789,-4.0715,-4.0801,-4.073,-4.0596,-4.061,-4.0604,-4.063,-4.1524,-4.2486,-4.3488,-4.4407,-4.5167,-4.5852,-4.6816,-4.7184,-4.7209,-4.8005,-4.7685,-4.6857,-4.7893,-4.7463,-4.6254,-2.1111,0.0,0.0,0.0,0.0,-2.8093,-3.0156,-3.0949,-3.1596,-3.2465,-3.2613,-3.2876,-3.3559,-3.333,-3.3282,-3.3703,-3.2851,0.0,0.0,0.0,0.0,-2.9267,-2.93,-2.7429,-2.3344,-2.1017,-1.8104,0.0,0.0,-0.9879,-0.883,0.0,0.0,0.0,0.0,0.0,-1.3449,-1.3945,0.0,-1.4866,-1.4291,-1.4104,-1.4167,-1.3968,-1.4632,-1.5521,-1.4996,-1.4942,-1.5217,-1.599,-1.5908,-1.5345,-1.468,-1.344,-1.191,-0.9802,-0.9029,-0.8491,-0.688,-0.5309,-0.4965,-0.8941,-0.4953,-0.0769,-0.3142,-0.1297,0.0625,-0.0311,-0.4599,-0.9013,-1.171,-1.5902,-2.0724,0.0,0.0,0.0,0.0,0.0,0.0,0.0,0.0,-2.2699,-2.132,-2.1698,-2.2027,-2.2048,-2.3789,-2.5473,-2.6966,-2.8945,-3.1496,-3.4686,-3.6543,-3.8233,-3.9818,-4.0537,-4.0771,-4.0519,-4.0574,-4.0559,-4.0552,-4.1587,-4.2232,-4.2602,-4.4143,-4.4501,-4.4143,-4.5635,-4.6208,-4.6242,-4.7088,-4.6772,-4.5928,-4.6844,-4.6472,-4.5744,-2.2697,0.0,0.0,0.0,0.0,0.0,0.0,-3.124,-3.2024,-3.3271,-3.2804,-3.2275,-3.1936,-3.107,-3.0395,-3.0248,-2.959,-2.9183,-2.8961,-2.8689,-2.7889,-2.6478,-2.6526,-2.5009,-2.1661,-2.0209,-1.7632,-1.3714,0.0,-0.9928,-0.8268,-0.7552,0.0,0.0,0.0,-1.1309,0.0,0.0,-1.3157,-1.3915,-1.2256,-1.2458,-1.3628,-1.2938,-1.3339,-1.407,-1.3712,-1.4182,-1.5155,-1.6114,-1.6507,-1.6219,-1.403,-1.3048,-1.2096,-0.8796,-0.8019,-0.7701,-0.5204,-0.3225,-0.2416,-0.4414,-0.1105,0.1865,-0.0913,-0.0077,0.0857,-0.0776,-0.5312,-1.0772,-1.6732,-1.8697,-2.0867,-2.5266,-2.4242,0.0,0.0,0.0,-2.3737,0.0,0.0,0.0,0.0,-2.0732,-2.0464,-2.099,0.0,-2.4454,-2.614,-2.8277,-3.1047,-3.4493,-3.6228,-3.7912,-3.963,-4.0403,-4.0687,-4.0501,-4.053,-4.0514,-4.046,-4.109,-4.1683,-4.2288,-4.3065,-4.344,-4.358,-4.4727,-4.5234,-4.5347,-4.609,-4.6047,-4.564,-4.6026,-4.5859,-4.5534,0.0,-2.4745,0.0,0.0,-2.8541,-3.0018,-3.0479,-3.1071,-3.1896,-3.3124,-3.2127,-3.0967,-3.0069,-2.8683,-2.7565,-2.7009,-2.6524,-2.5996,-2.5592,-2.545,-2.4829,-2.3382,-2.3268,-2.2232,-1.9932,-1.8814,-1.6533,0.0,0.0,-0.966,-0.7622,-0.7245,0.0,0.0,0.0,0.0,0.0,-1.1022,-1.1874,-1.3337,-1.0879,-1.1123,-1.2764,-1.1955,-1.1749,-1.1985,-1.2065,-1.2978,-1.4246,-1.4632,-1.552,-1.6009,-1.3114,-1.2051,-1.1119,-0.754,-0.6791,-0.6562,-0.3804,-0.2178,-0.1043,-0.0649,0.128,0.2678,0.1333,0.1018,0.0547,-0.1164,-0.551,-1.1894,-2.1115,-2.0368,-1.961,-2.3503,-2.403,-2.3845,0.0,0.0,-2.3749,0.0,0.0,0.0,-2.1109,-1.9183,-1.8742,-2.0621,-2.1875,-2.3453,-2.5566,-2.7806,-3.0643,-3.4217,-3.5828,-3.7507,-3.9331,-4.0092,-4.0459,-4.0458,-4.0524,-4.0513,-4.0451,-4.0645,-4.1175,-4.1939,-4.2058,-4.2583,-4.343,-4.3828,-4.4143,-4.442,-4.4916,-4.5175,-4.524,-4.492,-4.494,-4.5055,0.0,0.0,0.0,0.0,0.0,-2.9887,-3.0655,-3.1182,-3.1399,-3.1111,-2.9797,-2.8893,-2.8974,-2.8121,-2.7429,-2.7258,-2.5792,-2.4566,-2.3883,-2.3201,-2.2018,-2.018,-2.0665,-1.9849,-1.7586,-1.5508,-1.3553,0.0,0.0,-0.8049,-0.7072,-0.7138,0.0,0.0,0.0,-1.088,-1.2822,-1.1063,-1.1526,-1.3438,-1.1671,-1.0568,-0.9947,-1.0242,-1.0079,-0.9739,-0.9825,-1.1034,-1.2247,-1.029,-1.1401,-1.3652,-1.3294,-1.1101,-0.8415,-0.6809,-0.6308,-0.5902,-0.3965,-0.2747,-0.2203,-0.2553,-0.1556,-0.0161,0.1286,-0.0241,-0.1758,-0.1322,-0.4931,-1.0731,-1.9078,-1.5695,-1.4171,-2.1718,-2.244,-2.2904,-2.5297,0.0,-2.3358,-2.2458,0.0,0.0,-1.9076,-1.6439,-1.6548,-2.1327,-2.1093,-2.2164,-2.5446,-2.6587,-2.9088,-3.3283,-3.4288,-3.5877,-3.8233,-3.9226,-3.9908,-4.0304,-4.0635,-4.0699,-4.0597,-4.0799,-4.0937,-4.1052,-4.179,-4.2586,-4.3333,-4.2624,-4.2723,-4.3337,-4.3466,-4.3817,-4.4097,-4.3018,-4.3064,-4.3684,0.0,0.0,-2.7409,-2.8958,-2.9241,-2.9463,-3.0206,-2.9892,-2.924,-2.8507,-2.8375,-2.7769,-2.6445,-2.5261,-2.4296,-2.367,-2.2393,-2.1376,-2.0612,-1.9792,-1.887,-1.7863,-1.7725,-1.7255,-1.612,-1.4828,-1.3484,0.0,0.0,-0.8878,-0.8177,-0.7817,-0.847,-0.9978,-1.0136,-1.077,-1.1592,-1.0346,-1.0901,-1.2338,-0.9111,-0.8576,-0.9499,-0.7548,-0.6524,-0.6377,-0.7778,-0.8951,-0.9944,-1.0038,-1.0677,-1.1205,-0.9452,-0.8444,-0.7503,-0.5104,-0.4704,-0.4691,-0.2557,-0.1665,-0.1254,-0.0559,-0.0399,0.0238,0.247,0.1753,0.0714,0.1017,-0.2937,-0.8444,-1.495,-1.4824,-1.4799,-1.8057,-2.0511,-2.219,-2.2746,0.0,0.0,-2.5416,0.0,-1.7075,-2.2482,-1.8512,-1.7526,-2.2229,-2.0763,-2.1193,-2.4682,-2.6133,-2.8359,-3.1645,-3.4041,-3.5971,-3.7432,-3.9318,-4.0354,-4.0535,-4.063,-4.0621,-4.0546,-4.0794,-4.0835,-4.0733,-4.1092,-4.1408,-4.1667,-4.1789,-4.206,-4.2389,-4.2742,-4.3331,-4.3899,-4.3301,-4.3606,-4.4283,-2.6952,-2.745,-2.805,-2.9121,-2.8947,-2.8814,-2.9045,-2.8258,-2.7259,-2.6083,-2.6342,-2.589,-2.395,-2.2594,-2.1542,-2.0566,-1.9894,-1.9283,-1.8541,-1.7747,-1.6968,-1.6508,-1.5919,0.0,-1.5389,-1.3832,-1.251,-1.142,-0.9623,-0.8569,-0.8234,-0.8332,-0.8977,-1.002,-0.9581,-0.9606,-0.9927,-0.9096,-0.9537,-1.0396,-0.7259,-0.6816,-0.7722,-0.5054,-0.3593,-0.3341,-0.569,-0.6893,-0.7522,-0.8452,-0.8788,-0.8548,-0.7015,-0.643,-0.5902,-0.3517,-0.3287,-0.3359,-0.1486,-0.1096,-0.0942,-0.0236,-0.0316,-0.0158,0.1589,0.175,0.1505,0.094,-0.2474,-0.6708,-1.1119,-1.3038,-1.3982,-1.4134,-1.774,-1.9981,-1.8446,-1.6727,0.0,-2.3903,-1.8722,-1.6626,-2.1598,-1.915,-1.8448,-2.1349,-2.0976,-2.1855,-2.4748,-2.6122,-2.8178,-3.1107,-3.4205,-3.6308,-3.7272,-3.9345,-4.047,-4.0641,-4.0653,-4.0624,-4.0595,-4.0782,-4.0789,-4.0664,-4.0637,-4.0584,-4.0577,-4.1091,-4.1335,-4.1417,-4.1762,-4.2387,-4.3042,-4.281,-4.2949,-4.3342,-2.7181,-2.8295,-2.9079,-2.8597,-2.826,-2.7776,-2.7056,-2.665,-2.58,-2.4024,-2.3514,-2.2754,-2.1542,-2.075,-1.9913,-1.9116,-1.9213,-1.9063,-1.8434,-1.7619,-1.6886,-1.6386,-1.5801,-1.5397,-1.5393,-1.1782,-0.9725,-0.9251,0.0,-0.6282,-0.6395,-0.8529,-0.9585,-0.9529,-0.7378,-0.7144,-0.8175,-0.7457,-0.7312,-0.7631,-0.7178,-0.5686,-0.3597,-0.3021,-0.1909,-0.1018,-0.3679,-0.4907,-0.5115,-0.4325,-0.4686,-0.5656,-0.7403,-0.5742,-0.3061,-0.2431,-0.2196,-0.2118,-0.1492,-0.1415,-0.1895,-0.3066,-0.2678,-0.2109,-0.2508,-0.1613,-0.1198,-0.2952,-0.4555,-0.6179,-0.8134,-0.9135,-0.9809,-1.0208,-1.3925,-1.5675,-1.2662,-1.4791,0.0,-1.5303,-1.4283,-1.3717,-1.3729,-1.6791,-1.8552,-1.8005,-2.1801,-2.4713,-2.6002,-2.6604,-2.8582,-3.2264,-3.4668,-3.6578,-3.7977,-3.9064,-3.9909,-4.049,-4.0699,-4.0811,-4.0791,-4.0808,-4.0793,-4.0788,-4.0521,-4.0473,-4.0588,-4.0396,-4.0367,-4.0406,-4.0279,-4.0596,-4.108,-4.076,-4.0177,-3.9896,-2.836,-2.8385,-2.8222,-2.8039,-2.763,-2.7149,-2.6607,-2.6057,-2.5288,-2.4238,-2.285,-2.1694,-2.0864,-2.0459,-1.9942,-1.9063,-1.8904,-1.8496,-1.7529,-1.6968,-1.6386,-1.5726,-1.4803,-1.3904,-1.3297,-1.1516,-1.0437,-1.0126,-0.8644,-0.7466,-0.6758,-0.7681,-0.7846,-0.7213,-0.6309,-0.617,-0.6628,-0.6929,-0.7292,-0.7503,-0.5322,-0.4308,-0.3694,-0.0709,0.0,-0.0881,-0.3284,-0.4988,-0.6318,-0.7127,-0.6555,-0.5629,-0.5792,-0.4261,-0.2431,-0.2117,-0.196,-0.196,-0.1961,-0.1883,-0.1887,-0.214,-0.2223,-0.1667,0.0798,0.2073,0.2538,0.1485,-0.1396,-0.4419,-0.6773,-0.7855,-0.859,-0.927,-1.259,-1.4966,-1.4781,-1.3186,-1.4054,-1.9402,-1.6389,-1.46,-1.6558,-1.9723,-2.1133,-1.9848,-2.2046,-2.4228,-2.6001,-2.8213,-3.0063,-3.1479,-3.4899,-3.7199,-3.818,-3.9715,-4.0563,-4.0699,-4.0781,-4.0848,-4.0939,-4.0781,-4.0716,-4.0655,-4.0539,-4.0329,-4.012,-4.0158,-3.9922,-3.9561,-3.9392,-3.9764,-4.0449,-4.0778,-4.073,-4.0762,-2.871,-2.8651,-2.8264,-2.7374,-2.6607,-2.5988,-2.5652,-2.5016,-2.4311,-2.3519,-2.2285,-2.1211,-2.0595,-2.0323,-1.9706,-1.8745,-1.8585,-1.8095,-1.7041,-1.6632,-1.6057,-1.5304,-1.4643,-1.3704,-1.2583,-1.1295,-1.0105,-0.911,-0.8258,-0.7191,-0.6175,-0.6993,-0.6709,-0.5377,-0.457,-0.4361,-0.48,-0.5585,-0.5894,-0.5752,-0.4495,-0.3741,-0.3245,-0.0724,0.008,-0.0405,-0.3279,-0.4151,-0.4346,-0.6575,-0.563,-0.3306,-0.2881,-0.1748,-0.0625,-0.0468,-0.1094,-0.1646,-0.0781,-0.1095,-0.1648,-0.1492,-0.1649,-0.1021,0.2052,0.387,0.4807,0.4467,0.1865,-0.1006,-0.3254,-0.5594,-0.7322,-0.8012,-1.035,-1.2086,-1.2134,-1.1447,-1.3349,-1.9986,-1.892,-1.8238,-1.9677,-2.37,-2.4765,-2.1307,-2.4688,-2.7226,-2.7971,-2.9994,-3.1568,-3.2529,-3.5829,-3.796,-3.8746,-4.0156,-4.0869,-4.0873,-4.0847,-4.0867,-4.0917,-4.066,-4.0499,-4.04,-4.0307,-4.01,-3.9807,-3.9557,-3.9233,-3.8878,-3.8691,-3.8888,-3.9436,-4.0763,-4.0565,-3.9894,-2.8635,-2.9227,-2.9095,-2.6653,-2.5419,-2.4622,-2.4189,-2.3593,-2.2927,-2.2176,-2.1655,-2.1195,-2.0644,-2.0098,-1.9292,-1.8078,-1.8167,-1.7934,-1.6952,-1.655,-1.5974,-1.5137,-1.4992,-1.4223,-1.2832,-1.0828,-0.8736,-0.6552,-0.634,-0.5675,-0.4727,-0.6184,-0.584,-0.3793,-0.2296,-0.2054,-0.2681,-0.3571,-0.3532,-0.2947,-0.4405,-0.4006,-0.243,-0.2423,-0.1154,0.0245,-0.3486,-0.2632,-0.0234,-0.3372,-0.2299,0.0386,0.0799,0.1432,0.203,0.2094,0.0389,-0.0941,0.1322,0.039,-0.1178,-0.1176,-0.0863,-0.0157,0.1564,0.3517,0.516,0.5378,0.4356,0.2873,0.1083,-0.2869,-0.5938,-0.6391,-0.7301,-0.7449,-0.6058,-0.9744,-1.4017,-1.7713,-2.1756,-2.3776,-2.2589,-2.7949,-2.888,-2.2482,0.0,-3.2674,-3.1456,-3.1999,-3.319,-3.5018,-3.7299,-3.8824,-3.9568,-4.0371,-4.0859,-4.098,-4.0896,-4.0838,-4.0746,-4.0419,-4.0215,-4.0091,-3.9943,-3.9804,-3.9628,-3.8795,-3.8375,-3.8267,-3.8072,-3.7925,-3.8107,-4.0443,-3.9607,-3.7729,-3.0521,-3.0218,-2.8987,-2.6763,-2.5997,-2.5142,-2.3309,-2.2809,-2.2295,-2.1548,-2.1021,-2.0644,-2.0098,-1.9283,-1.8301,-1.7334,-1.7747,-1.7513,-1.6288,-1.5869,-1.5365,-1.4789,-1.3776,-1.2395,-1.0636,-0.9434,-0.769,-0.5411,-0.5119,-0.414,-0.256,-0.291,-0.2208,-0.071,-0.0536,-0.0179,0.0,-0.2767,-0.3291,-0.2386,-0.3821,-0.3959,-0.3167,-0.1682,-0.0665,-0.0415,-0.2394,-0.2559,-0.1848,-0.2482,-0.1683,-0.0082,0.1452,0.2538,0.3119,0.2183,0.0939,-0.0078,0.0392,0.0235,-0.0079,-0.0235,-0.0236,0.0235,0.1797,0.1329,0.086,0.187,0.0156,-0.1638,-0.2262,-0.3902,-0.5126,-0.4941,-0.4643,-0.5189,-0.7289,-1.0544,-1.4205,-1.8338,-2.4098,-2.6276,-2.2538,-2.7979,-2.963,-2.4548,-2.9784,-3.3193,-3.3181,-3.4856,-3.581,-3.576,-3.8017,-3.9567,-4.0273,-4.0512,-4.0671,-4.0699,-4.0567,-4.0487,-4.0419,-4.0177,-4.003,-3.9944,-3.981,-3.9623,-3.9357,-3.9061,-3.8297,-3.7292,-3.7127,-3.6996,-3.6981,-3.7413,-3.7228,-3.6872,-2.9234,-2.8659,-2.7409,-2.5319,-2.4694,-2.3871,-2.2273,-2.1832,-2.1385,-2.0459,-1.9913,-1.9432,-1.863,-1.7738,-1.6748,-1.5756,-1.6257,-1.6108,-1.4866,-1.4622,-1.3762,-1.2287,-1.1685,-1.0292,-0.7759,-0.7239,-0.5747,-0.3198,-0.2387,-0.0972,0.0977,0.0971,0.1766,0.3288,0.3287,0.3197,0.2835,-0.0355,-0.1597,-0.1683,-0.3871,-0.4389,-0.386,-0.2944,-0.1797,-0.085,-0.2614,-0.1904,-0.0426,-0.2088,-0.0425,0.237,0.261,0.3905,0.528,0.4737,0.2961,0.1253,0.1562,0.1096,0.0471,0.055,0.0628,0.0785,0.1644,0.2036,0.2427,0.3046,0.2716,0.1856,0.0078,-0.0154,-0.0683,-0.2619,-0.2198,-0.2772,-0.6131,-1.0746,-1.4842,-1.7809,-2.498,-2.8407,-2.5208,-3.0009,-3.2077,-2.9015,-3.2015,-3.4015,-3.4117,-3.6234,-3.7328,-3.7026,-3.8597,-3.9813,-4.054,-4.0546,-4.054,-4.05,-4.0349,-4.0222,-4.0149,-3.9864,-3.9674,-3.9584,-3.947,-3.9007,-3.8261,-3.7853,-3.6912,-3.5813,-3.6032,-3.6101,-3.619,-3.7145,-3.6932,-3.6191,-2.6335,-2.6018,-2.5114,-2.3139,-2.2247,-2.1541,-2.0498,-2.0156,-1.9683,-1.8807,-1.8345,-1.77,-1.6838,-1.5936,-1.5018,-1.3847,-1.3917,-1.3756,-1.3105,-1.3039,-1.1906,-0.9369,-0.9347,-0.8024,-0.5232,-0.4333,-0.2741,-0.0267,0.1147,0.2822,0.4793,0.4653,0.5436,0.6799,0.6981,0.6614,0.5534,0.238,0.0441,-0.0617,-0.392,-0.4926,-0.4389,-0.4743,-0.3175,-0.1129,-0.3019,-0.1218,0.1607,-0.1494,0.0853,0.496,0.4028,0.5302,0.7318,0.7749,0.5662,0.3272,0.3726,0.2417,0.102,0.1335,0.1414,0.1414,0.1335,0.3682,0.5951,0.586,0.7359,0.7778,0.4411,0.4855,0.4313,0.0149,0.0144,-0.0486,-0.3785,-1.0613,-1.5915,-1.7617,-2.5831,-3.0824,-2.9376,-3.2812,-3.4686,-3.3613,-3.4164,-3.4555,-3.4578,-3.6466,-3.769,-3.7967,-3.8993,-3.9859,-4.0526,-4.0468,-4.0413,-4.0305,-4.0126,-3.989,-3.9595,-3.9272,-3.9036,-3.8943,-3.8649,-3.799,-3.7005,-3.611,-3.5115,-3.4216,-3.4877,-3.5064,-3.5273,-3.7189,-3.6842,-3.5398,-2.3753,-2.3815,-2.3006,-2.0847,-1.9853,-1.8718,-1.6744,-1.6019,-1.574,-1.5869,-1.5617,-1.5346,-1.5282,-1.4678,-1.3756,-1.2662,-1.0722,-1.0125,-1.1488,-1.1235,-1.0631,-0.985,-0.7712,-0.5943,-0.453,-0.0089,0.2569,0.3369,0.5034,0.6174,0.689,0.6705,0.6796,0.7071,0.7071,0.7334,0.7418,0.2911,0.1236,0.1235,-0.3028,-0.475,-0.4569,-0.4208,-0.2643,-0.0865,-0.2485,-0.1408,0.0689,0.026,0.0776,0.2121,0.5065,0.6275,0.6849,0.7944,0.7893,0.7046,0.5043,0.3507,0.2349,0.1882,0.1961,0.1961,0.1414,0.3416,0.5454,0.579,0.7368,0.785,0.5289,0.5304,0.4862,0.2309,0.2105,0.1191,-0.1769,-1.0401,-1.773,-2.1213,-2.9557,-3.4735,-3.4096,-3.4473,-3.461,-3.4183,-3.3362,-3.3473,-3.4855,-3.5263,-3.5938,-3.698,-3.9119,-4.0255,-4.0251,-4.0196,-4.0062,-3.9887,-3.9757,-3.9055,-3.7885,-3.7824,-3.7794,-3.7675,-3.645,-3.6278,-3.6805,-3.5163,-3.4067,-3.3446,-3.3425,-3.3406,-3.3332,-3.3073,-3.333,-3.3676,-1.9165,-1.9262,-1.8726,-1.6892,-1.6603,-1.6049,-1.4616,-1.4235,-1.3964,-1.3548,-1.3373,-1.3291,-1.3145,-1.2522,-1.1956,-1.1666,-0.9463,-0.7948,-0.7361,-0.7306,-0.6806,-0.5585,-0.353,-0.1145,0.141,0.4326,0.5926,0.6104,0.8024,0.9078,0.9338,0.9957,1.0312,1.0312,1.0479,1.1145,1.1951,0.856,0.7804,0.8589,0.4999,0.2969,0.2294,0.3727,0.346,0.2524,0.3222,0.3382,0.3276,0.3526,0.4322,0.5488,0.7379,0.8622,0.9545,1.0056,0.9025,0.7343,0.5893,0.4822,0.3979,0.3287,0.2976,0.2743,0.2353,0.432,0.5875,0.4382,0.7025,0.8665,0.5588,0.7861,0.8929,0.5377,0.6911,0.6996,0.2326,-0.522,-1.0595,-1.1303,-2.3241,-3.0456,-2.8107,-3.2173,-3.4467,-3.3257,-3.2397,-3.2316,-3.324,-3.3625,-3.4134,-3.4837,-3.7546,-3.8931,-3.8747,-3.8569,-3.8666,-3.8983,-3.8746,-3.8161,-3.7288,-3.7255,-3.6675,-3.57,-3.506,-3.46,-3.4247,-3.3387,-3.2646,-3.1986,-3.2253,-3.2377,-3.2385,-3.2404,-3.2551,-3.2665,-1.4175,-1.4081,-1.3838,-1.2593,-1.2467,-1.2401,-1.2,-1.1634,-1.1166,-1.0721,-1.0577,-1.0264,-0.9624,-0.9637,-0.9499,-0.8975,-0.6966,-0.4685,-0.2372,-0.1753,-0.1495,-0.1509,0.0352,0.3074,0.689,0.8198,0.8892,0.8892,1.0818,1.1787,1.1878,1.3027,1.3555,1.3555,1.3808,1.4685,1.583,1.3523,1.3453,1.4619,1.1982,0.9702,0.8218,1.0594,0.8864,0.5519,0.8129,0.7716,0.5918,0.6078,0.7137,0.8461,0.9121,1.0732,1.2378,1.2781,1.1594,0.975,0.7419,0.6824,0.6667,0.5723,0.5717,0.5784,0.5372,0.6832,0.7847,0.6307,0.8522,0.9975,0.7286,1.0159,1.1449,0.6964,0.909,0.9627,0.4499,-0.1865,-0.5255,-0.3057,-1.6543,-2.4424,-2.0406,-2.782,-3.2202,-3.0606,-3.0337,-3.0497,-3.1062,-3.1274,-3.1831,-3.2821,-3.5469,-3.6988,-3.7194,-3.7017,-3.7328,-3.8091,-3.7802,-3.7473,-3.7059,-3.6617,-3.5628,-3.4193,-3.36,-3.2831,-3.1929,-3.1566,-3.101,-3.051,-3.1083,-3.1282,-3.1354,-3.2098,-3.2043,-3.1723,-0.9445,-0.9139,-0.8743,-0.816,-0.7267,-0.6929,-0.7674,-0.5799,-0.5003,-0.6705,-0.6401,-0.5553,-0.4021,-0.5813,-0.6013,-0.3089,-0.0458,0.1444,0.2615,0.5926,0.5331,-0.0263,0.1927,0.499,0.8537,1.0862,1.2064,1.2234,1.3749,1.4559,1.4824,1.4894,1.497,1.497,1.5144,1.5913,1.6936,1.4244,1.3909,1.484,1.2589,1.0169,0.8235,1.1128,0.9358,0.5746,0.8484,0.8091,0.641,0.6576,0.6735,0.7185,0.9169,1.1371,1.3604,1.5694,1.7835,1.7925,1.0542,1.0062,1.1347,1.003,1.1433,1.2992,1.2045,1.1662,1.2438,1.5721,1.3871,1.1664,1.1784,1.0833,0.8861,0.5166,0.4317,0.3487,0.1707,-0.4995,-0.8669,-0.593,-1.4856,-1.9598,-1.5433,-2.1645,-2.5758,-2.5379,-2.6302,-2.745,-2.8859,-2.7794,-2.8566,-3.171,-3.3358,-3.4872,-3.6276,-3.6342,-3.675,-3.7571,-3.7397,-3.721,-3.6943,-3.5412,-3.4543,-3.415,-3.1332,-3.0646,-3.1454,-2.9915,-2.9373,-2.9421,-2.9685,-2.9685,-2.958,-3.0615,-3.0625,-3.0285,-0.7307,-0.7208,-0.7214,-0.7518,-0.631,-0.5293,-0.5443,-0.3577,-0.2184,-0.2248,-0.1862,-0.156,-0.124,-0.181,-0.1416,0.0369,0.1929,0.4,0.6946,0.8819,0.903,0.7149,0.8021,0.9695,1.2196,1.3406,1.4099,1.4183,1.4963,1.5401,1.5492,1.547,1.5455,1.5455,1.5718,1.6585,1.7877,1.8257,1.8788,1.9497,2.0573,1.9097,1.6647,2.0081,1.8547,1.4972,1.7697,1.7261,1.5495,1.5892,1.6029,1.6237,1.7115,1.7845,1.8472,1.8994,1.9723,1.9663,1.6813,1.6054,1.5948,1.4958,1.5093,1.5316,1.4959,1.4429,1.4,1.36,1.2196,1.0949,1.0615,1.0132,0.9112,0.706,0.8087,0.7997,0.5064,0.4147,0.2792,0.0067,-0.6196,-1.0954,-1.2484,-1.5664,-1.7433,-1.6966,-1.7478,-1.8634,-2.049,-2.3379,-2.6101,-2.8444,-2.8063,-2.9609,-3.3304,-3.3816,-3.397,-3.3847,-3.5216,-3.5056,-3.3512,-3.3561,-3.23,-3.0001,-2.8697,-2.837,-2.8816,-2.8387,-2.8352,-2.8481,-2.8753,-2.7906,-2.6704,-2.7103,-2.7156,-2.7009,-0.5018,-0.4416,-0.4014,-0.4608,-0.3909,-0.3106,-0.2595,-0.1298,0.01,0.1298,0.1687,0.1967,0.2242,0.2115,0.2647,0.4083,0.5336,0.7261,1.0241,1.1484,1.2244,1.2462,1.2257,1.2946,1.481,1.5325,1.5582,1.5582,1.5906,1.6147,1.6304,1.637,1.6527,1.6772,1.7025,1.7883,1.9201,2.0861,2.1889,2.2542,2.4945,2.3908,2.1375,2.4905,2.334,1.9616,2.2891,2.2514,2.0711,2.1543,2.1856,2.1856,2.2001,2.2472,2.3003,2.3392,2.3349,2.3191,2.3404,2.2738,2.1597,1.987,1.9505,1.9544,1.9316,1.7445,1.542,1.4279,1.1481,0.9468,0.9898,0.9165,0.8134,0.7382,0.981,1.0749,0.7755,1.0441,1.1512,0.8335,0.3638,-0.0926,-0.4889,-0.6325,-0.7332,-0.8256,-0.7485,-0.8579,-1.2239,-1.863,-2.2998,-2.4892,-2.4054,-2.5532,-2.9513,-3.125,-3.2031,-3.1822,-3.3515,-3.3583,-3.2158,-3.1717,-3.0088,-2.7577,-2.6886,-2.6693,-2.6879,-2.6989,-2.7191,-2.7338,-2.6793,-2.6065,-2.5281,-2.4859,-2.4732,-2.4877,-0.2011,0.0,0.161,0.161,0.0704,0.0402,0.1503,0.1605,0.2105,0.3497,0.3931,0.4899,0.7018,0.5966,0.6131,0.8516,1.0476,1.1899,1.2382,1.4508,1.5318,1.4489,1.373,1.4052,1.565,1.6402,1.6738,1.673,1.6738,1.7057,1.7691,1.7951,1.8362,1.9002,1.9222,1.9991,2.1135,2.1288,2.2103,2.322,2.3818,2.2461,2.0376,2.3496,2.1491,1.7591,2.187,2.1904,2.0069,2.143,2.1934,2.2056,2.2113,2.3993,2.6593,2.8899,2.9602,2.9602,2.9761,2.9713,2.865,2.4462,2.5178,2.6701,2.5934,2.0876,1.7154,1.9871,1.3001,0.7491,1.0498,0.812,0.5541,0.5381,0.7973,0.9729,0.8953,1.1586,1.4716,1.7905,1.3857,1.0177,0.8513,0.7116,0.4564,0.0367,0.3248,0.2047,-0.5114,-1.3424,-1.9019,-2.1272,-2.207,-2.328,-2.5012,-2.8932,-3.1307,-3.2169,-3.2636,-3.3188,-3.3682,-2.9879,-2.8057,-2.7773,-2.6126,-2.5742,-2.6045,-2.5673,-2.5742,-2.5881,-2.3761,-2.4176,-2.5857,-2.4413,-2.3837,-2.414,-0.0201,0.0602,0.1003,0.01,0.01,0.1096,0.3416,0.4392,0.5833,0.8419,0.8764,0.894,0.9598,0.9473,1.0242,1.2735,1.3564,1.4654,1.6392,1.8331,1.8982,1.8085,1.668,1.6355,1.7294,1.9243,1.9491,1.7861,1.9729,1.9976,1.8594,1.8825,1.8984,1.9222,1.9301,1.9529,1.9913,2.1247,2.14,2.1135,2.3677,2.3575,2.2295,2.4281,2.413,2.3037,2.5232,2.5635,2.5369,2.6791,2.7444,2.7696,2.7723,2.8291,2.8789,2.8217,2.8889,2.9546,2.8566,2.9178,2.9771,2.8429,2.838,2.8595,2.8479,2.343,1.8996,1.9781,1.4768,1.0157,1.006,0.9536,0.9612,1.0802,1.172,1.2811,1.44,1.5701,1.6429,1.6476,1.513,1.3804,1.2953,1.5236,1.5792,1.3429,1.2939,0.7607,-0.4187,-0.7172,-1.1685,-1.8585,-1.9404,-1.8986,-1.7561,-2.5995,-2.947,-2.7928,-2.9084,-2.8077,-2.5068,-2.4633,-2.3546,-2.2064,-2.3116,-2.3756,-2.4108,-2.4074,-2.4146,-2.423,-2.3838,-2.2592,-2.0913,-2.0635,-1.9764,-1.8819,0.2882,0.4459,0.5344,0.3762,0.3374,0.3764,0.4999,0.5389,0.6346,0.8688,1.0063,1.0824,1.091,1.234,1.381,1.5246,1.5806,1.6614,1.7711,1.9543,2.0423,2.0272,1.9624,1.9453,1.9901,2.0248,2.0232,1.9809,2.1446,2.1241,1.9222,2.0341,2.0488,1.9854,2.001,2.001,2.0167,2.142,2.1441,2.0857,2.3125,2.3419,2.2702,2.3879,2.4241,2.4385,2.5832,2.6764,2.7486,2.8889,2.9822,3.0387,3.0054,3.0251,3.0358,2.8898,2.9024,2.9366,2.8166,2.8933,3.0119,3.0147,2.9298,2.8372,2.8372,2.433,2.0129,1.8726,1.593,1.323,1.1854,1.2168,1.3164,1.5054,1.6332,1.7687,1.9286,2.1006,2.1814,2.0964,2.0936,2.0114,1.7966,2.2028,2.4706,2.4421,2.0384,1.4176,0.5577,-0.0478,-0.6248,-1.1771,-1.488,-1.5956,-1.4974,-2.2362,-2.5053,-2.308,-2.556,-2.5024,-2.1882,-2.1691,-2.0969,-1.9947,-2.112,-2.1886,-2.2403,-2.2296,-2.1761,-2.1055,-2.0741,-1.9214,-1.7238,-1.653,-1.5957,-1.5696,0.7174,1.0294,1.2592,1.078,0.9267,0.808,0.7156,0.6051,0.5743,0.6944,0.9635,1.1512,1.1859,1.4729,1.6668,1.6745,1.7771,1.8164,1.7608,1.9497,2.1005,2.1703,2.2777,2.3419,2.3641,2.0729,2.027,2.2376,2.264,2.1875,2.0293,2.2426,2.2558,2.1118,2.1512,2.1512,2.1425,2.1949,2.2101,2.1949,2.2542,2.2542,2.2327,2.2841,2.3001,2.3054,2.466,2.599,2.7155,2.8502,2.9766,3.0644,2.9846,3.0346,3.1043,2.9997,2.9524,2.9171,2.8271,2.8983,3.005,3.0214,2.8655,2.705,2.6769,2.4129,2.082,1.7723,1.7051,1.6738,1.5566,1.5858,1.6864,1.8753,2.16,2.3648,2.398,2.6722,2.8823,2.9127,2.9106,2.7556,2.3686,2.7735,3.1245,3.285,2.6241,2.1454,1.9928,0.6758,-0.1418,-0.2832,-0.933,-1.3532,-1.4993,-1.7775,-1.89,-1.8522,-2.1881,-2.2942,-2.1843,-2.0012,-1.9247,-1.9431,-1.939,-1.9509,-1.9918,-1.9412,-1.8215,-1.6565,-1.5346,-1.4796,-1.4437,-1.2519,-1.2765,-1.4038,1.2563,1.3449,1.4239,1.4509,1.3274,1.2746,1.4224,1.335,1.3331,1.5655,1.5641,1.5778,1.6758,1.7139,1.7696,1.8721,2.0207,2.1234,2.1635,2.4378,2.5813,2.5484,2.766,2.9331,3.0303,2.7841,2.5931,2.4657,2.6701,2.6817,2.5194,2.5671,2.5595,2.4954,2.511,2.4208,2.2596,2.2745,2.282,2.2734,2.3169,2.3243,2.3243,2.3559,2.3768,2.3975,2.5028,2.5775,2.6519,2.7973,2.8661,2.8839,2.8812,2.8925,2.8848,2.7512,2.7998,2.862,2.7339,2.8766,3.0719,3.0734,2.9784,2.8799,2.8566,2.4857,2.1597,2.2358,2.1028,1.9916,2.0511,2.1244,2.247,2.4624,2.5622,2.7128,2.9878,2.842,2.8323,3.1689,2.9638,2.8813,3.1039,3.2655,3.3767,3.4255,3.269,2.8338,2.059,1.4827,0.7942,-0.0342,-0.6079,-0.8538,-0.7294,-1.082,-1.4731,-1.9075,-1.7502,-1.6492,-1.5904,-1.3995,-1.2407,-1.1338,-1.3722,-1.3297,-1.0903,-1.1237,-1.1106,-1.0781,-1.1649,-1.1873,-1.159,-1.0876,-1.1158,-1.1815,1.6614,1.7758,1.8344,1.769,1.6974,1.6288,1.5833,1.5274,1.5164,1.6257,1.6829,1.732,1.8016,1.9178,2.0225,2.0902,2.1683,2.2554,2.3369,2.6115,2.7916,2.8346,3.0168,3.2012,3.3733,3.2026,3.0236,2.8533,2.99,2.9489,2.7607,2.8673,2.8505,2.7296,2.7024,2.6276,2.5254,2.524,2.5189,2.5281,2.5797,2.6045,2.6101,2.6342,2.6477,2.6611,2.6958,2.7846,2.9021,3.0133,3.0974,3.144,3.0986,3.0962,3.0936,2.9686,2.9525,2.9543,2.8407,2.9661,3.1369,3.1498,3.1031,3.0247,2.9446,2.7152,2.5001,2.4498,2.4536,2.4654,2.457,2.5214,2.644,2.8501,2.9116,2.9938,3.1829,3.063,3.0402,3.2748,3.144,3.1393,3.3978,3.471,3.4979,3.4896,3.4117,3.1298,2.5914,2.0851,1.5143,0.8604,0.2885,-0.014,-0.0368,-0.4549,-0.8427,-1.192,-1.2615,-1.1695,-0.9356,-0.9409,-0.8242,-0.6357,-0.8142,-0.8042,-0.6495,-0.7049,-0.6577,-0.5752,-0.7321,-0.7811,-0.7556,-0.6635,-0.6969,-0.8102,1.9519,2.1441,2.224,2.0534,2.0454,1.9552,1.6675,1.6548,1.6475,1.565,1.7549,1.8903,1.8744,2.1301,2.3012,2.3113,2.306,2.343,2.4312,2.6878,2.9038,3.0427,3.1779,3.3405,3.5299,3.4455,3.3421,3.2255,3.2255,3.1363,2.9598,3.1513,3.1416,2.9535,2.9093,2.8731,2.8531,2.845,2.8532,2.8693,2.931,2.9534,2.959,2.974,2.9789,2.9703,2.9525,3.051,3.1989,3.2653,3.3665,3.4462,3.3502,3.3417,3.3476,3.261,3.1571,3.0617,3.0053,3.0878,3.1949,3.2253,3.2175,3.1742,3.0552,2.9722,2.8495,2.6084,2.7646,2.9239,2.8341,2.8729,2.9725,3.1271,3.1882,3.2234,3.2357,3.285,3.3211,3.3345,3.3622,3.4074,3.4853,3.5301,3.5429,3.5097,3.3639,3.2397,3.16,2.5361,2.0785,1.8612,1.2589,0.833,0.5996,0.1651,-0.1093,-0.2343,-0.7017,-0.7536,-0.4437,-0.555,-0.467,-0.2184,-0.2632,-0.2723,-0.2462,-0.3162,-0.233,-0.0698,-0.2443,-0.334,-0.3477,-0.2504,-0.2831,-0.4052,2.0613,2.1167,2.171,2.3511,2.379,2.3477,2.2434,2.3412,2.3773,2.2412,2.3408,2.4129,2.3515,2.4278,2.4951,2.5402,2.5435,2.56,2.5859,2.8648,3.0581,3.1096,3.3719,3.5385,3.5894,3.5752,3.4889,3.3414,3.3414,3.3532,3.3761,3.4076,3.4109,3.3776,3.3702,3.3022,3.1849,3.1839,3.2058,3.2393,3.2749,3.2661,3.2181,3.2373,3.2129,3.1781,3.1619,3.1883,3.2258,3.2361,3.2514,3.2647,3.2408,3.2048,3.1649,3.146,3.0919,3.0366,3.0396,3.1267,3.2206,3.2369,3.3077,3.3774,3.3792,3.0926,2.8553,2.95,3.041,3.1292,3.2369,3.2958,3.3321,3.3327,3.3496,3.3705,3.3957,3.4311,3.4604,3.4788,3.5103,3.5355,3.548,3.5391,3.5259,3.5028,3.4256,3.3203,3.183,2.7916,2.4835,2.2827,1.6248,1.2357,1.1407,0.8483,0.5943,0.3791,0.0226,-0.2787,-0.4991,-0.2029,0.0994,0.4014,0.2752,0.3902,0.6579,0.5287,0.4953,0.5053,0.3186,0.1147,-0.1059,-0.2536,-0.2413,-0.151,2.3221,2.376,2.3932,2.4765,2.52,2.5597,2.5939,2.5947,2.6109,2.6393,2.612,2.5993,2.6299,2.6847,2.7264,2.7435,2.7494,2.8016,2.9164,3.0871,3.2611,3.4464,3.5869,3.6799,3.7058,3.7042,3.6676,3.6012,3.5503,3.5454,3.5948,3.5948,3.5983,3.6043,3.5476,3.4956,3.4542,3.4303,3.4447,3.4865,3.5374,3.5501,3.5402,3.5524,3.5251,3.4787,3.4824,3.4958,3.5198,3.5459,3.5624,3.5729,3.5635,3.4901,3.4083,3.4052,3.3294,3.2486,3.2685,3.3192,3.3788,3.4006,3.4576,3.5102,3.5287,3.3991,3.2782,3.2912,3.3056,3.3321,3.4007,3.404,3.3978,3.3967,3.4054,3.4195,3.4449,3.4851,3.535,3.5924,3.5758,3.5859,3.6495,3.5966,3.5643,3.5761,3.4875,3.3941,3.3087,3.0976,2.8706,2.6254,2.167,1.8302,1.6287,1.0968,0.7582,0.6084,0.3899,0.2898,0.2977,0.458,0.6881,0.9715,0.8279,0.843,0.957,0.8607,0.7998,0.7647,0.6392,0.4821,0.2707,-0.0817,-0.0276,0.1961]}]]